GFSGL_925_rhum_000.txt.gz
RH
41 44 45 45 48 49 49 50 50 49 49 48 46 44 42 43 44 47 51 58 66 73 76 80 81 79 82 86 88 84 85 82 88 76 74 73 68 65 71 72 70 72 67
50 52 53 52 53 54 56 57 58 58 57 56 55 54 52 50 48 48 50 55 62 67 70 73 73 74 78 84 88 86 85 83 85 86 77 80 82 75 79 81 80 68 65
59 58 57 57 59 59 58 58 57 56 56 56 58 59 59 57 55 53 51 52 57 62 68 72 73 74 77 76 84 88 84 85 88 90 85 82 90 90 84 87 84 70 71
58 57 57 59 59 57 56 55 54 54 54 54 54 54 56 57 57 56 52 56 61 65 68 71 75 78 79 77 77 85 90 88 87 91 88 90 92 89 86 91 87 81 75
50 52 53 56 53 53 52 52 54 55 54 53 53 53 53 53 52 53 56 62 68 69 70 71 73 76 77 79 84 83 86 92 88 91 91 96 97 97 94 93 93 88 89
52 53 52 54 55 56 55 54 55 54 52 51 52 55 54 54 54 54 56 69 71 74 75 75 77 79 81 81 80 79 86 88 87 85 93 96 95 92 96 97 95 95 94
50 48 49 46 46 47 49 48 48 46 44 49 51 53 55 54 55 54 59 64 76 76 78 80 81 80 80 81 80 79 88 88 96 97 96 96 91 94 98 99 97 90 83
43 44 45 46 46 45 45 43 42 43 45 44 46 51 53 55 53 50 53 65 69 76 80 82 83 84 87 84 83 84 92 95 99 98 100 98 99 94 96 95 97 93 81
38 37 40 40 40 40 41 39 36 38 42 39 38 42 51 50 43 41 41 56 69 75 76 77 76 81 82 85 99 98 89 97 98 100 99 100 100 99 100 100 98 90 83
28 30 31 33 35 36 35 35 33 34 34 36 34 36 40 42 37 36 40 58 61 71 72 73 85 85 86 89 97 99 97 95 98 100 100 100 99 100 100 98 94 86 94
27 28 28 30 30 30 30 31 32 30 33 33 33 33 33 36 35 38 43 56 64 66 60 66 75 89 93 94 96 99 99 100 100 100 100 100 99 99 100 98 95 86 91
29 30 30 30 30 29 29 31 31 30 30 34 33 33 37 36 41 46 48 57 62 70 68 68 77 89 94 98 100 99 100 100 100 100 100 100 99 99 95 94 93 88 64
31 32 33 34 32 32 33 33 33 31 30 32 33 38 37 36 49 49 55 61 73 75 74 76 84 93 97 99 99 100 100 100 100 99 98 97 97 96 98 99 96 87 74
35 36 37 37 38 38 39 38 36 35 35 36 39 42 47 50 53 54 62 70 76 75 80 84 93 96 99 100 100 100 100 100 100 99 100 100 98 100 99 94 96 97 97
39 39 40 42 43 43 42 43 41 40 42 50 53 54 55 56 54 59 68 76 76 75 85 84 94 96 97 98 100 100 100 100 100 100 100 100 99 99 100 99 98 98 91
42 43 45 46 47 48 48 46 46 49 53 56 57 59 56 56 55 67 70 73 78 80 77 84 96 97 97 97 99 99 100 99 98 98 98 98 98 97 97 98 97 93 83
45 47 48 51 51 50 52 56 60 62 59 58 56 55 56 58 65 66 71 74 74 74 82 88 96 97 98 98 100 100 99 98 98 98 98 98 98 97 97 97 96 83 82
47 51 53 55 56 59 63 65 65 64 63 62 60 60 60 65 64 66 70 72 80 79 81 86 97 98 98 99 100 100 98 98 98 98 98 98 98 97 97 97 90 82 79
51 54 55 59 64 64 64 67 68 67 66 66 69 67 69 64 64 69 72 80 85 82 80 83 94 99 99 100 100 99 98 98 98 98 98 98 98 97 97 89 82 79 82
56 60 62 64 66 68 69 71 72 71 72 73 75 76 72 70 72 73 76 83 82 83 80 88 98 99 100 100 99 98 98 98 98 98 98 98 98 97 90 85 81 83 84
65 64 64 67 71 71 71 71 71 73 76 71 72 75 67 64 71 75 78 81 83 85 85 92 99 100 100 100 99 98 98 97 98 97 97 97 98 94 84 80 76 78 80
64 68 70 72 70 69 69 70 70 71 76 80 79 80 72 71 77 75 76 83 85 82 86 99 99 100 100 100 99 98 98 97 97 97 97 97 96 81 79 79 79 77 71
67 68 69 70 70 69 72 78 80 74 72 74 74 76 79 80 77 76 78 83 84 81 96 95 93 100 100 99 98 98 98 97 97 96 97 96 87 78 74 78 77 68 71
68 73 76 73 73 72 70 70 71 70 68 70 70 76 77 78 79 79 82 86 88 92 98 85 94 100 100 98 98 98 98 97 97 97 96 94 76 80 75 74 64 59 57
78 78 78 78 76 74 75 76 77 73 75 72 75 77 78 82 84 85 84 85 86 97 91 87 99 100 100 98 98 98 97 97 97 97 97 71 68 72 68 61 48 55 61
77 76 75 75 77 78 76 74 73 77 79 79 78 83 83 84 82 83 82 79 83 96 83 90 98 100 98 98 97 98 98 98 97 97 78 60 66 64 53 43 53 61 66

GFSGL_925_rhum_003.txt.gz
RH
59 59 59 60 61 59 58 55 51 48 48 48 49 49 50 53 56 57 56 57 56 55 53 58 70 74 80 82 82 84 93 91 93 80 76 72 72 70 68 65 67 64 63
57 58 57 59 60 56 53 51 51 55 54 55 54 54 55 55 56 58 60 59 61 62 64 67 70 73 76 79 83 83 83 88 90 88 79 77 78 78 73 72 71 73 74
52 53 52 58 56 55 55 55 54 56 58 59 60 60 57 56 56 56 56 60 62 63 67 69 73 76 79 78 81 85 84 84 86 88 85 81 84 89 87 84 82 80 84
54 55 52 58 54 51 46 45 49 50 54 58 57 54 54 60 58 55 59 55 59 68 71 73 75 79 81 81 84 85 85 87 86 84 86 91 87 96 94 89 95 92 92
50 48 54 47 43 43 45 47 48 49 50 50 49 46 59 53 58 53 54 62 72 74 76 74 74 77 79 80 85 90 92 90 89 86 84 83 92 99 97 95 96 96 100
41 44 43 41 41 44 45 46 48 48 47 47 47 51 49 57 52 49 52 70 73 60 59 66 76 83 84 85 85 87 91 98 90 88 85 87 84 91 96 98 96 99 98
37 38 32 32 39 40 41 42 43 43 41 40 50 44 48 47 44 53 53 48 39 46 65 66 81 68 62 72 81 87 92 93 95 99 96 91 93 91 96 93 94 92 90
31 25 23 27 32 34 36 38 38 39 38 38 40 36 41 36 38 47 47 42 43 48 60 62 72 57 66 82 91 92 91 90 91 98 95 90 92 99 100 98 92 98 100
23 24 26 27 30 32 34 34 34 33 36 32 32 36 31 37 38 48 41 45 46 49 61 68 51 56 63 73 87 92 92 94 95 97 98 99 93 90 100 100 100 98 96
26 28 29 29 31 33 32 31 31 32 33 32 30 31 35 38 43 34 31 42 52 55 71 66 62 60 65 74 84 89 96 93 95 96 98 99 100 99 99 100 99 97 98
28 30 32 33 34 34 33 33 34 34 33 34 32 31 34 34 33 32 41 57 57 66 70 75 72 70 79 84 86 94 97 99 98 99 99 100 100 100 99 100 100 99 97
32 34 36 37 38 38 38 39 39 40 38 35 35 37 36 38 41 46 50 54 58 70 75 77 74 77 82 84 92 95 96 99 99 99 100 100 100 100 100 100 100 100 96
36 38 40 40 41 42 43 44 44 42 42 41 42 44 48 52 53 56 56 57 65 73 73 75 78 80 81 94 92 94 99 100 100 100 100 100 98 99 100 99 99 99 99
40 41 42 44 46 47 48 48 48 49 48 49 54 59 62 62 62 59 62 70 72 73 74 79 77 72 87 95 96 97 100 100 100 100 100 100 99 99 98 98 98 98 97
43 45 46 49 50 51 51 51 52 53 55 61 64 66 66 67 62 62 67 69 72 71 71 77 72 73 84 90 97 98 98 100 100 100 99 99 98 98 98 97 97 97 97
46 47 49 51 53 54 54 54 57 61 65 65 65 64 64 61 63 65 66 69 71 66 82 75 75 78 83 92 96 96 97 99 100 99 99 98 98 98 97 98 97 97 97
48 51 53 54 54 56 58 62 67 68 66 66 66 62 63 65 61 64 68 73 66 70 80 85 83 88 82 97 97 98 98 99 100 99 98 98 98 98 97 97 97 98 96
50 54 56 56 60 64 68 72 72 71 73 71 67 67 62 60 62 67 68 64 75 80 79 85 89 93 90 98 98 98 98 99 98 98 98 98 98 98 97 97 97 96 91
54 57 58 62 67 69 70 72 74 74 73 72 72 68 68 68 71 74 68 76 82 84 86 88 93 90 94 98 99 99 99 98 98 98 98 98 97 97 97 98 96 84 87
58 61 63 66 69 71 73 76 74 73 75 77 81 77 72 79 92 76 76 80 80 87 90 91 91 94 94 97 99 99 98 98 98 98 97 97 97 97 97 95 85 87 87
63 65 67 68 74 76 75 74 75 80 87 80 75 80 65 64 72 79 85 84 83 83 84 87 96 95 86 97 99 99 99 98 97 97 97 97 97 97 95 85 84 82 83
68 70 72 74 73 74 74 77 72 76 84 77 75 73 66 68 81 88 88 87 86 91 85 86 98 90 91 99 99 99 99 98 97 97 97 97 97 94 84 80 79 76 75
68 71 74 75 78 75 75 82 88 84 78 79 78 76 72 71 77 84 86 85 90 91 85 97 99 90 96 99 99 99 98 97 97 97 97 97 95 83 78 78 74 73 72
73 78 87 85 81 78 78 78 79 78 78 80 70 72 74 75 79 80 83 86 89 86 88 99 95 91 99 100 99 98 98 98 97 97 97 96 83 80 72 71 65 59 57
76 79 81 80 80 81 82 86 88 82 78 74 78 78 79 82 83 88 86 86 86 87 97 90 90 93 99 98 98 97 98 97 97 98 97 80 71 68 65 58 48 63 72
76 79 84 85 84 81 80 80 80 81 83 86 88 89 88 90 92 89 87 86 88 94 89 91 90 88 96 98 97 97 98 98 97 98 91 67 66 62 45 45 64 74 80

GFSGL_925_rhum_006.txt.gz
RH
53 53 52 55 55 55 55 54 53 53 55 58 61 63 64 64 59 60 61 60 60 64 67 62 70 71 77 81 84 87 87 86 91 76 74 75 81 86 82 75 73 70 70
55 54 53 55 52 49 43 42 42 48 48 51 59 60 57 52 58 64 62 61 65 58 61 67 76 79 83 84 85 85 85 86 89 88 79 80 80 82 90 88 81 75 78
52 48 51 46 42 38 37 35 34 41 47 49 53 52 49 54 60 54 61 62 57 64 67 74 82 80 76 77 84 87 86 86 87 84 82 81 84 84 88 92 95 94 90
42 43 45 39 32 27 26 26 29 34 43 44 44 40 46 58 47 51 61 54 66 68 80 69 61 62 68 82 88 89 90 89 87 86 84 78 78 77 85 97 97 98 98
39 43 35 24 20 21 23 28 31 36 38 42 40 39 41 52 37 55 47 49 61 76 57 48 54 50 60 77 64 63 79 88 86 88 86 85 86 83 89 86 97 95 98
36 29 22 20 21 23 25 28 30 32 34 37 37 38 45 35 41 43 43 52 67 56 50 48 58 60 74 55 52 69 81 91 93 92 90 88 85 85 86 88 90 96 97
26 22 21 23 25 25 27 30 32 34 35 36 35 36 34 35 35 38 51 51 43 46 45 46 50 66 68 54 61 70 76 82 86 92 94 87 89 86 92 92 89 94 91
22 24 25 27 30 30 32 34 34 34 34 34 35 34 34 32 32 43 52 40 34 36 52 52 62 74 69 69 70 75 76 82 82 88 92 91 93 97 98 99 99 98 100
25 27 28 29 32 34 35 36 36 35 37 37 36 36 36 35 38 49 42 44 52 56 58 60 70 73 76 74 74 80 84 84 83 89 93 96 99 99 98 100 97 99 99
27 29 30 32 35 37 37 38 39 40 40 40 41 40 38 38 39 41 48 52 57 60 61 66 76 73 71 70 74 82 89 85 92 94 96 96 99 100 100 100 99 98 99
30 32 35 36 38 39 40 42 43 45 45 47 44 44 42 44 49 54 58 62 63 66 72 74 71 70 69 73 76 85 94 93 93 96 99 98 100 99 99 100 100 100 100
34 36 38 39 41 42 45 47 48 50 50 49 50 50 54 59 63 64 65 64 66 72 83 75 75 72 78 80 75 87 91 94 93 97 98 97 98 99 100 100 100 100 100
38 40 41 42 44 48 49 51 53 52 54 55 57 63 66 68 68 70 66 68 79 73 73 79 69 80 71 74 76 83 92 97 98 96 96 96 99 100 99 99 99 99 98
41 43 45 48 51 52 53 54 54 57 58 62 69 71 72 72 76 70 80 79 74 91 85 68 77 66 67 70 75 80 91 98 100 98 98 98 100 98 98 98 98 98 97
44 47 49 52 54 55 55 55 57 60 65 69 70 71 73 81 73 73 65 69 97 75 62 76 78 74 77 81 80 84 88 95 98 99 99 98 99 98 97 98 97 97 97
50 51 53 56 58 57 56 57 62 67 69 69 68 67 67 65 72 61 64 91 78 60 69 77 82 80 84 83 85 91 88 94 98 98 98 99 98 97 97 97 97 97 96
51 54 58 60 60 59 62 67 72 73 69 68 68 66 65 67 62 62 80 95 63 64 75 86 83 82 85 87 87 95 92 95 100 99 98 98 98 97 98 97 97 97 97
48 57 61 62 65 69 72 74 73 74 74 73 70 70 67 64 63 72 88 74 72 78 80 83 82 84 86 93 92 92 94 97 98 98 98 98 98 98 97 97 97 97 95
55 60 63 66 68 69 71 74 74 76 74 74 74 76 76 68 68 78 70 77 86 87 83 80 82 83 89 97 89 94 95 98 98 98 98 97 97 97 97 97 97 93 90
60 67 65 66 71 71 74 77 74 74 76 79 83 77 75 73 83 83 71 80 89 85 85 86 85 86 96 94 94 96 96 97 97 98 97 97 97 97 97 97 91 92 90
68 71 70 70 76 75 75 74 77 86 90 79 81 82 67 69 78 69 77 90 87 89 92 94 92 95 94 95 97 97 97 97 98 97 97 97 97 97 95 87 90 86 82
71 72 72 73 74 76 78 81 76 80 86 85 82 83 73 69 72 77 92 82 84 89 96 98 97 94 96 97 98 97 97 98 98 97 97 97 97 90 86 84 80 78 73
70 74 76 79 81 80 86 94 94 85 82 85 90 80 72 76 78 80 82 85 88 94 97 97 98 95 95 98 98 98 98 98 98 97 97 97 88 83 76 77 73 72 74
76 80 84 83 79 75 77 82 90 82 80 84 76 76 79 82 83 85 90 92 93 96 96 100 98 99 99 99 98 97 98 97 97 97 97 93 83 76 72 62 64 58 63
77 80 80 80 81 83 84 84 83 80 79 80 82 82 85 88 93 94 96 96 93 97 100 98 98 97 98 96 97 97 98 97 97 97 98 75 69 68 55 52 64 82 84
78 78 76 74 74 77 80 84 86 88 90 91 93 96 97 97 98 99 94 94 98 100 99 97 93 87 96 96 96 98 97 98 98 98 77 62 61 50 47 72 80 89 91

GFSGL_925_rhum_009.txt.gz
RH
55 52 53 46 40 34 28 24 24 25 30 38 44 48 47 45 52 63 54 56 66 63 56 65 69 74 87 86 77 78 81 86 91 77 74 75 77 79 82 81 81 86 88
48 48 43 37 26 17 16 18 19 24 23 30 32 38 36 42 48 57 45 61 55 54 62 68 75 84 76 75 66 73 85 88 90 90 80 78 78 77 78 83 86 87 93
42 44 34 21 14 17 17 17 17 21 23 26 32 37 38 39 52 43 40 58 46 50 57 67 87 65 74 63 68 91 79 63 70 79 84 82 78 79 83 83 84 84 88
38 31 21 16 16 17 17 18 20 23 26 27 32 34 36 41 37 33 50 47 51 61 66 70 54 54 63 67 80 68 59 72 82 84 79 80 76 76 81 91 93 91 93
30 20 19 18 18 20 21 23 24 25 26 26 27 26 31 34 31 40 45 52 65 47 40 43 42 46 44 57 79 73 67 75 82 80 81 78 77 78 80 83 85 81 85
19 20 21 21 23 24 24 24 24 25 28 29 31 33 36 36 38 43 51 61 53 41 37 41 54 53 51 72 76 73 73 75 79 81 80 82 81 80 83 87 89 92 93
20 22 24 26 27 27 28 28 31 34 36 36 37 38 39 39 40 47 52 53 48 49 54 58 60 61 67 80 79 75 79 76 74 76 82 84 83 82 83 87 83 88 95
23 25 28 30 32 33 33 34 36 38 40 41 41 42 42 43 46 50 51 52 56 57 60 62 64 68 74 71 70 65 75 74 77 81 87 88 90 90 97 96 94 93 95
27 29 31 32 35 35 36 38 40 42 44 45 46 46 48 47 50 53 58 62 63 65 67 68 76 70 70 64 66 72 74 73 72 83 88 87 90 92 95 99 91 93 93
29 31 33 35 36 37 39 41 44 46 49 49 51 51 52 53 55 62 64 67 70 71 91 92 75 69 65 67 66 74 96 98 99 94 93 93 93 95 99 100 100 97 97
31 33 34 36 38 40 43 44 47 51 54 56 55 57 58 62 66 66 66 68 69 94 90 75 74 72 76 62 68 80 94 88 92 93 95 92 91 93 96 99 100 100 98
34 35 37 38 40 44 48 49 52 55 58 57 60 62 66 69 70 69 68 66 74 75 73 83 84 65 63 63 63 61 64 77 88 93 91 91 92 94 98 100 99 99 99
38 39 38 41 44 50 51 53 57 58 59 62 64 71 72 72 74 74 73 76 67 68 86 82 64 63 67 69 71 71 80 88 98 96 93 92 96 98 100 99 98 98 98
40 41 42 46 52 52 55 59 58 61 63 66 72 74 76 80 78 72 91 78 70 81 97 69 63 68 74 74 80 81 88 86 91 94 95 97 98 94 99 99 98 98 97
43 45 47 51 56 59 61 59 59 61 68 72 73 73 76 79 74 70 77 66 68 99 65 68 69 78 81 78 80 80 83 85 90 89 97 97 96 93 96 98 98 98 97
47 51 54 61 63 64 62 62 65 70 70 69 70 69 69 67 66 67 64 69 87 67 66 74 80 80 82 83 85 82 87 85 89 96 97 97 96 96 97 97 98 97 97
49 53 60 63 64 66 68 72 74 74 71 70 70 68 68 67 65 62 68 74 74 58 76 85 82 82 86 88 86 92 92 90 96 96 98 98 97 97 97 97 98 97 96
48 54 61 63 69 73 74 73 72 75 75 74 71 70 70 67 65 66 76 63 63 72 87 84 82 87 89 88 90 93 93 93 95 96 97 97 97 98 97 97 97 96 96
57 62 68 71 72 70 70 73 74 76 74 73 75 76 74 72 71 88 66 67 77 94 87 82 84 92 91 92 94 94 95 95 96 96 97 98 98 98 97 97 97 95 92
66 70 69 71 73 71 74 76 75 76 76 80 82 78 81 85 96 76 70 79 87 88 84 87 88 89 92 95 95 96 95 95 96 97 98 98 97 97 97 97 96 93 92
70 74 73 72 76 74 76 77 80 87 94 82 84 81 69 76 80 75 81 83 83 91 92 93 93 93 93 96 95 96 96 96 97 98 98 97 97 97 96 95 91 87 84
73 74 75 76 77 80 82 84 79 84 88 85 83 85 82 74 77 81 85 87 90 95 97 99 98 97 97 98 98 97 96 96 97 98 97 97 95 91 85 80 77 73 74
74 76 80 83 85 81 81 90 92 83 88 87 85 82 77 79 82 86 87 91 95 98 98 100 100 98 98 99 98 98 98 97 98 97 98 95 87 79 73 72 69 74 79
78 83 83 82 82 77 77 80 79 78 78 78 79 80 82 85 85 87 93 98 100 100 100 100 100 100 100 99 98 97 97 98 97 98 98 86 75 66 58 55 55 58 64
79 83 82 81 78 76 78 80 81 82 85 88 87 86 87 90 94 95 99 100 100 100 100 99 100 99 98 96 96 97 98 98 97 98 83 69 60 49 62 84 88 89 84
79 79 76 75 77 80 83 87 91 93 94 94 95 97 97 95 96 99 100 100 100 100 97 100 94 85 96 96 96 97 98 97 97 77 67 50 39 68 80 89 95 94 91

GFSGL_925_rhum_012.txt.gz
RH
49 43 36 25 15 12 12 14 15 16 19 21 22 23 23 25 26 34 46 40 52 58 48 53 62 68 84 75 83 68 67 80 93 76 59 54 59 72 81 84 80 81 85
45 35 22 14 12 11 13 16 19 20 18 21 20 22 24 28 32 38 36 40 55 50 56 63 72 79 58 66 68 57 72 86 66 78 65 66 72 70 75 79 78 81 84
34 22 15 14 14 15 16 17 17 18 19 19 21 26 28 31 34 32 40 48 51 56 63 51 41 50 48 49 53 56 70 76 75 76 76 76 74 70 77 78 74 73 80
23 16 16 17 18 19 20 19 20 21 24 24 24 26 27 30 32 36 47 52 57 67 52 45 42 44 50 60 56 59 76 84 80 81 80 80 76 73 74 78 74 74 77
16 18 20 20 20 22 23 22 23 24 25 25 26 26 30 36 35 48 51 56 58 56 52 53 55 59 61 60 66 69 75 79 73 86 88 78 75 74 80 78 80 76 77
18 21 22 22 24 27 27 25 24 26 28 29 31 35 38 40 45 51 55 58 58 57 60 60 62 64 64 69 68 65 64 66 64 71 83 75 71 72 79 83 89 86 87
18 19 23 27 30 30 28 28 31 34 33 34 36 38 42 45 49 56 58 61 65 65 66 67 69 70 78 79 73 67 68 64 63 64 72 75 77 79 89 91 81 82 89
20 23 28 31 32 32 31 34 35 37 40 40 43 46 49 52 56 60 64 67 68 69 70 73 75 90 78 67 73 92 98 71 69 80 89 98 96 97 95 85 91 93 92
26 29 30 33 35 36 35 37 38 43 43 44 51 53 56 57 61 66 67 68 69 71 73 78 92 76 69 73 84 80 71 87 79 75 81 81 80 76 78 89 96 97 96
31 31 32 34 35 34 36 41 43 44 51 54 56 58 59 62 66 69 66 67 70 72 84 90 71 66 68 70 60 69 88 72 69 85 93 91 85 82 84 88 100 98 98
31 32 32 30 33 36 42 44 47 51 57 59 60 60 64 68 73 68 66 66 68 88 85 67 69 82 83 60 58 72 71 65 88 89 85 90 87 89 97 99 100 100 98
32 32 33 32 35 40 47 50 52 57 62 61 62 66 69 73 73 71 66 64 69 77 67 66 84 92 63 60 68 68 67 72 82 90 89 90 87 86 89 99 98 100 99
33 33 34 35 39 48 53 56 61 63 62 64 66 71 74 74 76 75 72 76 76 65 68 96 79 67 61 70 71 69 71 80 86 93 89 91 87 90 99 91 96 98 98
37 37 37 43 52 53 58 59 64 64 67 67 74 74 76 77 81 79 88 87 78 74 98 97 72 64 67 70 74 78 80 83 86 94 94 92 90 91 95 92 98 99 98
40 42 46 52 56 60 61 62 63 65 70 72 71 73 79 81 79 73 77 67 73 80 67 63 68 75 76 76 77 79 82 84 94 94 92 91 91 94 94 91 98 98 97
47 49 53 61 62 63 66 69 70 70 69 67 68 70 71 71 73 75 67 70 84 56 56 64 86 79 78 80 85 84 85 85 90 92 94 94 93 96 93 96 98 98 97
48 52 62 62 64 69 75 77 76 70 69 70 71 68 70 67 67 66 75 78 61 58 71 90 84 79 80 85 89 88 90 90 94 96 95 95 95 96 96 96 97 97 96
50 53 59 63 72 76 78 74 71 73 75 75 73 72 71 68 67 68 80 66 66 76 86 88 82 83 88 92 90 91 93 94 95 96 95 95 97 97 96 97 97 96 96
55 60 69 74 75 74 72 73 74 76 76 76 77 79 74 73 74 93 70 73 83 85 82 85 87 90 94 92 92 94 95 95 96 96 95 97 97 98 97 98 97 95 94
61 71 73 74 76 74 76 76 78 78 80 84 88 80 81 87 97 79 74 82 87 87 88 90 92 93 95 94 95 96 95 95 95 96 96 98 98 97 98 97 96 95 96
69 75 76 75 79 78 80 82 86 93 84 83 85 82 71 83 79 79 83 86 86 93 96 94 94 95 95 96 97 96 96 96 96 96 97 98 98 99 97 95 94 92 88
75 77 78 80 81 85 84 79 78 84 84 82 84 80 72 75 79 85 85 87 90 96 98 96 95 97 99 98 97 96 96 96 97 97 99 98 95 89 80 75 71 73 76
76 77 82 86 86 80 82 80 79 80 82 82 84 80 80 81 84 86 86 91 97 96 96 100 100 98 99 97 98 98 97 97 98 98 99 94 85 76 68 67 74 82 95
79 82 85 84 85 77 75 76 77 80 80 82 84 84 85 84 90 91 94 97 99 98 100 100 100 100 99 98 98 97 96 97 98 97 96 82 67 57 68 87 82 94 95
77 81 84 83 79 77 79 82 83 86 90 91 90 88 90 93 93 95 97 100 100 99 100 98 100 97 97 96 96 96 97 98 96 76 69 53 60 96 96 96 95 97 99
78 81 80 78 79 82 85 90 94 95 95 94 96 95 94 95 97 98 100 100 100 100 98 99 90 95 96 96 96 98 99 100 81 60 43 64 96 96 95 95 97 98 98

GFSGL_925_rhum_015.txt.gz
RH
35 26 18 13 11 10 10 12 14 15 17 21 25 28 31 30 31 34 34 34 39 46 49 56 61 57 45 48 57 57 55 53 65 56 61 68 64 58 59 61 58 52 66
28 19 14 12 11 11 14 16 17 18 20 21 22 28 31 32 34 33 35 40 46 50 52 63 53 46 44 44 47 51 58 61 63 72 82 67 62 65 72 74 70 72 68
21 15 12 12 13 15 18 20 20 18 19 20 26 32 33 34 35 36 40 47 51 53 54 56 50 50 50 53 61 64 66 66 70 74 70 68 70 71 68 70 73 71 73
18 14 13 14 18 22 23 20 20 22 24 23 27 32 34 38 40 39 50 54 55 55 56 57 56 56 57 63 64 66 68 71 70 70 69 66 65 66 68 66 70 69 71
16 16 17 20 24 22 21 22 24 25 27 29 31 36 40 42 35 52 56 58 59 59 60 59 60 64 68 67 68 68 72 70 72 72 70 70 67 64 65 66 70 72 76
19 20 23 23 23 24 25 26 26 29 30 30 38 42 43 42 50 57 62 64 63 64 64 64 64 67 68 72 69 66 66 77 81 94 78 71 67 71 76 76 84 81 94
21 24 25 28 27 27 26 27 31 34 34 42 42 42 45 47 54 61 65 67 66 64 65 66 70 70 78 79 75 72 89 72 61 66 74 84 85 73 88 96 97 98 82
22 24 30 31 28 27 28 31 33 41 46 46 45 48 49 51 61 65 69 66 66 63 64 67 70 83 73 65 67 99 66 60 64 76 69 69 76 84 78 76 81 85 88
26 29 31 30 31 30 30 34 39 49 48 47 50 51 53 57 63 72 70 67 65 65 66 67 91 68 60 68 99 72 65 65 70 66 66 69 73 72 75 87 94 90 87
29 31 31 31 31 32 35 40 42 46 52 53 53 58 59 60 69 72 67 66 67 68 75 84 65 59 64 96 69 64 67 70 78 74 76 76 79 82 82 83 96 97 93
31 31 30 30 32 35 39 40 44 50 57 59 59 58 63 67 72 69 65 65 70 86 92 71 65 63 98 69 58 61 69 68 73 75 78 81 82 80 84 84 99 99 97
33 33 31 30 33 35 40 44 49 59 63 62 59 62 66 70 70 70 66 66 70 77 76 69 75 98 64 59 59 64 65 67 77 84 84 82 83 85 86 90 95 100 100
34 32 32 32 32 38 49 55 60 64 66 63 64 69 71 71 74 73 73 80 74 68 71 88 75 53 52 64 64 63 69 79 85 89 86 85 84 86 91 95 91 100 95
35 34 32 35 47 48 52 60 67 68 68 67 70 69 75 78 78 78 89 89 75 85 97 61 56 54 66 70 66 72 77 82 86 91 91 90 87 88 89 87 95 92 96
36 35 37 44 51 60 64 65 67 69 74 70 69 71 80 83 78 74 72 67 74 92 57 60 60 74 76 69 71 75 78 82 88 88 91 92 90 88 87 87 97 96 94
40 47 50 61 64 64 68 69 74 75 70 69 70 71 73 72 74 70 65 71 84 60 62 67 75 80 76 74 77 81 83 82 89 93 93 92 92 93 93 95 97 97 95
44 50 63 66 66 70 75 77 76 69 70 72 73 71 71 70 68 67 71 87 63 62 70 79 79 79 80 81 84 87 89 89 94 95 95 94 94 93 95 95 96 96 93
51 55 63 66 73 76 79 76 72 73 74 73 74 74 72 69 69 68 79 66 66 73 79 85 85 83 84 86 89 91 93 93 94 95 95 95 95 96 95 96 95 94 94
56 58 65 76 79 76 74 75 76 77 76 77 79 75 72 72 76 78 70 71 81 82 84 84 84 87 89 91 92 94 95 95 95 96 95 96 97 97 96 96 94 90 86
50 63 74 76 78 75 79 78 79 78 82 79 78 78 77 81 92 78 75 81 84 86 85 88 89 90 92 94 95 96 95 94 95 95 96 97 98 100 96 93 88 85 84
62 72 78 77 82 80 82 83 83 82 80 81 77 80 73 76 79 80 81 84 84 90 93 93 92 94 95 96 96 96 95 95 96 96 97 98 100 95 88 80 75 77 83
73 78 83 83 83 86 84 77 80 80 77 81 80 81 76 78 80 81 82 86 89 94 94 94 94 95 97 97 97 96 96 96 97 98 99 100 98 87 80 74 78 95 94
75 80 85 86 86 81 83 79 76 78 80 82 82 81 81 79 80 85 90 90 93 94 95 98 99 98 97 97 97 98 97 97 99 100 100 98 83 77 80 74 79 93 92
79 83 86 84 85 77 74 76 77 79 81 81 84 84 84 83 88 89 91 94 97 96 99 100 100 98 97 98 98 97 97 99 100 79 66 54 85 98 99 99 98 97 96
76 80 83 83 81 77 79 82 84 88 91 92 90 88 89 91 92 93 94 96 98 100 100 100 99 97 97 96 96 97 99 93 89 59 52 89 98 99 98 98 97 99 98
77 80 78 78 80 82 86 92 96 97 96 94 94 94 95 95 96 96 98 98 100 100 100 100 96 96 96 97 99 100 90 85 70 76 96 97 97 97 98 98 98 99 97

GFSGL_925_rhum_018.txt.gz
RH
32 28 25 22 20 20 21 21 22 22 23 22 22 22 22 22 23 23 24 24 30 32 35 37 39 45 41 38 38 38 40 43 51 50 50 49 46 47 48 46 48 49 52
29 25 24 23 21 20 21 22 22 22 22 24 25 24 23 24 26 25 26 29 33 36 37 39 40 40 42 41 40 42 47 48 52 67 55 51 51 49 50 51 49 49 49
26 23 22 22 22 22 23 24 24 25 25 26 26 26 26 27 29 29 28 35 37 39 40 42 44 46 45 44 48 50 50 56 60 60 61 60 58 55 53 55 56 51 48
25 24 24 25 25 26 26 27 27 28 28 29 29 29 29 30 31 28 38 42 43 43 45 48 48 47 48 53 54 52 64 65 59 62 69 66 62 60 56 55 53 53 59
24 25 27 28 28 29 30 29 29 31 31 32 33 30 29 30 26 44 50 50 50 49 49 48 48 51 58 58 61 70 76 63 70 73 72 61 54 53 56 58 67 60 62
24 24 28 28 30 32 31 31 31 32 32 34 32 30 30 30 36 51 62 60 56 52 48 48 47 48 50 59 65 59 58 69 71 84 66 59 58 60 65 60 65 73 79
24 26 27 30 31 31 32 31 32 33 34 33 32 31 31 34 39 57 65 65 56 51 49 48 48 47 56 68 57 56 64 88 81 63 61 62 70 66 68 76 82 82 79
25 25 29 31 31 30 29 29 31 33 33 32 32 34 35 35 45 58 70 62 53 50 49 49 49 56 66 57 56 67 93 63 55 55 56 66 83 91 75 75 83 87 84
25 26 30 32 31 30 29 31 33 34 35 34 35 37 37 39 48 64 67 58 53 50 50 51 64 65 54 55 73 98 78 63 53 55 67 67 63 63 68 82 92 87 87
27 31 32 33 32 30 33 34 36 36 37 37 37 37 40 44 51 63 65 61 56 55 58 64 58 56 55 76 86 56 72 63 65 73 68 64 68 72 71 75 94 95 92
33 34 33 32 32 33 35 37 38 37 38 37 36 37 44 50 55 59 65 63 62 75 78 68 60 59 72 58 53 56 63 61 66 67 68 74 73 73 75 80 87 98 94
36 35 33 33 34 36 38 38 37 37 38 36 37 44 48 51 54 59 63 63 70 82 73 65 68 78 54 53 55 62 58 62 68 73 77 76 77 79 82 85 88 93 96
35 33 33 34 35 38 38 39 38 37 38 42 45 49 49 53 54 57 60 66 70 65 64 73 74 54 55 57 63 58 61 68 75 82 83 83 82 84 88 90 91 93 93
34 33 34 35 40 39 41 40 40 39 44 50 53 54 58 58 58 61 72 79 69 67 87 86 55 53 54 59 60 62 66 70 79 88 90 90 89 85 86 85 94 92 94
34 34 36 37 39 39 38 40 48 52 63 68 65 66 67 66 64 66 75 67 71 86 76 60 55 56 64 64 64 66 68 74 88 92 93 92 89 87 89 92 94 95 95
38 36 39 44 41 40 40 42 48 59 64 67 71 71 69 67 66 68 64 72 83 69 63 59 62 70 70 68 69 72 77 85 93 94 93 93 93 93 93 94 97 97 94
42 42 43 41 39 43 45 50 51 48 54 59 63 66 68 68 65 66 73 87 67 60 63 69 73 72 72 74 76 80 91 93 96 95 95 94 95 94 95 95 96 95 93
47 52 49 45 49 51 53 54 52 54 54 53 56 61 64 64 67 69 77 69 60 63 70 75 75 75 76 79 83 93 93 93 94 95 95 95 96 96 95 95 95 94 85
51 47 47 50 52 58 57 56 56 56 56 55 55 56 58 63 67 68 66 66 72 75 75 75 77 79 82 84 93 95 95 95 95 96 95 95 95 96 90 87 82 78 77
48 53 62 56 56 56 58 57 58 57 56 56 57 57 59 71 80 71 70 72 74 76 77 82 82 84 86 94 96 95 95 95 95 95 95 95 96 91 82 72 67 73 77
50 53 61 62 61 61 61 60 59 58 59 58 58 61 68 77 75 73 74 76 78 82 85 87 88 89 94 96 96 96 96 95 96 96 96 96 93 86 72 67 83 94 95
56 58 64 65 64 61 61 62 61 59 60 60 62 65 68 69 71 74 77 82 82 85 88 90 92 94 97 97 97 97 96 96 97 98 97 92 92 90 91 82 82 91 94
60 67 66 63 61 61 60 58 59 60 62 65 66 67 68 71 76 80 82 82 87 89 90 92 95 97 97 97 98 98 98 98 100 100 94 92 95 95 94 91 91 88 87
70 67 63 59 58 61 57 58 61 65 68 69 72 73 78 84 81 80 84 88 90 93 94 96 97 97 98 98 99 98 100 100 95 92 97 100 99 98 96 95 93 96 93
66 62 59 56 56 57 60 64 67 71 77 80 81 83 86 83 84 87 88 91 94 97 97 98 98 98 98 97 99 99 99 84 93 97 100 100 100 100 100 98 98 93 96
61 58 56 57 59 63 69 77 82 84 86 86 87 90 89 88 89 91 94 95 98 99 100 98 98 97 96 98 95 100 89 96 97 98 100 100 100 100 100 98 96 91 94

GFSGL_925_rhum_021.txt.gz
RH
32 29 27 24 22 22 21 20 20 19 19 20 20 21 21 22 22 23 24 24 24 28 31 33 35 36 38 39 42 42 44 44 51 48 48 55 55 50 51 52 52 53 49
30 27 26 25 24 22 21 20 20 20 20 21 22 23 23 24 25 26 26 25 27 31 34 36 38 39 42 44 44 45 47 49 51 59 59 57 52 55 58 57 54 52 50
28 26 25 25 24 22 21 22 21 22 23 24 25 26 26 27 27 27 27 28 34 37 38 40 42 44 45 45 47 51 52 55 63 67 64 57 58 64 62 51 44 45 50
27 26 27 26 25 25 24 25 24 24 26 28 29 30 29 27 27 28 30 40 44 45 46 46 46 45 45 48 52 56 63 71 72 69 62 65 66 66 57 52 51 56 60
26 26 27 28 26 26 27 27 26 28 29 30 31 31 29 28 26 32 43 50 54 54 51 48 44 44 46 48 49 57 71 83 65 65 78 83 87 62 59 56 58 60 61
25 24 26 26 26 28 28 28 28 29 31 31 31 30 29 29 30 38 47 58 60 57 52 47 45 44 43 46 54 56 61 62 61 79 87 93 71 58 56 62 67 75 82
25 24 24 25 26 26 27 27 28 30 30 31 30 30 29 32 34 40 51 63 64 55 49 47 46 45 49 60 61 61 61 60 77 74 73 75 59 58 70 82 90 82 73
25 23 24 25 25 26 26 26 28 30 30 31 30 31 32 32 35 43 55 63 57 54 50 49 49 54 62 62 60 89 89 83 68 55 60 58 60 75 92 80 71 82 87
24 23 24 25 26 26 26 28 31 31 32 33 32 33 32 31 36 47 58 60 60 57 54 54 58 62 60 61 79 97 72 60 58 57 62 60 59 60 63 73 91 90 87
23 25 26 26 27 27 28 31 32 33 33 33 33 31 30 34 41 50 55 61 62 60 62 72 63 56 60 77 79 58 66 62 85 75 66 64 64 67 67 72 88 94 91
27 27 28 27 28 29 32 33 34 33 33 32 31 30 35 39 44 48 54 58 62 64 83 72 66 58 75 74 52 57 59 77 70 65 66 70 73 74 74 77 84 96 94
29 29 29 29 30 32 32 33 33 33 32 30 31 36 41 43 47 51 54 57 59 78 79 69 63 92 66 51 54 54 59 61 64 70 78 80 79 80 82 85 88 92 95
28 28 28 30 32 32 35 34 34 32 31 33 38 44 49 54 57 56 57 58 65 66 65 66 95 58 52 54 56 57 59 65 72 88 90 84 83 86 89 91 94 96 94
28 28 31 32 35 35 34 34 32 32 39 45 54 59 64 65 63 63 66 76 73 73 87 95 56 54 54 57 61 62 65 68 76 90 93 91 88 90 93 95 96 95 96
30 32 33 34 36 36 34 32 35 38 48 59 63 66 69 67 65 63 66 67 76 85 74 63 58 60 65 66 65 66 69 78 94 93 93 93 92 92 93 95 96 97 96
36 35 35 38 37 34 33 35 37 43 47 50 55 59 61 62 62 63 64 69 78 66 63 62 65 70 71 70 70 72 83 87 92 94 94 94 94 94 94 95 98 98 96
41 40 40 43 37 36 39 41 45 46 46 48 50 52 55 58 59 61 66 77 66 60 64 69 73 72 73 74 77 90 93 92 96 96 96 95 95 95 93 93 88 92 88
42 44 44 40 41 42 44 49 48 48 48 48 49 50 53 54 58 63 73 67 65 68 72 75 75 75 77 81 93 94 94 93 94 95 95 95 95 95 94 87 84 84 84
46 46 44 49 50 48 49 49 50 49 50 50 50 52 53 54 63 68 64 69 72 75 76 78 78 79 84 94 95 95 96 95 95 96 95 96 96 97 95 96 95 93 93
46 45 48 51 51 51 51 51 52 51 52 54 55 55 55 65 86 71 70 73 76 81 82 82 82 86 96 96 96 96 95 94 95 96 96 97 97 97 96 96 96 95 96
46 46 50 51 52 55 56 54 53 56 56 55 56 57 60 67 70 70 73 76 81 83 84 87 89 95 97 97 97 96 96 96 96 97 97 97 97 96 97 98 98 97 98
50 49 51 57 58 55 53 56 54 54 55 56 59 62 63 66 69 74 79 81 81 86 88 90 94 97 97 98 97 97 97 97 97 98 98 97 97 98 98 98 98 97 98
56 59 59 56 54 52 50 52 52 53 57 61 63 66 70 71 75 80 80 83 88 89 91 94 97 98 99 99 99 100 100 98 98 99 98 99 99 98 98 98 98 98 97
66 60 57 54 50 50 49 50 54 57 60 66 72 76 79 81 83 81 86 91 92 94 96 97 99 99 98 100 100 100 97 97 98 98 98 98 98 98 99 98 98 98 97
61 57 53 50 48 49 51 55 62 68 76 80 83 85 85 86 87 90 91 94 96 97 98 100 99 98 100 99 100 97 97 98 98 98 98 97 98 98 99 99 99 93 95
56 54 51 52 54 56 64 74 82 85 88 89 90 90 90 91 91 94 96 96 98 100 100 100 98 97 98 100 97 97 99 97 97 98 99 99 98 98 96 99 99 97 91

GFSGL_925_rhum_024.txt.gz
RH
30 27 25 24 23 22 21 21 19 19 20 20 22 22 24 25 25 26 27 27 27 27 31 36 39 40 42 44 46 49 50 51 59 55 52 52 64 59 56 56 57 59 60
28 27 26 25 24 22 21 21 21 21 22 23 24 26 27 28 28 28 28 28 29 37 41 45 46 46 48 48 50 49 52 54 55 61 63 68 62 62 59 60 65 63 62
27 26 26 26 25 24 23 23 24 24 24 26 28 29 30 31 30 29 28 31 39 45 51 53 54 53 52 50 48 51 52 55 66 76 74 70 68 62 65 70 72 62 56
27 27 28 27 26 26 25 26 26 26 27 28 30 31 32 32 30 29 30 37 45 54 60 60 59 56 52 50 50 50 54 63 72 73 82 92 68 69 75 96 66 58 53
28 28 28 27 26 25 27 27 27 27 29 30 31 32 32 31 30 32 39 44 50 59 64 64 60 52 51 48 49 54 60 59 75 97 91 82 78 78 75 65 60 56 62
26 26 26 25 25 27 27 27 27 28 29 30 31 31 31 31 34 38 41 46 54 63 67 62 57 53 50 52 55 54 56 75 83 96 94 80 60 59 66 71 69 74 85
25 25 24 25 25 25 26 26 26 28 30 31 32 32 32 33 36 38 41 48 56 62 63 60 58 55 57 61 67 70 96 87 76 68 64 62 62 84 96 87 88 92 89
26 24 24 24 25 26 26 26 28 30 32 33 34 34 34 34 34 37 44 51 57 61 62 62 62 62 69 65 70 91 95 87 72 67 60 63 79 70 70 70 73 81 84
25 23 24 25 26 26 27 28 30 33 34 34 34 34 33 32 34 41 47 52 57 60 63 65 70 73 68 64 74 98 87 72 72 60 78 76 61 60 62 68 91 93 86
24 25 26 26 27 27 28 30 33 35 35 34 34 33 31 33 37 45 49 55 58 63 67 81 79 67 59 73 80 66 73 64 71 88 67 66 67 72 72 76 88 94 92
25 27 28 28 28 29 32 32 34 34 34 34 33 32 35 40 47 52 57 59 62 69 93 86 82 64 85 74 59 60 59 66 76 66 68 74 80 87 84 88 94 98 94
28 28 28 28 30 32 33 35 35 35 34 33 35 42 48 54 62 63 61 60 65 81 78 72 69 88 62 59 58 58 62 62 67 72 80 87 83 88 91 93 95 97 98
28 27 28 30 33 35 36 35 36 34 33 37 44 52 62 66 68 68 65 66 72 70 72 75 88 64 58 58 61 61 63 70 78 92 91 89 92 95 98 97 97 95 95
29 28 31 33 37 36 37 36 34 33 37 43 53 59 63 64 67 66 66 75 72 77 92 96 70 60 60 64 67 68 71 79 92 95 94 94 96 95 96 97 97 95 96
31 34 35 36 38 39 38 35 36 39 43 50 53 56 59 61 60 57 60 60 68 86 70 71 63 67 73 72 71 72 76 88 96 95 95 94 93 94 92 92 97 95 93
38 39 40 42 44 42 38 40 42 46 50 51 52 53 54 55 56 58 58 64 72 65 67 67 73 76 77 76 80 88 89 92 95 96 95 95 95 95 94 94 96 95 94
41 41 44 46 45 42 45 48 51 52 52 52 52 52 53 55 56 58 63 69 67 64 69 77 80 81 80 84 92 94 94 95 97 96 96 96 96 95 92 93 96 95 93
41 44 47 46 45 50 52 52 53 54 55 54 54 55 56 56 58 63 68 67 70 74 78 85 84 82 86 94 95 95 95 95 95 96 96 96 96 96 94 94 95 95 94
45 48 48 48 50 53 53 53 55 56 56 56 58 59 58 59 63 72 67 73 77 81 83 83 84 89 96 96 96 96 97 96 94 97 96 96 96 97 94 94 96 92 94
50 51 50 50 51 53 55 59 60 58 59 60 60 59 60 64 75 72 72 76 82 84 83 87 91 94 96 97 97 97 96 96 96 97 96 97 98 98 96 96 96 96 95
52 51 52 50 53 58 59 59 58 60 60 59 59 61 62 68 72 74 78 84 82 85 91 95 94 96 97 98 98 97 97 97 98 98 98 97 97 96 98 99 98 98 98
55 57 58 61 61 58 57 56 54 56 57 59 63 66 67 72 75 80 86 84 86 92 95 96 98 98 98 98 98 98 99 99 98 99 99 98 98 98 99 99 98 98 98
61 67 66 62 58 55 52 53 53 55 59 64 69 74 76 79 84 87 85 89 93 95 96 98 98 98 99 100 100 98 98 97 98 100 98 99 98 98 99 98 98 98 98
70 68 63 58 54 53 52 53 57 61 68 78 82 81 84 87 86 88 93 95 98 98 100 99 98 98 98 100 97 96 96 97 98 99 99 98 98 100 99 98 99 98 99
68 62 57 54 53 54 57 61 71 81 89 87 87 89 90 89 93 94 96 98 99 100 100 97 97 98 100 96 96 96 97 98 99 98 98 98 97 99 99 99 99 94 98
60 55 54 56 59 61 67 78 86 92 95 95 96 93 95 98 96 98 100 100 100 100 99 98 96 97 96 96 97 98 98 99 98 98 99 100 99 98 99 99 99 99 97

GFSGL_925_rhum_027.txt.gz
RH
26 25 24 24 24 24 22 20 19 18 19 20 22 24 26 28 29 30 29 29 29 34 36 43 50 52 55 56 56 56 58 58 62 55 53 54 59 66 62 63 66 60 59
27 28 26 25 24 24 23 22 20 20 21 22 25 27 29 30 31 32 31 30 33 38 44 52 57 61 62 62 60 58 56 55 57 60 60 69 71 66 66 74 66 65 71
28 28 27 26 26 25 24 22 21 21 22 24 28 30 31 32 32 31 31 32 39 43 50 58 62 66 67 65 62 58 57 57 66 79 86 74 67 86 83 76 86 73 75
27 27 28 27 26 24 23 22 22 22 24 27 29 30 31 32 31 32 36 41 44 48 52 56 62 68 68 62 58 57 62 64 63 64 69 89 76 80 85 71 56 56 62
28 29 29 27 24 23 22 21 22 24 27 29 30 31 32 32 33 39 43 44 45 48 52 59 64 65 60 57 57 58 61 66 88 96 83 92 88 64 60 60 63 67 76
29 30 26 25 23 22 22 23 24 26 28 31 32 33 33 34 39 42 44 44 46 50 56 60 64 65 62 59 60 61 64 69 76 93 95 86 67 65 66 66 77 92 89
27 26 25 23 22 23 24 24 26 28 31 33 33 34 34 34 39 40 43 46 49 51 57 61 65 66 68 75 76 70 75 83 89 78 74 74 73 70 82 96 93 89 86
26 25 24 23 22 24 25 26 29 32 33 35 34 34 34 32 39 41 46 51 55 58 60 63 67 74 85 71 72 77 97 94 79 73 70 72 88 89 70 69 76 87 90
25 24 23 22 24 25 27 29 32 33 34 34 34 34 33 36 41 48 54 61 62 64 66 69 80 77 70 62 74 98 96 87 65 63 81 73 63 62 66 85 93 93 86
24 24 23 25 26 27 30 32 33 35 35 35 34 33 35 42 52 60 64 66 66 67 82 90 77 64 58 85 85 78 75 64 83 91 67 67 71 75 76 84 95 94 92
24 24 25 27 28 31 33 34 35 36 35 34 34 36 42 51 61 65 65 64 68 89 88 79 74 68 97 64 62 61 64 73 76 70 72 76 80 82 81 89 98 98 94
24 26 27 28 32 34 36 36 36 36 35 35 38 44 51 59 64 65 63 63 75 74 78 74 80 94 61 60 62 64 66 70 72 79 84 85 84 90 94 97 98 98 99
26 27 29 32 35 37 37 38 37 36 38 42 47 55 60 61 61 64 66 66 63 63 80 84 83 64 62 66 69 68 70 79 95 94 89 88 92 96 98 97 98 97 98
28 30 34 36 41 38 39 38 39 42 45 53 57 59 61 61 61 60 61 63 66 92 93 83 66 63 69 71 73 73 80 92 94 95 94 93 95 96 96 97 97 95 96
32 35 37 40 42 42 41 43 47 49 52 57 58 58 60 60 59 58 60 63 75 80 68 70 67 74 78 76 74 77 83 89 94 94 95 95 94 95 94 95 97 96 94
34 37 41 46 45 45 47 49 50 55 57 56 57 57 58 59 59 60 61 72 72 66 70 71 79 82 81 79 82 88 89 89 94 96 95 95 95 94 95 94 94 96 95
37 41 46 46 46 48 50 56 61 58 58 57 57 58 61 61 61 62 69 67 69 69 75 82 84 83 84 86 91 94 94 93 96 96 97 96 96 95 91 92 94 94 92
40 45 48 49 50 51 55 55 58 63 63 61 60 61 60 61 63 68 69 71 74 78 83 85 86 86 89 94 95 95 95 95 95 97 96 97 97 96 94 94 94 95 95
47 49 52 51 51 56 53 58 62 65 64 62 62 61 60 64 71 75 71 78 85 89 84 86 88 93 96 96 96 96 96 96 96 97 96 97 97 97 95 95 95 89 93
48 48 56 54 53 55 61 62 65 63 62 61 61 60 63 70 80 77 80 85 89 87 88 92 94 96 97 98 98 98 97 96 97 97 97 98 98 98 97 97 96 96 95
51 46 58 58 64 65 63 62 61 60 60 60 60 64 68 74 78 82 87 90 89 92 96 98 97 98 98 99 99 98 98 98 98 98 99 99 100 97 98 98 99 98 98
52 56 62 68 67 62 59 56 55 58 60 64 68 75 76 79 83 90 89 90 92 97 98 99 99 100 99 99 98 99 100 100 98 98 100 100 100 98 99 99 99 98 98
62 63 69 67 62 58 55 56 58 62 66 75 82 84 83 84 90 89 92 95 97 99 100 100 99 99 99 97 98 98 98 97 97 100 100 99 98 98 99 99 99 98 98
59 65 66 60 55 58 58 63 65 73 80 85 88 87 90 91 91 93 97 99 100 100 100 100 98 97 96 97 97 96 96 96 98 98 99 99 99 99 99 98 98 98 99
58 61 58 57 60 64 67 74 82 88 94 94 93 92 92 94 98 98 100 100 100 100 100 96 97 96 97 96 96 97 96 98 99 100 98 99 100 100 100 100 100 98 98
58 60 62 64 67 71 76 84 93 98 98 97 96 98 99 100 99 100 100 100 100 100 95 96 96 96 96 96 97 98 99 99 99 98 99 98 100 100 99 99 99 98 99

GFSGL_925_rhum_030.txt.gz
RH
27 26 26 26 25 24 24 21 19 18 18 18 22 25 27 29 30 32 32 31 32 34 41 46 51 56 61 64 68 69 69 67 72 62 59 60 65 70 69 70 70 70 75
26 26 26 25 25 25 24 22 20 18 19 23 25 27 29 31 31 32 32 33 38 42 44 49 53 59 61 67 70 71 70 68 66 72 79 75 67 63 65 70 86 84 76
27 27 26 26 27 26 23 20 19 20 22 25 28 30 31 32 32 32 36 42 44 45 47 51 54 58 64 68 71 72 66 64 69 67 67 64 64 75 81 80 79 57 57
29 29 28 29 27 24 21 20 21 22 24 27 30 31 32 32 32 37 44 46 46 46 47 50 54 58 64 70 67 64 71 67 68 72 80 89 82 72 96 68 61 59 61
29 30 30 28 24 22 21 21 22 24 27 30 32 31 32 33 36 46 47 46 47 48 50 52 57 62 64 61 62 66 68 82 95 96 76 75 94 69 66 65 68 67 67
30 31 28 25 23 22 22 22 23 26 30 32 33 33 33 34 44 46 48 49 51 54 58 59 61 67 66 65 66 65 68 68 69 78 96 78 71 70 71 70 79 94 87
32 28 26 24 22 22 22 23 27 30 32 33 33 34 34 33 45 49 53 57 60 63 63 64 67 70 77 83 78 65 70 80 95 77 78 75 72 74 92 95 85 84 85
28 26 25 22 21 22 24 28 30 32 34 34 34 34 34 36 50 57 62 66 66 66 67 69 71 85 78 64 65 84 97 85 83 70 65 77 92 79 71 82 92 95 94
26 25 24 21 23 24 28 32 33 35 35 35 34 34 36 43 51 61 65 66 68 69 70 73 85 75 66 67 96 83 79 74 62 72 82 70 66 66 75 94 93 92 86
25 25 22 23 25 28 32 34 36 36 36 36 35 37 42 49 54 64 64 65 69 71 82 94 80 68 67 87 64 68 72 69 95 94 70 69 75 78 79 88 97 94 92
25 23 24 25 28 33 35 36 37 36 36 38 41 46 52 55 58 66 64 64 66 90 81 73 74 79 80 61 62 69 73 82 86 74 78 82 83 82 84 92 98 98 94
24 24 26 29 33 37 37 37 36 38 41 44 50 55 58 59 61 66 63 62 69 64 77 83 94 79 64 65 69 72 73 75 78 86 87 84 86 92 94 97 97 98 99
25 26 30 34 39 39 39 39 40 43 48 54 59 61 63 62 62 63 66 64 63 70 86 77 74 68 67 73 75 74 72 80 90 93 89 88 91 96 99 98 97 96 97
26 31 34 37 46 41 41 42 47 52 56 63 63 64 65 65 64 64 66 64 76 82 83 81 71 68 73 76 76 76 79 82 88 94 94 93 93 92 92 95 97 94 96
30 35 38 43 44 44 44 47 53 56 60 62 62 62 65 66 65 63 62 65 69 71 69 74 72 77 82 80 79 80 83 86 91 92 94 94 92 91 92 91 97 95 94
34 38 44 46 46 47 50 51 49 61 62 61 61 62 63 65 63 64 64 68 68 71 76 76 82 85 85 84 86 89 89 88 93 96 96 95 95 94 94 92 92 95 94
37 45 47 47 50 52 55 57 62 58 62 61 60 62 64 63 66 67 71 70 75 76 81 87 89 88 89 90 92 93 93 93 96 96 97 96 96 96 92 93 92 93 91
41 46 49 50 51 55 58 58 61 67 69 65 61 62 61 64 69 73 73 77 81 84 88 90 91 92 92 95 95 96 96 96 96 98 96 97 97 97 95 93 93 95 94
46 48 53 53 54 61 62 63 61 65 68 64 62 62 62 69 76 78 78 85 90 91 90 92 93 95 96 97 97 98 98 97 96 97 97 98 97 97 94 94 96 91 91
48 45 61 60 61 65 66 61 65 64 62 63 63 64 68 80 88 83 85 90 92 92 93 96 96 97 98 99 99 99 98 97 97 98 97 98 98 98 97 97 97 96 96
50 52 64 62 67 67 60 63 59 60 63 63 67 72 76 82 84 86 92 91 93 97 99 99 99 99 100 100 100 100 99 98 98 97 98 98 98 97 99 99 99 98 98
57 57 61 67 66 59 61 58 58 64 67 71 79 82 82 85 87 92 92 94 97 100 100 100 100 100 98 98 98 98 100 99 98 99 99 100 99 99 99 99 100 98 98
56 56 60 61 57 61 60 61 67 70 77 83 86 88 88 90 92 92 95 99 100 100 100 100 100 99 98 98 97 97 97 97 97 98 99 100 99 98 98 98 100 98 98
50 56 58 57 60 66 67 73 77 84 87 91 94 92 93 92 95 97 100 100 100 100 100 100 99 97 96 96 96 96 96 96 97 98 99 99 99 100 98 99 100 99 95
52 56 60 64 68 72 77 84 91 96 100 98 96 95 97 99 100 100 100 100 100 100 98 96 96 96 96 96 96 97 98 98 99 99 99 99 99 100 100 100 100 99 98
56 60 66 71 75 81 88 94 96 100 100 100 100 100 100 100 100 100 100 100 100 98 95 94 96 96 96 96 97 98 99 99 97 97 100 100 99 100 98 98 99 99 96

GFSGL_925_rhum_033.txt.gz
RH
30 28 28 27 26 25 25 22 19 18 19 20 24 26 28 29 30 29 29 32 37 41 43 46 47 50 54 58 60 66 76 78 81 71 68 69 71 62 61 62 65 68 71
28 27 27 26 26 27 25 21 20 19 21 24 26 28 29 30 28 28 32 39 44 46 47 47 48 50 56 60 64 73 76 76 78 84 85 71 64 64 67 71 80 89 96
27 27 26 27 28 26 23 21 20 21 24 26 28 30 29 30 29 29 42 46 48 47 48 49 51 55 61 65 68 75 78 76 83 80 73 71 72 78 81 94 85 70 61
28 28 28 29 27 24 22 20 21 23 26 28 30 30 30 30 29 39 48 49 49 50 53 56 58 60 64 70 68 66 79 72 74 80 82 82 77 89 84 65 60 61 63
29 30 30 28 25 23 21 21 22 25 29 30 30 29 29 30 33 50 52 54 56 59 63 62 62 68 66 63 64 65 69 80 88 82 78 94 77 65 64 67 69 68 77
31 31 29 26 23 21 21 21 25 29 30 32 31 31 31 31 39 53 58 62 66 66 63 62 64 70 69 68 68 67 67 64 85 97 86 76 71 70 71 73 88 89 82
32 30 27 24 22 21 22 25 29 31 32 32 32 32 32 33 47 57 62 68 66 64 65 66 70 73 80 85 82 69 86 95 75 73 76 75 72 74 98 95 89 91 85
31 28 25 22 21 22 25 30 32 33 34 34 33 33 35 37 54 59 65 68 65 65 67 70 74 85 87 69 80 99 80 75 73 68 67 79 96 81 71 82 96 96 92
29 27 24 21 22 25 30 33 34 34 34 34 35 37 41 48 55 63 67 66 66 68 70 82 87 82 70 73 90 77 71 74 66 74 90 74 68 72 79 96 92 92 84
28 25 22 23 25 30 33 36 36 35 35 36 36 41 48 54 55 67 67 66 68 69 83 79 75 69 67 86 67 69 76 72 95 95 72 75 80 83 80 90 98 94 91
26 24 24 26 30 34 36 36 36 36 37 38 46 50 55 58 60 68 66 65 66 69 66 78 80 78 79 64 64 72 78 88 84 77 82 84 85 83 86 91 97 98 94
25 25 26 31 34 37 36 37 37 39 43 47 57 58 60 60 63 68 67 65 64 63 76 81 86 78 67 67 72 76 75 75 80 84 89 86 87 90 93 97 100 100 99
25 27 31 35 39 39 39 38 39 44 52 59 65 65 65 66 64 68 71 67 63 72 78 72 73 72 69 75 79 77 76 84 89 94 90 90 92 96 98 96 95 95 95
26 31 35 38 44 42 41 44 47 52 60 66 68 68 68 68 69 68 69 67 78 77 78 77 75 71 76 78 80 80 83 85 88 93 94 94 95 94 94 93 96 95 96
31 35 40 43 43 44 46 49 52 54 65 66 65 65 68 70 70 67 66 68 72 71 72 78 76 81 84 84 82 83 84 88 93 94 96 95 94 93 93 92 96 96 94
33 38 44 45 46 48 51 51 48 61 66 65 64 63 65 67 66 68 68 70 69 75 80 81 86 88 88 88 89 89 91 91 94 97 97 97 96 95 94 92 94 94 94
35 44 46 48 49 52 57 59 63 48 47 57 62 63 66 65 70 71 73 73 80 80 86 90 92 91 92 93 94 95 95 95 98 99 98 98 96 97 93 93 93 93 90
41 50 50 51 53 56 62 63 62 66 71 66 55 64 64 68 74 76 77 80 85 88 91 93 94 94 95 96 96 97 97 97 98 99 97 98 98 98 96 93 93 95 95
46 49 55 55 55 66 64 60 59 63 67 64 64 65 67 76 80 83 81 90 94 94 93 94 95 97 97 98 98 98 99 98 97 97 98 98 98 98 95 95 96 92 92
49 49 65 59 59 63 62 60 65 64 64 66 67 69 76 84 94 85 90 94 94 95 96 98 98 99 98 99 100 100 99 99 98 98 98 99 98 99 97 97 97 96 95
50 52 64 55 61 63 56 65 60 63 67 69 73 78 79 83 87 91 94 94 96 99 100 100 100 100 100 100 100 100 100 99 98 98 98 97 98 97 99 100 100 98 98
55 48 52 59 59 54 65 61 63 70 74 79 85 86 85 89 91 95 95 98 100 100 100 100 100 100 98 98 98 99 100 100 100 98 99 98 98 100 100 100 98 98 98
44 47 53 54 55 67 63 66 75 80 87 90 91 93 93 92 94 96 99 100 100 100 100 100 98 96 97 98 97 96 97 97 97 98 99 99 98 98 98 98 98 98 98
43 51 55 58 63 72 71 81 85 90 91 96 97 94 96 97 98 100 100 100 100 98 96 97 96 97 97 97 96 96 96 96 96 98 99 98 99 97 97 99 99 98 98
49 54 60 67 70 77 85 90 96 97 100 100 100 99 100 100 100 100 100 100 99 96 92 95 96 96 96 96 97 97 98 98 99 98 99 98 98 97 97 98 99 98 99
54 64 67 69 76 86 91 96 96 96 97 100 100 100 100 100 100 100 100 99 96 92 91 96 96 96 96 97 98 98 99 100 94 95 99 100 99 94 98 100 94 83 90

GFSGL_925_rhum_036.txt.gz
RH
36 31 29 28 26 24 24 21 20 18 19 21 23 26 28 28 28 26 26 31 38 44 46 47 48 48 50 53 57 62 69 78 86 75 71 71 78 71 68 70 72 75 76
31 29 27 26 26 26 23 20 19 18 21 23 26 27 27 27 27 26 28 37 47 49 49 50 53 55 57 59 61 67 74 79 84 87 84 74 70 72 75 82 89 86 84
28 28 27 27 28 25 22 20 19 20 23 26 28 28 26 26 25 25 40 50 52 53 55 58 61 62 62 65 70 75 76 80 85 80 74 74 76 78 93 84 73 63 58
28 28 28 29 27 23 21 20 21 23 26 28 29 28 27 26 26 35 53 56 59 62 64 63 58 60 69 71 72 69 72 72 74 80 78 83 96 79 68 64 63 63 67
28 29 30 28 25 22 20 21 23 27 29 29 29 27 27 27 30 52 57 60 65 69 64 59 62 70 74 71 69 71 72 81 84 95 93 81 73 69 69 68 70 74 86
31 32 29 26 23 21 21 22 27 29 30 30 29 28 30 30 35 56 61 63 68 68 65 64 67 72 75 73 72 70 70 78 98 86 81 76 72 72 71 78 95 88 85
33 31 28 25 22 22 23 27 30 31 31 31 31 32 31 34 47 61 62 66 69 66 65 66 70 76 79 81 82 83 86 90 73 69 73 74 75 78 98 94 87 90 87
32 29 27 24 22 23 27 31 32 32 32 32 32 33 35 38 55 62 66 68 69 65 65 68 74 81 81 77 82 98 90 78 74 72 72 82 97 84 76 84 97 97 92
30 28 25 22 23 27 31 33 33 34 32 32 35 35 42 44 54 66 69 69 68 68 68 72 80 76 74 77 96 86 75 75 70 75 89 79 72 76 82 94 93 92 85
30 26 23 23 26 32 34 34 35 34 35 35 33 41 47 51 53 70 68 69 70 71 73 68 73 73 70 87 67 72 77 74 92 96 74 75 80 84 84 86 93 95 91
28 25 24 27 32 35 36 36 35 35 36 36 42 45 48 57 60 70 68 69 70 71 68 73 82 74 77 66 67 74 80 87 85 78 83 84 87 86 89 94 98 98 95
25 26 28 33 36 37 37 37 37 38 40 43 54 53 56 61 64 72 70 70 67 67 75 83 78 76 70 70 74 79 78 78 83 86 89 88 89 94 96 99 100 100 100
25 28 33 38 39 39 39 39 41 42 47 55 66 69 67 68 65 69 74 74 67 73 80 73 77 75 72 78 82 81 80 86 88 95 92 91 94 98 100 99 96 96 97
28 34 38 43 41 42 42 43 45 46 53 66 71 72 70 69 71 70 73 71 76 86 79 84 79 73 78 81 83 82 86 86 91 94 95 96 98 96 97 96 98 97 97
33 37 42 42 43 44 45 46 48 48 67 67 68 67 69 71 70 68 69 71 75 73 75 81 78 84 87 86 85 86 87 89 94 96 97 97 96 95 95 95 97 96 95
36 41 46 45 46 45 45 45 45 54 66 67 65 65 66 69 69 72 72 74 72 78 83 84 89 91 91 90 91 91 92 93 96 98 98 98 97 97 96 95 97 96 94
37 44 46 46 45 48 52 60 65 44 45 60 62 65 68 69 73 77 76 76 82 81 89 94 94 94 94 95 96 96 96 96 99 100 99 98 97 96 95 95 95 95 91
48 47 47 48 50 53 63 65 61 65 69 56 45 66 68 73 80 78 80 82 86 91 94 96 96 96 97 98 98 97 98 98 98 100 98 97 98 98 96 94 95 95 94
45 49 53 52 50 63 62 56 59 61 61 62 63 66 71 80 81 86 82 90 97 96 96 97 98 99 100 99 99 99 99 97 97 97 98 98 98 98 96 96 97 92 92
48 54 65 50 53 59 54 58 65 60 64 70 72 74 80 88 96 88 92 97 98 98 99 100 100 100 100 100 100 100 98 98 98 98 98 98 98 100 97 98 97 96 95
49 46 57 50 54 51 55 67 60 67 73 76 80 84 82 85 90 94 97 98 99 100 100 100 100 100 100 100 100 100 100 100 99 98 100 99 99 98 99 100 99 99 98
48 43 48 51 51 54 69 63 69 78 83 88 90 90 89 92 94 97 97 100 100 100 100 100 100 100 97 97 98 99 100 100 100 99 100 100 99 99 100 100 100 98 98
40 44 47 50 54 70 65 73 83 88 92 94 94 96 94 94 97 98 100 100 100 100 93 98 98 96 97 99 97 97 97 97 96 98 100 100 98 98 98 99 99 98 98
42 46 52 56 61 76 77 87 86 92 94 96 98 96 98 98 100 100 100 100 99 90 89 95 97 97 97 98 97 97 97 97 97 98 99 98 98 98 98 99 98 100 99
44 51 58 63 69 78 84 88 92 92 93 99 100 100 100 100 100 100 100 98 93 93 91 95 96 96 97 98 97 98 98 98 99 99 99 99 98 98 98 99 94 89 100
52 59 62 67 73 83 91 95 94 94 95 96 99 94 98 100 100 100 100 96 95 95 94 94 97 97 97 98 99 97 99 99 99 95 98 99 99 98 99 99 86 85 85

GFSGL_925_rhum_039.txt.gz
RH
47 39 33 30 27 25 24 22 21 18 18 20 22 25 26 26 24 22 22 29 38 45 48 52 53 56 60 62 64 66 65 65 65 64 64 65 64 61 61 66 70 73 72
38 32 28 26 25 24 23 21 19 19 21 22 25 26 26 24 23 23 27 39 49 52 55 57 62 62 63 62 62 64 70 69 72 74 72 68 59 64 68 77 70 63 62
31 28 26 25 26 24 22 20 20 21 23 26 27 26 24 24 24 25 37 51 56 60 62 65 66 63 62 62 68 73 73 75 79 78 68 68 71 80 73 64 58 58 59
29 27 27 28 26 23 21 21 22 23 26 27 27 26 25 25 25 34 50 58 61 64 67 66 66 66 68 74 77 74 76 73 70 74 76 90 75 65 67 64 61 63 65
29 30 29 27 24 22 22 22 24 26 28 28 28 26 26 26 29 54 60 62 63 68 69 64 66 71 75 74 72 72 70 76 84 85 94 71 70 65 62 64 67 71 79
32 31 29 26 24 22 22 24 28 29 30 29 28 28 29 29 31 60 64 65 68 72 68 66 68 69 77 74 72 71 73 76 93 94 81 72 62 63 67 72 90 83 79
33 31 28 25 23 23 25 28 30 32 31 30 29 30 30 31 44 64 65 68 71 70 68 68 70 73 76 81 82 79 78 96 78 75 70 67 71 72 93 94 85 86 83
33 30 27 24 23 25 28 30 32 32 31 31 31 31 32 36 47 65 68 71 72 70 69 71 76 76 78 78 75 96 94 75 69 70 70 77 92 90 78 80 90 92 88
33 29 26 23 24 28 31 34 34 33 32 32 33 34 39 42 49 70 71 70 70 71 73 75 76 70 71 66 87 92 71 68 68 72 86 84 74 76 82 94 91 89 82
32 27 24 22 26 31 34 34 35 34 34 33 32 40 45 50 50 71 71 70 72 69 72 69 68 73 68 77 77 73 75 68 85 96 70 68 74 78 84 84 90 94 89
27 24 24 27 31 34 35 36 35 35 35 32 35 42 47 55 58 72 72 70 72 72 67 68 74 72 82 71 68 71 76 87 83 75 74 77 81 81 82 89 95 98 95
25 25 30 33 35 36 36 37 38 38 36 40 50 50 54 56 62 72 72 73 72 68 70 78 76 79 72 72 74 80 80 81 76 79 81 86 88 92 95 98 100 100 100
26 31 34 37 38 39 40 40 41 41 45 56 67 67 67 66 66 68 76 75 69 74 81 74 77 77 72 75 80 82 84 80 82 87 89 90 92 97 100 100 99 99 100
30 37 40 39 41 42 42 42 46 48 56 68 69 68 70 69 70 72 74 72 75 89 76 81 80 73 78 82 80 78 80 82 87 92 93 94 96 97 97 97 99 98 97
34 39 43 42 43 43 43 45 49 54 67 67 69 69 67 67 67 70 72 73 82 76 75 79 71 75 78 78 80 82 82 84 90 92 96 95 94 94 94 94 97 96 95
38 44 44 44 44 45 45 43 43 46 63 66 64 66 66 70 72 75 75 80 74 78 80 75 79 82 82 84 86 88 89 91 94 97 97 97 96 96 95 94 95 96 94
38 45 48 46 47 46 51 55 62 37 38 42 62 67 72 73 78 81 76 77 82 81 81 85 87 88 90 94 95 96 95 96 98 99 98 98 98 96 93 94 94 94 91
47 48 48 48 45 53 56 56 54 66 62 56 42 70 72 77 84 80 80 82 80 85 89 90 93 94 96 97 98 97 97 98 98 99 98 97 98 98 95 94 93 94 93
48 52 50 44 47 51 49 48 57 61 63 65 66 68 74 85 84 85 84 89 91 91 92 93 94 99 99 99 99 99 100 98 97 98 98 98 98 97 95 95 96 92 93
54 68 52 41 44 45 46 60 65 65 68 70 72 75 83 87 90 84 89 93 94 94 97 99 100 100 100 100 100 100 100 100 98 99 98 99 98 98 96 96 96 95 93
44 38 44 42 43 46 59 70 68 72 75 78 81 84 85 85 86 90 94 95 96 100 100 100 100 100 100 100 100 100 100 100 99 98 99 98 98 97 98 98 98 98 98
36 37 40 42 47 56 75 65 74 81 84 88 88 87 88 87 90 94 95 97 100 100 100 100 100 100 98 98 98 100 100 100 100 98 100 99 98 99 100 100 99 98 97
34 38 41 46 54 73 64 73 86 89 91 92 90 89 89 90 94 97 100 99 100 99 95 99 98 97 97 98 97 96 97 97 98 98 99 100 100 99 99 99 99 98 96
36 40 50 56 61 72 73 88 86 92 94 93 94 92 94 96 99 99 98 98 99 94 94 98 98 97 97 96 96 97 97 98 100 98 99 99 99 99 100 100 100 96 99
41 51 56 60 65 73 80 84 92 93 93 98 98 99 99 100 100 98 98 100 96 97 94 94 96 97 96 97 98 99 99 100 100 100 99 99 98 98 98 99 94 89 89
50 56 59 64 71 81 87 91 92 93 94 95 100 96 96 98 99 98 99 100 98 97 94 94 96 97 97 96 100 99 100 100 99 92 92 98 98 98 99 98 94 91 91

GFSGL_925_rhum_042.txt.gz
RH
51 46 40 36 33 32 30 29 28 28 28 28 28 30 30 30 30 28 28 32 35 40 43 45 47 48 48 45 44 45 46 46 45 48 47 49 52 50 47 52 56 59 54
45 40 36 32 29 29 28 28 27 27 27 28 29 29 30 30 29 27 28 35 40 43 45 49 48 47 47 44 46 46 48 52 53 55 58 58 53 52 57 62 55 47 47
37 34 31 29 29 28 28 28 27 28 29 31 31 30 30 31 30 28 34 39 44 48 50 52 52 49 46 46 51 54 56 56 64 70 66 57 57 64 62 56 52 50 50
32 30 30 30 29 28 28 28 29 29 31 32 32 32 32 31 32 35 43 47 49 50 54 56 55 52 52 54 57 56 55 59 57 57 63 69 82 65 58 52 49 53 56
32 33 33 32 31 30 30 30 31 32 34 34 34 33 33 34 30 45 47 49 51 51 51 52 51 55 67 72 68 63 62 65 74 76 78 86 69 57 48 52 58 61 68
37 36 35 33 32 33 32 32 34 36 36 36 35 34 34 33 29 63 64 53 50 51 49 49 50 55 58 65 66 67 76 85 96 96 85 70 53 48 56 61 74 88 73
36 35 33 32 32 32 33 34 36 37 36 35 35 36 34 36 36 66 66 58 54 52 53 52 52 54 61 61 63 70 74 76 82 71 65 53 54 59 75 93 82 78 77
35 33 32 31 32 32 34 37 38 37 35 34 35 36 38 38 35 66 69 58 53 53 54 56 59 60 59 62 66 76 88 70 56 58 58 61 69 87 89 75 81 84 83
34 33 31 30 31 32 35 37 37 36 36 36 38 38 39 41 46 67 70 56 52 54 55 55 60 59 60 66 77 97 62 55 54 56 68 80 80 68 73 85 91 86 80
33 30 29 30 32 36 38 38 39 38 38 38 36 40 44 44 52 69 70 59 55 54 54 55 54 62 65 74 87 64 64 55 62 89 75 59 61 64 71 76 87 94 88
31 29 31 35 34 36 39 39 39 40 40 37 38 39 44 48 51 66 70 67 60 60 57 53 56 61 69 70 69 66 63 73 86 69 62 64 67 71 74 80 88 97 95
29 29 31 35 38 39 40 40 41 41 38 35 39 37 39 43 50 58 71 75 71 64 59 62 64 70 71 71 71 71 77 80 70 66 70 74 79 85 90 95 98 100 100
29 36 40 40 40 41 39 42 40 41 38 38 41 40 40 44 46 54 66 65 64 66 79 73 71 70 71 66 66 79 79 68 69 76 83 85 87 92 96 98 96 97 98
38 39 41 41 42 43 45 44 42 40 41 45 43 44 45 45 46 52 60 62 61 74 72 72 67 66 61 65 65 65 68 71 77 86 90 90 91 92 93 93 94 94 94
40 44 45 44 42 43 45 43 44 50 60 52 48 49 49 50 53 70 74 71 74 76 74 64 58 56 62 62 66 69 71 74 86 89 94 93 91 90 91 92 94 95 93
40 42 42 43 43 44 42 40 42 40 51 62 64 64 60 65 72 77 76 76 76 76 73 61 59 65 67 71 75 79 83 87 90 95 95 94 94 94 93 92 93 95 92
42 45 49 43 42 42 43 42 36 37 46 51 59 67 73 76 81 83 79 77 77 76 67 69 71 72 75 80 85 89 92 92 97 97 97 96 96 95 92 93 92 92 90
51 49 47 46 47 48 46 42 40 41 38 36 45 62 69 77 85 82 80 78 64 69 73 74 76 76 81 88 92 94 97 97 97 97 97 97 97 97 95 93 92 93 91
51 53 51 50 55 50 45 43 46 42 43 46 50 53 60 74 75 75 74 73 75 74 75 77 78 83 90 94 96 98 99 98 97 97 98 98 97 97 95 94 94 90 89
65 68 50 47 46 42 44 49 46 46 50 52 55 58 64 70 71 68 72 76 77 77 79 82 85 91 96 98 100 100 98 98 98 99 98 98 98 98 97 96 94 94 91
49 54 47 44 43 46 54 52 51 56 58 60 62 64 78 80 70 74 76 78 80 84 87 88 93 98 100 100 99 99 100 99 98 98 99 97 98 97 98 97 97 96 92
46 47 46 46 49 54 57 57 60 64 66 67 66 65 75 70 71 78 81 85 87 91 93 96 100 100 98 99 99 100 100 99 99 99 99 98 98 99 100 98 97 96 87
44 44 46 50 54 65 58 62 67 69 70 71 69 70 71 72 77 83 88 90 93 96 98 100 100 96 97 97 97 97 97 98 98 98 98 99 100 100 99 99 98 87 85
41 50 52 54 58 63 63 69 71 75 78 76 76 76 78 80 84 88 95 98 100 100 100 99 99 98 96 97 98 98 98 97 97 96 98 99 99 99 99 99 94 92 90
50 56 56 59 63 66 71 74 77 79 84 85 85 84 85 88 94 98 100 100 100 100 97 98 98 97 97 97 99 99 99 99 99 100 99 98 98 99 98 99 99 91 92
49 56 62 66 69 74 81 87 89 90 93 94 95 96 96 98 100 100 100 100 100 97 96 99 98 98 98 98 100 99 99 100 98 86 79 87 98 98 99 100 100 94 94

GFSGL_925_rhum_045.txt.gz
RH
57 50 45 42 36 34 32 31 31 31 30 30 29 28 28 28 27 26 26 28 31 34 38 40 41 43 44 43 42 41 43 44 48 46 49 50 52 54 53 51 53 57 56
48 46 41 35 33 33 33 31 30 29 27 27 26 26 27 27 26 25 25 28 33 36 39 42 44 42 45 43 42 42 45 47 52 54 54 57 58 56 54 58 62 60 52
44 39 34 34 35 35 34 33 28 27 27 27 27 27 27 29 28 26 29 32 35 40 42 45 47 48 47 44 46 49 51 54 53 55 57 56 57 60 68 73 57 52 49
38 33 32 31 30 29 28 28 28 28 29 29 29 30 30 29 30 31 38 41 44 44 44 46 47 50 48 49 57 60 59 59 62 62 65 70 71 81 66 57 51 52 56
34 33 32 30 30 30 29 29 29 30 31 32 31 31 32 33 28 38 47 47 45 44 45 45 44 44 54 58 62 66 67 68 76 79 80 84 82 64 58 52 56 62 66
35 34 33 32 31 32 31 31 33 34 34 34 33 32 33 31 30 36 65 57 50 45 45 44 46 47 47 53 60 60 61 64 83 98 92 81 73 58 55 61 74 82 88
40 36 35 34 33 32 32 34 35 35 35 34 34 34 32 35 33 43 66 61 54 49 47 48 49 49 54 56 57 57 64 69 72 72 75 63 60 59 68 81 90 87 78
41 39 34 33 32 32 34 37 37 36 34 33 34 35 35 34 35 42 67 61 49 48 47 49 52 52 55 56 60 72 80 86 72 58 57 59 62 74 96 98 82 80 83
36 35 32 32 31 33 35 35 35 34 34 33 36 35 36 34 40 55 69 59 49 49 48 49 51 55 53 58 65 83 87 66 62 55 61 70 75 68 64 68 87 89 84
40 30 30 30 32 36 37 37 37 37 37 37 34 35 36 40 41 56 67 60 54 53 54 55 52 52 58 63 69 76 71 67 65 75 80 72 61 62 66 69 81 96 92
29 30 33 34 34 38 38 37 37 38 38 35 34 33 34 38 45 52 62 68 64 65 66 57 57 60 65 67 68 71 70 68 78 83 68 64 68 73 78 84 90 98 96
35 35 34 36 37 38 38 38 38 38 36 32 31 35 33 35 40 46 57 66 67 65 61 62 70 70 69 67 68 66 70 75 74 67 70 75 79 85 88 88 93 95 95
31 35 38 38 37 37 38 39 37 37 34 32 35 37 37 38 39 42 49 58 63 63 65 70 69 68 66 62 60 66 66 66 68 75 83 86 87 90 93 97 94 97 92
36 38 38 38 37 41 40 40 37 35 35 39 36 38 40 41 42 47 64 68 67 70 77 76 70 62 54 57 59 62 65 69 74 85 91 93 93 93 93 93 98 96 97
37 39 42 41 38 39 41 38 37 41 47 52 48 50 48 50 54 71 75 76 75 76 72 75 63 53 60 61 64 70 73 77 87 94 97 96 95 94 93 93 95 97 95
39 38 39 40 40 39 37 33 37 33 30 32 62 66 66 67 72 79 79 76 75 75 76 65 58 66 67 70 75 80 86 89 94 98 97 97 96 96 95 95 94 95 94
37 41 42 37 37 36 34 35 33 32 37 44 53 54 64 72 77 81 77 76 76 68 65 67 72 73 75 78 84 90 94 94 97 99 98 98 98 97 93 94 94 95 92
44 43 41 42 42 40 38 36 35 35 34 33 38 49 55 64 73 74 73 73 62 67 70 73 75 76 79 86 93 97 98 98 98 99 98 98 98 98 96 94 94 95 94
46 47 45 45 47 42 38 37 39 37 37 40 44 48 53 61 70 68 67 69 72 74 74 76 78 82 88 95 98 98 99 98 98 98 98 99 99 98 96 95 95 90 90
58 39 41 40 38 36 36 41 40 40 44 47 50 53 57 71 77 66 70 73 74 76 79 83 86 89 96 99 99 99 99 99 98 99 98 98 98 98 97 97 96 96 94
50 50 38 37 37 41 46 45 44 49 52 54 57 58 65 76 66 66 73 76 80 85 88 90 93 98 100 99 98 100 100 100 100 98 98 97 97 97 98 99 99 97 97
42 41 40 41 43 45 52 53 52 57 58 59 60 60 65 64 64 72 79 85 88 90 95 98 99 100 98 97 98 100 100 100 99 98 98 97 97 98 98 100 99 98 97
40 39 40 41 46 52 50 52 57 59 63 65 65 64 65 67 70 77 85 91 94 96 96 97 97 97 97 97 97 98 97 97 97 97 97 98 99 99 98 99 99 99 93
41 43 44 44 48 58 54 59 63 65 67 69 71 71 74 76 79 84 93 96 96 96 97 97 97 97 96 97 97 99 98 98 97 98 99 98 99 99 100 100 96 92 94
48 47 46 49 54 57 60 64 68 72 79 80 82 81 86 88 91 94 98 99 99 99 97 98 98 96 96 97 99 98 98 99 100 99 87 88 99 99 99 96 93 92 89
49 52 54 56 60 64 74 84 89 88 90 91 92 94 95 96 96 98 99 97 97 97 96 98 97 97 98 97 99 98 100 99 99 85 78 86 99 100 100 99 95 98 97

GFSGL_925_rhum_048.txt.gz
RH
68 64 61 57 55 48 45 42 39 33 31 31 32 30 28 27 26 27 26 27 29 32 35 38 39 42 44 43 44 44 42 44 58 52 52 55 55 56 56 58 56 59 63
51 49 45 43 39 37 36 35 34 33 31 29 28 28 28 26 25 24 25 27 31 34 37 40 42 45 46 46 47 45 46 49 54 61 61 60 62 60 60 64 69 76 67
46 42 38 38 36 35 35 35 33 31 28 27 26 26 26 26 25 25 27 31 34 38 41 43 44 48 49 50 50 51 57 62 63 67 70 68 66 71 77 81 73 63 58
40 38 37 36 34 34 32 31 28 28 28 27 27 27 26 26 27 29 36 39 42 44 44 45 46 46 46 48 52 56 63 66 70 73 74 82 82 87 80 76 67 59 58
37 37 36 34 33 33 32 32 31 29 28 28 28 27 27 29 27 27 24 39 48 48 46 45 46 44 49 52 54 57 61 65 69 82 89 82 77 78 80 72 65 64 67
37 38 34 32 33 33 31 30 30 31 29 29 30 30 32 29 29 24 49 47 47 52 49 49 47 48 49 53 57 59 60 61 71 78 85 93 92 78 66 67 70 78 84
40 38 37 35 35 35 32 32 32 32 32 31 31 32 32 33 34 29 53 51 46 52 49 48 48 50 53 53 56 58 59 69 71 74 81 76 67 66 67 78 87 96 90
44 40 38 37 38 36 35 34 34 34 33 32 33 33 33 34 34 37 57 47 55 52 50 49 50 51 54 57 56 63 68 73 78 76 68 67 66 72 86 97 92 84 85
52 46 39 42 40 37 35 35 34 32 32 33 34 34 35 35 39 45 62 64 62 56 56 55 59 58 55 58 63 67 80 86 74 69 68 73 76 74 69 71 86 89 84
50 46 49 53 43 39 34 34 35 36 34 34 33 34 35 35 40 52 60 63 68 69 67 67 65 60 63 63 67 77 77 75 71 74 82 75 71 67 72 76 81 96 93
85 81 71 44 35 36 38 37 35 34 36 35 32 33 33 34 38 46 52 59 64 68 69 66 63 66 68 69 67 68 70 67 74 79 72 72 73 77 80 84 90 96 96
43 35 35 43 50 39 34 34 36 36 34 32 32 35 36 36 39 42 47 53 60 66 68 67 69 74 70 68 67 63 65 69 66 70 74 79 87 92 93 94 95 97 97
36 39 45 39 37 36 36 38 37 35 33 35 37 37 39 40 41 46 61 65 71 72 70 73 75 74 72 64 58 64 66 66 72 79 90 92 92 95 99 100 95 97 98
38 37 36 35 36 36 35 37 36 36 37 40 42 46 46 49 50 55 71 77 78 76 80 78 79 71 62 61 65 66 71 76 82 86 92 95 98 98 98 98 99 98 98
37 37 39 39 38 38 37 35 34 41 35 30 46 54 60 65 67 74 78 79 77 76 72 77 70 65 72 73 75 77 81 85 91 94 98 98 97 97 96 96 98 98 97
40 39 38 38 37 37 35 33 35 35 33 34 36 53 59 67 74 76 78 76 74 74 72 68 72 78 80 81 82 85 89 93 97 99 99 100 98 98 97 97 98 98 96
39 38 38 36 37 36 36 35 34 34 37 46 55 49 54 61 67 74 74 72 74 68 71 73 79 81 83 84 87 93 98 99 100 100 100 99 99 98 95 97 96 96 93
42 39 38 40 40 38 35 35 37 38 37 37 40 48 54 61 68 76 71 72 73 76 77 78 81 84 86 91 96 99 100 100 100 100 100 98 99 98 97 95 95 96 95
42 43 42 40 32 34 34 38 40 39 41 45 49 52 57 63 76 76 69 73 76 78 80 84 88 91 94 98 100 100 100 100 98 98 98 98 98 98 96 96 96 92 91
44 47 37 35 34 34 37 44 43 44 50 53 56 58 59 66 72 66 67 75 80 86 90 93 94 95 98 100 100 100 100 100 98 98 98 98 98 98 97 97 97 96 95
42 32 38 35 36 38 46 49 49 52 57 59 60 62 65 69 65 66 72 80 87 90 92 97 98 100 98 99 100 100 100 100 100 98 99 97 97 97 98 100 99 98 98
34 33 32 34 38 42 54 51 52 58 60 63 66 67 68 68 70 72 76 84 89 91 94 98 97 99 97 97 97 98 100 100 97 97 98 100 100 99 100 100 100 100 98
32 34 37 40 42 52 52 53 59 62 65 68 70 72 73 76 80 82 84 90 92 92 93 98 99 96 95 97 98 98 97 97 97 98 99 98 98 98 98 99 99 98 97
32 36 38 42 47 55 56 62 64 68 73 78 80 82 82 87 91 90 90 92 94 92 93 99 98 97 97 97 98 98 98 98 98 98 99 99 100 99 100 100 99 98 99
35 36 39 47 53 58 62 70 79 86 89 91 93 93 93 94 91 90 88 89 93 96 95 96 96 96 97 98 96 100 99 99 100 99 98 98 99 97 100 100 99 100 98
33 37 47 53 58 66 76 84 93 95 93 94 95 94 93 94 93 89 88 88 94 96 95 94 96 98 98 96 99 100 99 99 100 97 98 99 99 97 100 100 99 100 98

GFSGL_925_rhum_054.txt.gz
RH
72 78 86 94 95 92 92 86 78 69 64 56 45 44 40 36 32 29 33 29 26 29 32 35 35 38 40 43 44 46 48 50 68 57 56 57 62 63 66 68 65 66 67
83 85 92 95 96 93 89 82 69 62 53 51 44 39 37 41 37 30 28 34 50 45 35 36 39 42 44 46 48 49 50 50 55 68 65 65 69 67 72 74 72 76 81
86 86 90 91 88 82 71 61 58 51 45 42 40 42 38 30 31 34 28 30 34 39 48 45 45 46 48 48 48 49 50 53 57 65 73 71 71 72 78 78 81 84 77
80 80 78 76 72 65 53 48 45 43 42 38 34 33 30 27 26 29 40 54 57 55 46 46 46 47 48 48 54 56 57 60 62 66 74 76 76 82 79 79 81 76 76
61 59 54 53 50 45 44 42 42 43 45 52 45 32 29 46 64 61 58 52 44 34 34 41 46 49 58 59 56 59 59 60 63 68 82 83 92 83 82 82 83 78 77
60 56 52 51 53 54 52 54 47 42 40 51 65 78 70 68 62 42 36 32 27 37 41 45 48 49 52 64 66 62 61 64 67 76 84 94 89 88 85 87 82 88 86
60 62 61 55 57 56 58 51 57 67 72 74 66 49 48 53 46 51 45 37 35 40 45 52 57 58 58 60 62 67 67 70 69 74 85 89 91 84 82 88 97 99 89
82 79 72 72 73 66 64 72 70 63 54 56 67 67 56 55 59 59 43 44 45 46 51 59 65 68 68 71 69 68 68 73 77 80 81 78 77 87 96 91 83 87 89
89 90 88 78 84 83 86 79 78 68 60 60 45 36 40 45 39 47 51 53 52 53 60 67 72 75 73 71 69 74 85 81 72 70 75 80 83 78 74 80 89 93 88
96 99 94 94 95 95 79 59 83 97 98 66 48 37 34 35 50 50 52 52 54 60 70 71 73 76 74 75 76 74 78 72 66 78 80 69 62 65 80 82 87 97 95
100 97 98 98 89 95 99 100 94 61 41 36 35 36 37 42 44 54 56 66 70 75 77 76 72 82 81 77 72 73 72 69 78 75 66 70 73 79 83 86 93 100 98
99 100 100 100 100 100 90 67 50 39 35 36 38 41 41 41 47 60 70 73 78 81 80 80 81 83 78 75 74 74 74 78 70 75 86 90 94 93 88 94 92 97 98
99 100 99 95 70 48 38 37 35 35 35 38 39 40 37 37 41 58 81 80 80 80 82 82 86 80 75 73 77 79 81 72 81 91 98 97 97 99 97 100 98 94 96
65 56 52 45 39 38 37 36 36 31 30 34 38 40 45 52 63 75 75 75 74 78 77 78 76 72 73 76 76 74 78 84 92 94 98 100 100 100 100 100 100 100 100
61 47 43 43 39 37 36 35 32 36 33 34 39 47 54 60 68 72 75 75 74 77 79 69 67 72 79 82 83 83 86 92 97 99 100 100 100 100 100 98 100 100 99
42 42 39 38 38 40 40 43 53 55 57 53 58 60 56 64 70 76 79 76 82 77 78 79 84 86 91 93 94 95 96 98 100 100 100 100 100 100 100 99 99 99 98
39 40 39 36 35 31 29 30 32 34 37 50 62 63 65 69 72 79 78 78 77 81 81 87 91 94 95 96 99 100 100 97 99 100 100 100 100 99 97 98 98 98 95
37 36 36 36 30 29 32 37 38 39 44 47 48 67 68 72 77 78 75 72 73 79 84 91 95 96 99 100 100 100 100 100 100 100 99 99 99 99 99 97 97 97 96
36 39 34 29 31 33 38 41 41 46 52 55 56 54 64 80 80 74 76 75 81 84 88 92 94 96 100 100 100 100 100 100 100 100 100 99 99 98 97 98 98 95 94
38 31 30 30 32 37 41 42 46 52 57 61 63 63 73 78 70 72 77 79 82 87 92 95 95 97 99 100 99 99 100 100 100 100 99 99 100 100 99 98 98 98 96
37 35 29 30 33 42 46 47 52 58 62 66 68 70 78 81 76 81 82 79 83 87 92 96 97 96 96 96 96 97 100 100 99 99 98 100 100 100 100 100 100 99 98
29 28 29 30 37 47 46 50 58 62 68 71 73 74 84 79 82 84 82 78 80 86 92 98 96 95 97 97 97 97 99 99 97 97 97 100 100 99 99 100 99 98 98
26 28 30 33 44 46 49 59 62 71 79 79 80 81 86 86 84 81 82 78 81 86 91 96 96 94 95 97 97 98 99 97 98 99 100 99 99 99 100 98 99 98 97
26 27 30 36 50 48 60 64 71 78 86 82 83 86 86 83 82 82 80 78 82 88 92 94 96 98 98 97 95 98 98 98 99 99 99 99 99 99 100 100 100 99 99
25 27 31 36 44 54 62 69 76 82 84 86 86 84 82 83 83 81 78 78 85 90 92 94 97 98 98 98 98 99 98 98 100 100 100 100 100 99 100 100 100 100 100
26 30 34 40 51 60 70 77 80 80 83 84 81 81 88 91 82 79 76 78 87 93 94 94 96 99 99 96 99 100 97 99 99 99 89 95 100 100 100 100 100 100 96

GFSGL_925_rhum_057.txt.gz
RH
37 42 48 64 83 90 93 94 94 90 83 80 70 60 55 43 40 36 30 29 27 32 36 39 44 41 41 41 43 45 47 51 70 58 53 51 57 60 62 62 63 60 63
64 69 81 92 98 98 98 94 89 83 77 69 64 56 46 42 36 30 32 40 39 45 54 42 40 43 45 46 47 48 49 50 59 66 60 61 64 63 66 69 69 64 71
93 93 97 100 100 99 92 84 79 72 64 58 53 47 44 40 37 38 40 49 46 41 43 58 59 49 48 48 48 49 49 52 56 65 73 70 69 68 71 79 75 78 76
92 96 99 98 96 89 80 73 63 57 55 54 57 58 47 36 38 40 38 42 59 68 64 59 54 49 47 48 50 57 57 59 62 65 72 75 76 75 83 86 85 80 82
75 78 80 78 73 69 60 52 50 49 46 47 44 35 33 33 37 55 79 85 88 59 44 40 42 46 58 65 63 61 63 64 64 67 81 81 85 91 88 83 92 89 87
60 61 60 58 56 55 54 57 55 48 42 39 46 49 62 83 93 86 65 48 35 35 37 39 41 42 49 60 69 68 66 66 70 76 78 93 94 87 87 92 90 95 88
68 68 61 66 70 71 68 62 66 66 64 74 85 89 87 94 96 93 52 44 40 38 36 39 49 55 60 63 66 74 72 73 73 77 86 87 88 85 83 91 98 100 92
87 85 82 82 86 83 77 82 86 87 90 93 94 95 98 98 96 88 40 42 41 44 51 61 66 68 69 76 75 72 72 79 80 79 81 78 76 85 98 95 89 85 91
97 98 95 94 94 92 92 95 98 96 100 98 98 89 80 83 58 56 46 50 52 56 61 69 76 76 74 77 72 80 88 77 75 73 78 84 85 80 76 81 90 96 89
100 100 98 96 95 100 98 97 99 99 98 95 60 54 43 43 61 54 54 58 61 71 75 73 71 79 80 78 82 79 78 73 69 82 82 72 62 65 74 82 88 99 95
100 100 99 98 99 97 98 100 100 88 59 47 40 44 42 44 52 63 75 72 76 81 78 78 74 86 79 76 75 76 77 74 81 79 68 70 71 74 80 86 92 100 99
100 100 100 100 100 100 98 74 49 41 40 40 41 42 42 41 45 63 78 80 80 80 81 81 84 87 81 78 75 79 80 84 74 77 86 89 92 88 81 85 88 91 99
100 100 99 100 83 55 44 42 38 37 38 40 41 40 38 42 52 65 74 79 80 79 82 86 88 79 76 71 78 85 87 76 83 92 97 97 95 95 92 90 90 96 97
98 85 57 45 41 39 37 37 37 35 34 37 39 42 48 53 66 73 76 77 76 79 80 82 71 69 76 80 75 76 81 87 96 97 97 99 100 100 100 98 100 100 100
55 46 45 41 39 40 37 32 32 36 33 34 41 50 56 60 69 75 78 78 78 81 84 68 64 75 81 83 84 85 88 91 97 99 100 100 100 100 100 97 100 100 99
43 42 38 37 38 42 43 57 61 61 60 65 66 64 63 70 74 78 80 79 82 80 79 76 84 88 92 94 96 94 91 96 96 100 100 100 100 100 100 100 99 100 98
40 41 39 37 37 33 32 33 34 39 41 63 69 70 70 73 76 81 79 81 77 81 79 86 90 92 94 96 98 99 100 96 98 100 100 99 99 100 98 99 99 99 96
39 38 36 36 29 28 30 32 33 36 42 44 46 70 73 80 84 80 80 67 62 70 81 88 92 93 95 100 100 100 98 96 98 98 98 98 98 99 98 98 98 97 96
36 38 35 27 27 30 35 38 40 46 51 55 54 51 68 85 83 75 80 72 81 83 87 90 92 94 97 100 100 99 99 99 100 99 98 98 97 100 99 100 100 95 93
37 32 27 28 30 35 38 40 46 52 58 60 62 62 75 83 76 73 73 75 80 84 88 93 93 96 98 99 99 98 97 96 96 98 97 99 98 100 100 100 98 98 96
34 30 26 28 32 39 42 46 52 56 60 65 68 70 82 87 76 77 78 77 80 84 88 94 96 97 98 98 99 98 98 96 96 98 98 99 99 100 100 100 100 100 98
30 31 28 29 38 47 45 49 54 59 66 74 73 72 89 80 79 77 76 74 76 82 90 97 98 99 99 99 98 98 97 97 96 97 98 100 100 100 100 99 99 99 98
27 27 30 34 43 52 48 53 59 71 76 74 73 75 81 79 75 74 74 71 76 82 91 97 98 97 98 99 98 97 98 97 97 99 100 98 100 99 99 99 99 98 98
26 28 29 36 42 43 51 58 66 74 76 74 77 81 80 74 74 78 74 71 76 84 91 96 98 99 98 98 93 96 100 100 99 99 98 99 100 99 99 99 98 100 99
26 27 30 34 41 46 56 64 71 74 74 77 80 81 76 76 78 78 72 70 77 85 90 94 96 98 98 98 94 99 100 93 100 99 100 100 100 99 99 100 100 100 100
26 27 30 34 42 52 59 68 72 72 72 77 77 76 79 80 79 77 72 70 79 86 92 92 93 97 99 98 97 100 100 93 94 99 99 99 100 100 100 100 100 100 100

GFSGL_925_rhum_060.txt.gz
RH
65 59 58 62 62 68 82 91 98 99 100 99 99 95 87 74 60 49 36 33 30 32 35 36 37 46 59 61 56 47 45 50 66 57 52 46 50 54 57 60 64 66 62
79 82 82 89 97 100 100 100 100 99 98 96 89 78 65 56 47 38 35 33 34 40 52 63 60 66 68 64 58 58 49 51 58 71 59 58 61 60 64 68 69 68 64
82 88 100 99 99 98 100 98 95 91 85 78 72 61 53 46 40 36 37 48 59 63 61 67 77 80 72 58 52 51 50 50 56 65 70 68 69 68 71 76 76 75 72
88 95 98 99 97 88 84 80 73 70 69 63 54 48 43 41 40 45 52 57 66 78 82 87 88 73 65 55 51 56 61 61 62 67 70 73 76 74 82 86 88 81 81
79 83 81 81 84 78 71 76 75 72 65 56 50 48 53 60 64 68 76 88 90 84 84 70 56 54 69 72 71 72 71 70 68 69 80 82 84 85 91 86 92 91 92
63 65 66 70 72 75 75 76 72 68 68 68 60 53 58 76 88 90 89 85 73 49 46 46 43 46 47 50 71 71 71 72 74 78 78 90 95 89 88 90 92 98 88
68 72 75 77 79 80 78 82 89 90 73 68 68 74 93 98 95 94 92 80 44 39 38 44 50 58 58 56 59 74 76 77 78 80 89 88 89 84 79 88 99 100 94
89 88 81 81 85 84 84 86 81 79 80 87 94 97 100 100 98 51 45 45 46 50 55 61 63 61 59 78 78 76 76 83 82 81 83 80 78 85 94 93 90 87 92
100 100 100 94 99 98 98 100 99 98 100 100 100 99 93 99 97 80 54 54 56 58 64 69 72 71 72 81 78 92 86 78 74 72 81 86 87 82 79 85 91 98 90
100 100 100 100 99 100 100 100 100 99 99 98 91 94 96 89 86 65 61 58 65 70 72 70 71 83 82 78 78 78 80 74 70 84 83 73 63 66 71 83 90 100 96
100 99 100 100 98 100 99 99 99 99 74 50 55 51 50 56 69 76 78 72 77 80 78 81 81 90 80 78 76 77 77 78 88 85 71 71 71 73 77 83 91 100 100
100 100 100 100 100 99 100 85 48 42 43 47 46 44 43 43 60 74 79 79 79 81 83 84 86 83 80 77 77 83 83 88 78 78 85 87 90 86 81 84 86 90 95
99 100 100 100 94 66 49 44 41 41 41 45 42 39 41 45 55 68 75 81 83 84 82 87 86 77 80 69 86 90 90 79 86 95 98 95 91 89 87 86 84 87 88
99 91 61 44 42 40 39 39 38 36 36 36 35 42 51 60 71 76 79 80 80 80 80 83 70 69 72 81 76 78 81 87 98 96 96 94 92 94 95 94 97 94 100
51 45 45 41 40 37 33 32 33 37 35 39 47 55 58 62 73 78 78 79 80 81 87 65 68 79 81 82 82 84 85 88 93 94 98 100 98 98 96 93 96 100 100
45 42 41 41 42 45 56 66 67 65 70 67 69 68 67 72 75 80 82 81 82 80 74 78 83 85 89 92 93 91 87 90 93 98 98 99 100 99 99 98 100 100 100
39 40 40 41 41 40 42 38 38 54 65 67 74 72 75 78 81 84 82 84 76 80 76 83 87 90 92 94 96 97 96 94 96 96 98 99 98 98 99 100 100 100 98
38 37 35 34 28 29 32 34 34 36 40 41 44 72 79 83 86 84 84 65 61 72 82 88 91 93 95 96 96 98 96 94 96 98 97 97 96 99 99 99 99 99 97
37 36 35 29 31 33 34 33 36 43 48 51 52 53 70 87 86 76 78 68 77 78 83 86 90 94 95 97 98 98 98 98 100 98 97 96 94 99 99 99 99 98 95
38 35 29 31 31 32 33 37 44 49 53 57 59 62 76 86 84 69 69 72 75 78 83 88 90 94 97 98 98 99 98 96 96 98 97 96 94 99 100 99 99 98 97
36 34 27 27 30 34 37 40 47 52 58 63 65 66 84 90 76 73 74 72 75 78 84 90 93 95 96 97 98 99 98 92 96 97 97 95 96 100 100 100 100 100 99
34 31 26 27 32 38 39 45 50 57 64 69 67 66 88 74 71 72 73 71 73 79 85 93 95 96 97 97 98 97 96 94 98 97 96 98 98 98 100 99 99 99 97
30 27 26 30 35 51 53 49 54 62 65 69 70 72 72 71 71 73 74 70 71 77 84 90 96 96 97 98 98 97 98 96 99 98 99 100 98 98 99 100 100 99 98
25 26 27 31 37 39 43 51 56 62 68 69 71 72 72 72 74 77 74 69 70 75 82 89 94 97 99 99 98 91 94 99 100 100 100 98 99 99 100 100 100 99 99
25 27 28 31 38 45 44 54 59 65 68 68 69 70 71 74 77 76 72 66 68 74 81 89 93 96 98 98 98 98 98 100 100 100 99 100 100 100 100 100 98 99 99
26 26 28 30 33 38 45 52 60 64 65 66 69 69 70 73 76 75 71 66 65 74 85 91 91 95 97 94 97 97 97 98 100 98 100 99 100 100 100 99 99 100 97

GFSGL_925_rhum_063.txt.gz
RH
77 80 72 70 71 72 74 77 86 97 100 100 100 100 100 100 98 90 78 65 49 35 33 34 39 43 51 63 62 68 76 69 81 60 47 45 45 46 53 56 62 69 72
82 87 95 96 98 99 99 98 99 99 100 100 100 100 98 94 84 74 59 41 34 38 44 51 67 71 76 80 88 90 88 68 61 59 60 60 57 58 61 68 68 72 72
88 94 99 97 95 96 96 98 98 99 100 97 91 84 75 64 56 48 39 40 42 52 62 69 76 87 96 99 97 90 78 61 61 84 72 69 72 66 77 80 82 82 80
88 92 95 94 88 86 85 81 80 77 74 73 64 63 58 52 48 44 43 54 69 77 84 90 94 95 97 96 86 79 79 89 85 82 72 76 79 80 86 85 76 71 71
71 75 81 82 78 78 77 75 72 67 67 67 67 62 59 53 55 56 62 71 84 97 100 100 83 63 84 94 91 93 88 79 74 80 81 81 81 76 74 76 76 75 78
75 76 81 83 82 83 80 80 80 85 86 89 92 92 88 78 75 78 84 92 95 96 58 49 46 58 60 55 90 78 74 76 85 87 89 82 79 78 78 76 81 85 80
81 82 87 92 85 91 96 96 96 98 99 88 83 80 98 100 98 98 98 97 81 46 44 49 59 68 64 57 59 76 79 82 84 85 83 79 79 75 81 96 93 91 86
94 95 96 99 100 100 100 100 100 99 99 100 100 100 100 99 99 84 54 42 48 53 60 78 74 69 59 80 81 80 84 83 78 84 82 81 83 90 92 90 84 83 83
100 99 99 100 100 100 99 100 100 100 100 99 99 99 98 98 99 61 56 56 59 79 79 69 74 72 81 79 79 85 85 80 69 70 86 91 89 83 84 87 90 88 88
100 99 100 100 99 100 100 100 100 99 99 99 98 98 96 94 95 88 69 64 66 71 72 71 73 86 81 78 80 79 80 72 80 89 82 64 63 66 70 86 94 100 96
100 100 99 100 99 100 100 100 99 99 91 77 78 82 78 77 86 82 82 70 81 81 83 84 81 88 81 80 79 78 78 80 89 78 71 72 73 77 81 88 97 100 100
98 99 100 100 100 100 94 60 45 47 52 53 49 47 46 57 69 79 79 81 83 84 86 87 89 83 79 82 82 88 86 91 75 81 87 88 91 84 80 84 83 88 97
99 100 100 98 78 47 39 42 42 41 41 43 38 38 47 59 68 80 81 84 84 86 85 90 82 76 72 67 90 95 86 79 88 95 96 98 99 89 84 83 85 85 89
98 79 54 43 40 39 39 39 38 38 36 36 42 48 53 63 76 79 80 79 81 79 81 77 61 67 73 77 76 79 82 89 98 97 100 100 98 99 99 93 100 96 100
50 43 42 40 38 33 35 36 33 35 32 37 51 58 61 68 75 79 80 80 82 80 89 59 70 77 81 84 85 85 87 91 99 100 100 100 100 100 98 90 100 100 100
44 42 41 39 40 46 57 69 70 74 76 76 73 72 69 76 78 83 82 82 82 85 65 80 87 92 93 94 94 96 94 94 96 98 100 100 100 100 99 98 100 100 100
38 41 42 43 47 54 55 48 55 67 75 78 78 74 81 82 87 85 84 88 76 78 74 86 94 95 96 98 100 100 100 94 94 95 96 97 100 97 100 99 99 98 95
38 38 38 37 32 31 31 30 32 35 39 41 44 68 82 86 88 87 91 57 59 70 80 87 92 92 95 100 98 99 98 95 95 96 97 98 96 99 100 98 96 97 96
38 36 35 29 28 30 32 33 36 40 44 48 50 52 62 86 88 77 70 65 71 73 79 84 89 92 95 98 98 97 97 96 100 100 96 96 91 100 100 99 99 96 93
36 35 30 30 34 33 33 35 38 43 48 54 58 60 74 85 86 69 68 68 70 74 79 85 88 94 96 98 97 96 95 93 92 96 97 95 91 99 100 100 99 98 96
36 35 30 30 31 32 34 35 40 46 52 58 60 61 85 90 77 70 67 66 70 73 78 84 90 95 97 98 98 98 97 92 91 94 96 94 97 100 100 100 100 100 99
37 37 30 28 31 35 34 37 43 49 57 61 61 62 83 76 70 68 66 68 69 71 77 83 88 94 99 99 98 98 96 95 95 94 97 98 99 100 100 100 99 98 95
36 31 27 29 32 40 46 39 45 54 61 64 64 64 65 69 69 68 70 70 68 68 74 80 86 91 96 98 98 98 97 96 98 98 98 99 100 100 100 99 98 97 95
32 26 26 28 32 35 34 40 48 56 65 64 64 64 68 71 71 71 73 72 68 66 70 77 85 92 97 98 98 99 99 99 100 99 98 97 99 100 99 100 99 98 98
28 24 25 26 29 38 37 43 50 55 60 62 63 64 67 69 69 70 74 73 69 66 65 77 86 92 96 96 96 99 99 97 100 100 99 100 100 100 99 100 99 99 98
25 24 25 26 28 30 33 39 45 54 59 61 63 65 67 68 68 71 74 72 68 63 64 78 87 93 94 94 97 98 97 98 99 98 100 99 100 100 100 99 99 100 95

GFSGL_925_rhum_066.txt.gz
RH
78 84 93 92 90 92 91 91 94 96 100 99 98 97 100 100 100 100 100 99 91 81 77 78 72 60 47 50 58 61 66 74 93 97 97 94 83 56 57 59 61 61 57
81 86 92 90 89 91 92 94 97 98 98 98 100 100 100 100 100 98 88 82 83 71 62 49 48 54 63 76 85 92 94 96 96 98 83 85 76 77 86 79 63 61 61
82 84 86 84 82 84 84 86 88 93 92 94 94 92 88 89 87 76 68 63 58 48 46 48 64 73 82 92 96 98 99 98 97 92 81 82 81 69 66 65 65 65 62
74 78 83 80 79 78 77 72 72 70 66 65 65 63 66 68 67 69 67 61 55 60 68 75 88 94 97 99 99 94 92 91 81 79 66 60 64 66 70 66 57 56 56
70 76 79 82 81 81 79 78 79 77 77 75 76 78 73 70 68 66 63 65 75 89 98 99 100 100 99 88 94 88 82 81 78 77 70 64 64 58 58 59 59 57 63
71 75 81 86 93 96 96 98 93 92 86 80 86 96 98 98 92 78 82 93 97 99 97 96 90 93 97 87 73 93 82 76 79 78 77 68 61 57 57 58 66 74 77
78 78 85 91 96 99 100 100 98 97 98 99 100 99 100 99 99 99 99 100 97 82 65 71 87 86 63 60 58 80 79 83 83 78 70 63 60 59 73 90 82 86 83
82 86 93 96 100 99 100 99 99 99 100 100 100 99 99 99 99 99 95 68 74 80 91 82 79 76 70 80 76 77 84 82 77 73 69 65 64 72 78 80 75 72 72
94 97 98 100 99 100 100 100 100 99 100 99 98 98 97 98 95 68 75 75 84 92 85 75 74 70 73 84 76 94 76 69 64 72 83 89 91 87 85 82 83 78 80
100 99 99 100 99 100 100 100 100 99 99 98 98 98 99 98 98 83 77 67 60 63 67 70 72 84 83 81 76 70 68 57 71 87 71 64 66 69 82 85 82 91 95
100 100 100 100 99 99 98 96 95 97 94 90 84 79 80 82 82 87 78 69 68 68 69 69 74 86 82 80 80 69 66 78 79 69 63 65 69 72 78 82 88 98 99
100 100 100 100 100 97 89 83 71 65 59 53 52 53 63 72 77 80 82 84 83 73 70 73 76 82 81 84 84 88 90 91 69 68 73 76 82 90 96 99 96 100 100
99 99 99 93 62 44 41 43 43 42 40 36 36 39 49 62 68 83 83 83 85 73 75 84 78 79 82 76 88 88 82 75 74 80 82 87 94 100 97 100 100 100 100
84 69 50 42 41 43 43 40 38 35 31 31 35 42 50 58 66 72 76 72 80 70 83 68 60 66 70 76 76 78 78 78 83 84 86 91 98 100 100 100 100 100 100
49 44 45 42 36 34 36 32 33 40 36 38 49 51 50 56 68 77 79 72 74 72 81 58 62 68 71 71 74 78 79 80 87 91 97 98 98 98 99 99 99 95 95
41 43 42 44 47 50 54 61 77 76 77 67 70 66 65 76 81 86 84 86 81 87 59 60 65 72 75 77 78 81 87 91 93 100 100 100 100 100 100 98 96 93 93
41 46 48 47 50 50 47 48 60 75 78 79 76 76 83 84 89 87 87 88 74 74 64 72 78 81 85 88 90 95 98 99 100 100 100 100 100 100 100 98 94 93 90
42 42 45 44 43 39 33 32 31 31 31 39 46 69 82 87 88 88 88 56 58 68 78 82 85 87 90 95 100 100 100 100 100 100 100 100 100 100 100 97 94 92 93
44 43 39 38 36 36 36 37 38 40 42 44 50 50 56 76 84 76 61 68 69 71 78 84 87 93 99 100 100 100 100 100 100 100 100 100 100 100 100 99 97 90 89
42 34 35 36 43 38 38 39 40 43 44 47 51 55 61 78 81 71 72 75 74 75 79 86 91 98 100 100 100 100 100 100 100 100 100 100 100 100 100 100 98 96 94
44 42 39 40 37 37 38 38 41 45 48 52 56 61 81 83 78 70 72 73 76 80 85 89 94 100 100 100 100 100 100 100 100 100 100 100 100 100 100 100 100 98 96
42 49 44 36 38 40 39 41 46 49 53 57 59 65 63 76 69 73 74 77 82 86 86 90 95 99 99 100 100 100 100 100 100 100 100 100 100 100 100 100 100 96 97
38 38 33 34 38 41 49 43 49 52 57 62 65 65 66 67 70 76 81 83 85 84 79 80 81 79 85 94 99 100 100 97 98 99 98 99 100 100 100 100 99 98 96
36 36 32 35 39 48 46 44 48 48 62 67 66 66 67 71 74 76 75 80 81 76 71 68 68 74 83 92 96 97 98 98 99 97 99 100 100 97 99 99 98 97 98
36 34 30 31 33 46 40 47 46 54 59 64 68 69 70 74 76 74 74 80 75 70 63 61 63 74 85 93 92 94 98 98 98 100 98 98 100 100 100 99 98 98 97
36 31 26 28 30 34 37 35 42 58 66 75 73 74 73 72 68 68 72 73 71 68 61 58 63 79 89 91 88 95 98 97 99 98 99 99 100 100 100 100 99 99 97

GFSGL_925_rhum_069.txt.gz
RH
67 74 79 78 78 79 79 79 80 82 85 88 92 98 92 97 100 100 100 100 100 100 100 97 95 92 91 87 83 82 80 82 92 95 87 93 97 96 89 77 71 68 60
71 72 75 74 74 74 76 80 83 87 88 93 95 98 100 100 99 99 100 99 99 98 92 89 88 80 79 79 83 88 93 93 92 98 98 95 89 74 88 72 57 64 58
70 73 73 71 70 69 68 66 70 72 71 73 76 76 75 84 84 83 89 87 88 89 90 85 75 69 80 90 92 97 97 97 96 97 93 80 82 74 66 63 66 64 63
70 72 74 74 73 74 74 72 72 71 69 72 71 72 72 73 72 75 78 80 83 83 80 81 84 87 94 100 100 99 95 88 88 89 76 63 62 63 64 67 63 57 55
68 73 78 82 83 85 87 89 87 85 84 83 83 81 79 81 90 87 83 81 79 86 92 98 100 100 99 93 83 84 91 85 73 73 76 69 68 64 58 57 58 56 63
69 73 80 83 89 95 98 97 98 100 99 97 98 98 96 98 100 87 81 90 97 100 99 99 99 94 91 87 67 77 92 85 77 80 81 76 66 58 56 57 70 81 81
71 76 81 86 92 98 98 100 100 100 99 98 99 98 99 100 100 100 99 99 100 98 96 95 91 75 48 58 61 78 80 81 80 80 76 68 62 59 62 68 79 82 84
76 82 86 92 99 99 100 100 100 100 99 99 99 96 98 100 100 98 98 97 96 90 90 89 86 75 72 83 81 77 82 81 79 76 70 66 63 63 72 77 79 78 76
87 94 97 100 99 99 100 100 100 100 100 100 98 99 100 99 93 90 82 86 87 78 67 85 77 67 75 84 79 84 80 69 63 62 71 81 86 90 89 87 87 87 81
100 100 100 99 100 99 99 99 100 100 100 100 98 94 89 94 90 80 67 57 57 58 63 67 70 85 83 83 80 71 67 61 59 78 78 70 64 64 70 79 85 87 91
99 99 100 100 100 100 98 95 95 93 84 80 72 77 73 75 85 81 76 71 67 67 65 65 69 84 82 80 80 77 67 74 80 75 63 62 66 69 73 77 83 89 94
100 100 100 100 100 98 94 88 73 66 54 48 49 52 60 68 76 83 83 82 82 67 63 68 72 83 79 82 80 79 88 90 76 67 69 74 80 89 94 99 100 100 100
100 100 100 89 62 44 42 42 39 35 32 31 34 38 47 56 63 69 81 74 80 73 72 78 75 74 78 79 83 89 85 75 71 74 83 85 90 98 100 100 99 100 99
88 77 51 37 37 39 38 35 33 30 28 30 34 40 46 53 60 64 67 64 67 66 76 72 60 60 68 70 73 73 74 75 80 85 85 89 94 98 98 99 99 98 96
53 40 39 39 35 31 30 31 31 43 37 36 46 46 46 51 67 80 83 78 80 74 83 54 53 59 66 67 68 72 74 75 81 88 94 97 98 97 99 98 96 93 97
38 40 38 37 39 45 54 65 68 76 55 50 50 57 59 61 80 87 85 87 85 81 65 51 56 66 71 74 76 80 87 90 91 98 100 100 100 100 100 98 91 89 94
37 41 44 42 44 44 42 50 65 74 66 54 49 63 65 78 89 86 87 90 72 70 57 60 72 77 82 85 89 91 95 97 100 100 99 100 100 100 99 98 98 93 90
42 44 43 42 42 40 34 32 30 32 30 36 43 51 66 82 86 87 86 70 53 57 64 76 81 84 87 90 96 99 100 100 100 100 100 97 96 98 98 99 99 98 94
44 43 42 40 37 33 32 32 32 34 34 35 42 47 50 58 74 79 69 66 63 66 69 76 82 86 92 98 100 100 100 100 100 97 97 96 97 98 100 100 99 96 95
43 38 38 37 36 35 34 34 35 35 36 38 42 45 50 64 76 74 65 68 70 70 71 76 83 90 97 100 100 100 100 100 100 100 99 98 100 98 99 99 98 97 98
42 39 41 36 38 34 33 34 34 36 38 42 45 50 51 79 76 71 65 67 69 72 78 82 85 92 100 100 99 100 100 100 100 100 100 100 100 100 100 100 99 99 97
42 42 45 38 35 34 34 34 36 40 42 45 49 54 66 71 68 65 68 69 74 78 78 79 81 85 92 99 100 100 100 100 100 99 98 100 99 99 100 100 99 99 98
44 45 46 37 34 37 40 38 38 41 45 49 53 56 57 58 60 64 71 74 74 72 75 80 77 73 71 78 90 99 100 98 99 99 98 98 100 100 100 100 100 99 98
43 43 40 34 34 37 41 42 39 43 46 52 57 58 58 59 63 66 68 68 69 72 77 78 75 68 66 70 80 89 97 97 99 98 98 97 100 99 99 100 100 99 99
43 39 36 34 34 44 43 41 37 40 46 50 54 58 58 61 65 69 73 71 72 72 69 69 69 63 61 69 82 91 94 96 99 99 97 98 99 100 100 100 100 99 98
43 38 35 34 34 37 39 35 37 40 45 58 63 63 64 69 69 69 68 70 73 73 74 70 65 62 65 79 88 92 95 97 100 100 99 100 100 100 100 100 100 100 98

GFSGL_925_rhum_072.txt.gz
RH
71 76 77 77 77 79 81 82 83 85 84 88 91 92 97 100 96 95 92 99 99 100 100 100 100 98 95 95 94 94 94 95 97 100 98 96 92 91 91 95 83 70 62
72 74 72 72 70 70 71 76 80 80 81 88 89 89 89 92 98 100 100 100 100 100 100 100 99 99 96 93 91 90 90 86 88 97 99 98 94 89 64 53 54 61 61
72 73 73 72 72 70 69 68 68 69 72 74 77 76 76 79 81 84 91 94 97 98 97 95 93 91 90 91 94 96 96 95 93 92 95 79 64 65 64 64 65 62 63
73 77 78 78 79 80 78 78 78 78 78 78 77 77 77 78 80 82 86 91 94 94 94 90 88 85 90 97 99 99 95 83 71 71 75 71 67 65 64 64 66 59 56
74 79 84 88 90 91 92 93 90 88 87 87 81 78 83 84 86 88 84 84 83 88 94 98 97 99 100 100 96 89 81 81 77 73 72 73 73 66 62 61 58 60 60
74 81 85 90 96 98 99 98 98 99 99 100 99 100 99 99 99 87 84 89 97 99 99 99 99 99 100 90 86 96 76 81 81 82 85 80 74 65 60 62 67 68 86
76 81 88 94 99 100 98 98 100 100 100 100 98 98 99 100 99 96 93 93 94 95 96 96 94 87 61 57 88 78 76 85 88 82 81 77 72 64 63 64 72 79 82
83 86 94 99 99 99 98 99 99 99 100 100 100 100 99 100 99 95 92 91 91 92 92 93 89 77 68 80 82 79 83 80 79 79 77 72 68 64 70 80 86 84 76
93 99 99 99 99 99 100 100 100 100 100 100 99 92 95 96 96 61 54 58 61 61 65 66 74 70 81 83 82 84 76 70 65 59 64 77 86 90 90 88 84 84 93
99 100 99 99 99 99 99 100 99 100 99 98 91 91 80 82 78 72 63 65 60 62 64 68 77 80 85 85 81 76 70 63 64 80 79 68 62 62 68 71 73 80 85
100 98 98 99 99 99 100 97 94 77 74 78 81 76 80 79 82 84 81 68 67 68 65 66 70 83 81 81 82 71 70 79 84 78 66 64 68 72 75 78 85 88 90
99 100 100 99 99 95 92 80 63 57 56 54 54 60 67 69 80 82 81 80 80 68 66 71 74 80 77 80 76 86 92 92 72 70 71 79 85 86 93 95 99 100 100
100 100 98 97 82 62 51 47 43 38 35 35 37 44 50 57 62 65 68 66 68 69 67 75 78 67 74 73 79 86 82 73 74 75 84 86 88 90 94 100 100 99 98
97 93 68 46 39 38 37 35 34 30 29 32 36 43 48 54 62 70 70 68 71 68 72 71 62 65 72 77 74 72 74 75 80 82 88 91 96 99 98 99 97 91 90
83 52 37 40 39 36 36 31 30 34 35 36 43 44 48 57 69 80 83 80 82 75 80 52 52 58 67 70 70 72 75 80 86 89 93 96 98 98 98 100 100 96 100
44 39 39 34 32 36 41 54 60 48 35 37 42 49 56 59 75 82 85 88 89 79 62 54 56 69 75 79 82 87 89 95 96 98 99 100 97 96 96 97 98 99 100
40 40 38 36 44 50 56 56 61 64 44 28 29 38 45 58 78 73 86 87 81 67 60 62 72 78 83 86 91 93 96 99 100 100 98 96 95 91 93 97 96 100 100
38 38 39 41 44 43 41 50 51 52 46 39 38 35 47 48 82 86 86 72 53 57 60 68 77 82 86 90 95 97 99 100 100 100 98 92 91 95 99 100 100 99 98
38 40 39 42 42 39 32 29 28 29 29 32 36 41 46 48 74 85 86 63 64 65 66 71 75 81 85 93 100 100 100 99 100 99 100 98 97 100 98 100 100 95 93
40 39 39 39 38 34 29 28 30 31 32 34 36 41 45 52 64 77 75 66 66 68 69 71 73 78 88 93 100 100 100 98 96 96 96 97 97 97 99 100 100 100 99
40 40 39 37 34 30 29 30 31 32 33 35 38 42 47 56 53 74 74 64 65 67 68 70 69 74 83 92 100 100 100 100 100 99 98 97 97 100 99 99 100 100 100
39 37 42 36 35 33 30 30 31 31 33 37 38 43 56 64 56 58 62 63 65 68 71 71 68 69 71 79 95 100 100 100 100 97 97 97 97 98 98 98 100 100 100
41 39 40 38 36 33 33 32 31 32 33 35 40 44 48 50 50 53 57 58 62 64 64 69 74 72 68 72 73 82 98 93 95 98 98 98 98 99 98 100 100 100 100
44 41 40 40 36 34 33 33 32 32 33 36 40 43 47 48 50 52 54 57 57 57 61 68 72 72 66 66 65 66 75 87 97 98 99 97 100 100 100 100 100 99 98
52 45 43 40 35 37 32 35 36 35 32 34 36 40 42 46 48 51 54 57 60 61 61 65 66 66 66 66 62 66 81 94 99 100 99 98 98 98 98 100 100 99 99
86 55 43 38 34 33 34 33 33 32 31 30 33 38 46 51 52 54 56 58 60 63 66 67 71 77 76 69 67 80 91 95 100 100 99 97 97 98 99 100 99 100 99

GFSGL_925_rhum_075.txt.gz
RH
77 76 75 77 80 79 78 81 80 80 81 81 81 78 82 94 97 97 95 97 99 98 99 100 100 100 99 96 93 91 94 98 98 100 99 98 97 96 91 84 84 92 88
74 73 72 71 70 70 71 74 75 74 77 84 85 85 86 88 94 98 98 98 98 99 99 99 99 100 99 99 97 94 94 96 94 98 99 96 93 88 92 94 68 55 58
74 73 73 73 71 71 72 71 72 74 75 77 77 77 77 80 82 87 92 96 98 99 98 98 99 96 95 94 94 94 92 92 92 92 97 96 92 72 68 62 59 62 64
75 77 79 81 82 80 80 79 79 80 78 78 78 80 81 82 83 86 90 93 93 94 94 91 89 88 90 93 95 97 98 94 94 95 76 73 68 66 66 65 66 66 60
79 84 90 91 92 91 91 90 88 87 88 86 85 86 86 86 86 86 86 88 87 89 96 99 99 99 99 97 97 97 94 95 93 83 73 74 73 68 67 65 62 63 59
82 89 93 97 99 100 99 99 99 99 100 99 99 100 99 100 97 81 80 87 92 95 98 98 99 99 99 100 98 98 92 94 90 83 88 83 74 72 63 63 64 68 76
85 90 94 97 99 99 100 98 98 98 99 98 98 99 99 99 100 93 92 94 92 93 96 95 92 83 73 66 88 92 82 73 75 79 80 81 77 69 67 66 76 82 85
89 94 98 99 100 100 100 99 100 99 98 98 100 100 99 100 100 95 89 87 86 83 76 66 64 67 70 85 84 81 82 80 78 79 80 75 72 68 70 81 85 87 80
96 98 99 99 100 100 99 100 99 98 99 98 100 97 90 88 67 54 49 50 54 58 61 73 75 78 83 89 83 83 79 72 67 64 66 79 87 90 90 86 81 78 84
100 99 99 100 99 99 99 99 99 99 96 95 76 68 72 76 77 78 63 62 63 66 70 69 80 82 85 83 81 76 72 66 64 76 81 67 63 63 67 70 72 77 83
100 99 99 99 100 99 99 99 87 91 87 87 82 80 73 79 84 84 73 61 65 67 66 68 70 84 80 80 81 66 70 83 88 81 69 67 72 79 84 88 93 98 94
99 100 99 99 100 100 96 77 74 70 67 66 67 69 70 78 66 78 77 79 66 62 66 71 72 77 76 79 78 86 91 93 74 72 74 85 88 89 88 96 100 100 99
99 100 100 99 95 93 79 61 54 49 44 42 43 49 55 61 64 76 77 76 75 73 70 83 81 65 63 60 81 85 85 72 74 76 80 85 91 92 98 99 99 99 93
100 99 99 94 76 60 49 42 38 36 33 34 41 45 50 58 66 71 71 68 69 70 71 60 62 62 68 75 75 71 73 76 82 83 87 93 98 99 98 98 96 95 98
97 90 78 57 48 41 37 35 32 32 30 31 38 44 47 57 68 79 80 79 82 74 79 49 51 58 69 73 74 76 80 86 93 94 96 99 100 100 96 96 93 94 99
90 68 41 41 39 40 36 44 42 44 41 42 39 42 48 54 74 68 66 86 89 79 70 56 58 67 76 80 84 88 89 95 97 97 96 96 94 93 91 90 92 96 98
77 46 39 39 34 38 46 50 62 62 40 29 31 35 37 45 60 58 72 84 82 74 52 60 67 77 84 86 88 91 95 97 98 96 96 95 94 91 100 96 98 100 100
59 42 39 35 35 45 50 51 50 48 44 37 37 34 38 43 63 76 82 78 48 56 65 63 68 74 82 86 89 98 100 99 98 98 95 96 96 97 99 99 97 100 100
48 40 38 37 42 45 46 50 47 44 36 28 32 39 39 46 50 80 86 80 65 58 58 64 70 73 77 83 89 99 100 100 100 98 97 98 96 98 99 99 100 99 97
47 38 38 39 42 44 38 33 29 28 28 28 31 32 36 44 50 49 75 76 71 62 61 63 66 71 72 80 90 98 100 100 100 100 98 98 96 97 98 100 100 100 100
50 39 39 40 41 41 35 28 27 28 28 28 28 31 36 46 48 50 53 70 66 58 59 62 64 67 67 73 83 94 100 100 100 100 100 98 98 99 97 100 100 100 99
56 41 44 41 37 36 33 28 27 28 28 28 28 31 44 57 55 51 46 50 52 55 58 65 67 66 67 74 78 85 98 100 100 100 99 98 98 98 99 99 100 100 100
58 43 43 44 37 34 35 30 29 29 29 28 28 30 36 40 42 43 43 46 51 52 55 60 62 60 62 72 79 82 86 83 85 86 94 99 99 99 98 99 100 100 99
62 46 44 42 40 36 36 34 30 29 29 29 28 29 34 36 41 41 42 47 49 50 53 58 60 64 65 65 67 68 71 70 73 80 95 97 97 98 100 100 99 98 99
65 52 47 44 41 40 36 34 32 30 30 30 29 29 30 33 37 38 41 46 50 51 49 53 59 63 67 74 75 69 65 68 79 93 98 96 97 97 98 99 99 98 98
80 91 83 63 43 40 37 34 32 30 30 30 27 25 26 29 35 38 41 48 50 49 51 55 60 67 74 78 80 77 71 79 100 100 100 99 98 98 99 99 100 100 99

GFSGL_925_rhum_078.txt.gz
RH
76 76 77 78 79 78 76 80 80 83 85 84 84 81 77 76 85 96 95 95 99 99 99 100 100 99 99 99 97 95 96 99 99 100 100 100 100 99 98 100 99 94 90
75 74 72 72 72 71 71 72 73 74 79 82 82 78 80 85 92 99 98 98 94 97 98 99 100 100 99 97 95 96 98 98 97 98 99 100 99 99 98 98 100 87 63
75 74 74 73 71 71 71 73 74 75 76 77 76 76 78 81 84 90 96 98 99 99 98 98 97 94 93 93 93 92 91 90 90 92 99 100 99 98 95 69 60 63 64
76 78 79 81 80 80 80 81 80 80 79 79 80 81 82 84 86 89 91 94 95 96 94 92 89 88 90 93 94 94 92 90 91 93 93 92 87 77 70 67 67 68 61
81 86 90 91 91 90 90 90 89 86 86 85 84 85 85 85 87 86 89 90 88 91 95 97 98 98 98 94 92 92 92 94 94 82 80 80 79 72 69 69 66 63 58
85 92 97 98 97 98 99 100 100 99 98 100 97 95 100 100 85 80 79 83 89 96 99 100 99 98 99 99 98 96 80 78 88 91 90 84 76 75 65 66 65 69 76
88 94 96 99 99 99 99 99 99 100 99 98 100 100 99 98 100 90 88 90 91 94 94 94 86 63 59 57 82 85 83 88 85 78 78 79 79 73 69 67 72 82 82
90 94 99 99 100 99 99 99 99 99 100 100 100 99 99 100 98 92 90 88 86 77 64 56 56 63 80 87 80 79 80 81 77 80 78 76 74 71 67 73 88 90 84
94 98 99 99 99 99 100 100 99 98 99 99 97 98 78 83 67 47 43 44 48 55 63 68 69 82 88 91 76 83 82 76 68 72 74 83 86 88 87 88 91 85 79
100 99 99 99 99 100 99 99 99 99 96 87 78 73 75 78 87 68 61 58 60 62 65 73 82 80 82 82 76 67 73 69 63 61 76 76 66 65 65 72 72 76 81
100 100 100 99 99 99 98 98 99 94 82 75 72 73 77 78 84 84 62 58 62 65 66 66 66 85 78 79 82 67 68 87 91 85 74 68 73 81 85 86 91 97 93
100 100 100 99 99 99 98 96 92 88 83 80 75 73 73 69 69 77 79 76 60 58 62 64 65 73 73 78 80 80 90 93 77 73 76 84 87 87 88 91 94 100 100
100 100 100 100 98 100 86 77 74 69 62 60 58 62 59 60 68 79 78 77 77 75 68 82 84 68 64 56 83 85 87 73 74 80 83 88 92 94 99 100 98 98 98
100 99 99 98 100 97 78 60 52 48 43 39 41 44 48 55 60 67 69 66 66 66 67 64 52 66 69 76 78 71 72 76 85 88 92 94 99 100 100 96 95 93 97
100 100 99 99 89 67 55 47 40 36 32 30 33 38 44 50 57 69 74 70 74 70 78 46 48 56 65 72 75 77 81 86 93 96 95 94 94 94 93 95 93 92 97
100 99 98 84 72 51 43 39 38 41 38 33 36 35 39 43 64 78 64 73 86 83 72 56 56 64 72 76 82 85 88 93 95 99 94 93 92 92 92 94 98 100 100
95 89 76 51 44 45 42 39 54 64 58 43 33 32 34 41 72 56 56 75 84 79 71 52 59 65 78 86 87 89 92 98 98 99 94 94 94 94 100 96 93 96 99
87 82 50 41 41 42 42 43 49 49 45 36 29 37 44 40 57 74 71 80 56 46 61 66 61 65 73 80 86 90 96 99 98 96 94 96 97 98 98 98 95 100 99
86 79 52 39 38 35 37 44 47 49 49 41 32 34 48 63 58 67 82 82 73 68 56 56 57 64 71 73 78 88 92 96 99 95 98 99 97 100 98 97 98 100 100
79 67 53 40 38 38 46 50 55 56 47 34 27 26 31 38 46 42 45 61 73 71 65 58 56 60 65 69 71 79 91 98 100 100 100 100 100 99 100 99 99 100 100
80 60 49 42 38 40 44 45 42 36 29 28 26 25 26 32 33 37 39 43 46 57 58 55 56 59 63 68 70 74 80 90 99 100 100 100 100 100 98 99 99 99 99
82 71 53 44 40 41 43 42 38 31 27 27 26 26 28 55 51 48 45 42 40 43 48 54 56 57 60 63 66 74 79 81 86 100 100 100 98 95 98 99 100 100 100
85 82 62 50 45 40 42 40 37 30 28 27 27 27 27 32 37 37 36 36 39 42 46 54 58 55 55 58 63 70 77 74 71 79 90 93 95 94 97 99 98 99 100
86 82 69 58 50 46 40 38 36 32 28 28 27 28 25 25 27 29 32 34 38 41 45 50 55 56 56 56 59 64 69 71 73 72 74 80 86 96 97 100 100 100 100
85 79 69 61 54 51 43 40 36 35 32 29 27 27 26 24 25 26 27 33 39 44 43 48 52 54 55 57 65 72 77 80 81 75 82 96 99 96 97 99 97 99 100
92 83 83 94 80 64 50 43 39 35 33 31 28 27 27 25 23 23 24 33 39 42 43 46 49 53 58 64 70 77 80 83 100 100 100 98 98 100 98 98 100 100 99

GFSGL_925_rhum_084.txt.gz
RH
74 76 76 76 77 77 76 77 81 87 91 92 92 93 94 93 93 92 92 93 86 89 99 99 99 98 99 97 98 98 96 99 100 100 100 100 100 100 100 99 99 99 97
75 75 74 74 74 74 73 74 76 80 83 84 83 81 80 79 81 84 90 93 94 96 99 98 99 99 98 96 93 90 94 96 97 98 99 100 100 100 100 100 98 98 96
76 75 74 73 72 71 72 73 75 76 78 79 78 77 79 84 88 90 92 97 98 98 98 96 96 97 95 92 90 88 88 88 88 92 100 100 99 100 99 96 96 94 67
75 76 76 77 77 78 79 79 80 80 80 80 81 82 84 87 90 95 100 99 99 98 96 94 94 91 87 86 86 87 87 88 90 90 96 95 91 94 84 72 66 65 62
77 80 82 84 84 85 85 86 86 86 86 86 87 89 92 93 96 98 99 98 95 97 98 99 100 99 97 94 90 90 90 89 85 82 83 83 80 76 74 71 67 63 58
81 86 90 91 93 94 96 100 96 93 93 92 92 95 100 100 98 98 98 100 100 97 98 99 98 97 99 100 99 96 85 67 75 82 88 82 80 74 70 68 66 63 60
84 90 95 97 98 99 100 100 99 99 99 99 99 99 99 99 99 88 90 96 99 99 96 82 68 61 60 62 80 73 89 93 81 71 70 71 73 75 72 68 66 76 80
87 92 97 98 99 99 100 100 100 100 99 99 100 100 99 100 100 90 88 87 82 64 52 50 59 82 88 69 67 72 76 74 79 73 66 62 69 72 71 72 82 92 88
89 92 95 98 99 99 100 100 100 100 100 100 100 99 98 98 78 55 43 40 46 54 58 66 75 78 85 84 52 61 74 73 74 86 87 93 88 92 87 81 83 91 80
89 92 97 100 100 100 99 99 100 100 99 93 78 71 69 73 60 49 48 49 52 61 71 80 85 81 78 82 61 52 52 64 65 65 64 70 73 71 70 75 77 80 82
88 94 99 100 100 99 99 99 100 99 95 74 74 79 79 76 84 70 49 47 48 54 57 56 57 83 78 78 79 53 82 87 87 79 70 71 75 82 86 88 90 92 92
91 98 100 100 100 100 99 100 100 99 78 72 73 74 71 73 80 86 78 53 49 48 50 54 62 68 71 76 74 66 88 88 72 70 73 75 80 86 88 91 94 98 99
97 100 100 100 100 100 100 100 99 82 69 70 68 66 66 61 66 81 77 80 76 62 57 64 78 79 72 51 63 87 88 84 72 75 82 85 90 94 100 100 99 99 98
100 100 100 100 100 100 100 98 90 81 78 72 65 59 56 54 54 62 62 64 62 52 50 51 51 64 65 60 71 77 71 72 77 87 91 93 95 96 96 96 94 97 95
100 100 100 100 100 100 99 92 82 73 59 48 42 39 40 40 37 45 55 53 47 52 70 63 42 44 49 57 65 71 74 79 88 92 91 92 96 93 93 92 94 93 97
100 100 100 100 100 99 99 90 77 61 50 44 38 32 31 35 36 45 67 75 77 86 80 71 58 47 52 58 63 71 78 83 90 92 91 92 92 92 91 93 96 96 99
100 100 100 100 99 99 100 84 65 54 61 58 50 37 35 31 40 76 82 60 71 81 82 77 66 52 46 51 61 80 82 83 88 90 92 93 90 92 94 94 95 95 93
100 99 99 100 95 99 98 68 52 51 62 53 57 58 48 34 38 75 85 78 75 72 58 45 45 52 56 55 56 68 74 83 91 89 91 91 91 94 92 96 96 99 98
100 100 99 100 99 99 83 62 50 47 50 46 44 42 63 71 73 70 80 80 71 68 65 62 55 49 44 46 49 58 68 72 76 92 93 92 92 94 96 97 97 99 100
100 99 97 94 96 97 74 56 51 50 49 49 47 35 34 52 62 63 65 67 68 64 62 60 51 57 56 48 49 54 60 66 67 70 86 94 91 90 96 100 100 99 97
100 100 98 93 88 80 60 50 48 50 50 47 42 38 42 35 26 27 31 40 43 40 35 35 36 38 45 46 49 53 56 59 63 65 67 73 92 96 97 100 100 100 96
100 99 99 97 90 82 71 54 47 46 47 45 43 44 48 50 30 25 23 23 23 26 30 34 35 34 35 40 43 49 54 56 57 59 64 71 81 95 100 100 100 96 97
100 100 98 96 91 86 78 68 57 48 44 40 40 43 43 36 32 29 27 24 26 28 32 33 32 33 33 36 40 45 50 49 50 59 66 69 74 81 88 98 100 100 100
100 100 98 92 89 89 80 68 63 56 48 44 40 40 40 36 28 24 23 23 23 22 26 27 28 30 32 36 39 43 47 49 54 60 69 76 83 89 97 100 100 100 100
100 100 98 93 89 89 84 91 85 72 59 50 43 39 37 36 32 26 23 23 23 21 22 22 26 27 31 35 39 43 47 52 58 65 73 81 92 100 98 97 96 98 99
100 100 99 98 99 98 99 100 99 95 95 93 70 43 36 33 31 29 26 24 24 22 22 22 21 24 30 35 38 43 48 52 61 74 100 100 98 97 96 95 94 96 98

GFSGL_925_rhum_087.txt.gz
RH
70 71 72 73 74 75 75 76 79 85 91 96 94 93 99 100 98 99 98 95 94 91 94 94 99 99 99 99 99 97 95 96 98 100 100 99 99 99 99 99 99 99 97
72 72 72 72 72 72 72 73 75 80 83 85 86 87 87 88 91 96 96 98 96 98 99 98 98 97 96 96 93 90 91 95 96 100 100 100 99 99 99 99 99 98 94
74 73 73 72 71 71 72 73 75 77 79 80 81 80 81 83 83 86 88 92 92 94 98 98 98 96 94 90 86 86 86 86 88 97 99 99 96 97 97 96 94 91 76
74 76 74 74 74 74 76 77 79 79 81 82 82 82 83 88 92 94 98 98 98 98 98 97 94 91 88 85 84 84 85 86 88 93 99 99 94 94 85 76 72 61 59
74 74 78 80 81 82 83 83 84 85 84 85 85 87 89 91 95 96 100 99 98 94 92 92 91 90 87 87 86 86 85 85 87 93 90 88 85 78 74 68 68 59 57
75 79 82 86 89 90 91 92 91 91 92 92 93 95 100 100 100 100 99 99 99 99 99 99 99 99 99 100 97 88 71 61 67 80 84 77 78 75 68 71 70 66 50
80 84 88 92 95 95 96 100 98 95 97 100 100 99 100 100 100 100 100 100 98 99 98 93 84 74 71 71 82 83 85 83 59 56 68 71 74 70 68 66 66 71 74
86 89 93 96 97 99 100 100 100 100 100 99 100 100 99 100 100 97 98 97 94 80 62 56 60 70 61 55 58 64 69 72 70 64 58 60 67 69 71 74 81 87 88
87 91 95 98 99 99 100 100 100 100 100 100 100 100 99 100 100 87 78 56 47 51 58 70 73 80 94 49 47 61 71 74 90 95 89 96 85 97 86 87 90 93 74
84 87 91 95 97 99 99 99 99 100 100 100 100 97 80 73 56 42 41 44 52 60 67 78 69 73 79 79 47 45 58 65 65 64 63 66 69 82 70 75 77 89 90
80 86 92 96 99 99 100 100 100 100 97 88 72 75 76 72 82 58 47 44 45 53 57 60 72 85 76 80 59 50 66 75 80 70 68 71 76 80 82 84 86 88 98
84 90 95 99 100 100 100 100 100 99 91 76 78 82 77 77 82 80 46 40 43 45 48 50 53 70 70 78 72 77 96 80 66 68 71 75 79 83 86 88 91 95 98
89 94 99 100 100 100 100 100 100 99 86 75 79 73 70 72 75 84 83 83 54 50 49 57 74 83 75 50 77 85 94 80 69 71 78 82 86 90 98 98 98 97 96
95 100 100 100 100 100 100 100 99 99 78 70 72 66 64 59 63 73 74 82 82 57 68 61 52 53 55 54 73 82 71 67 69 76 84 88 92 98 99 96 100 100 100
97 100 100 99 100 100 99 98 99 87 58 60 58 52 51 50 41 44 52 55 50 48 53 58 42 41 48 52 58 64 69 73 84 83 86 92 96 98 98 99 99 98 100
100 100 100 100 100 100 100 100 96 77 71 64 49 40 35 33 34 36 44 52 50 80 80 63 54 44 44 50 56 60 68 78 78 85 88 91 98 99 99 100 95 94 100
100 100 100 100 100 100 100 100 98 86 74 55 48 48 34 30 35 42 71 90 82 83 82 74 67 53 44 45 49 55 62 70 78 83 84 88 96 100 98 97 99 96 100
100 100 100 100 100 100 99 100 89 71 70 62 62 72 66 40 34 56 87 86 78 78 73 65 53 44 48 49 48 48 51 66 76 83 87 87 88 100 100 98 100 98 100
100 100 100 100 100 100 99 100 95 71 57 52 55 62 74 76 63 70 80 85 72 60 54 50 48 44 43 40 40 43 46 53 61 71 77 85 88 99 98 97 98 100 100
100 100 100 100 100 100 100 100 98 72 56 52 51 42 41 68 74 76 73 77 79 66 55 54 50 51 50 50 48 44 47 50 55 62 62 66 78 96 99 100 94 100 100
99 100 100 100 100 100 99 99 94 73 60 53 45 39 37 36 39 47 55 59 57 51 43 42 38 36 38 39 47 49 47 48 50 53 58 61 65 74 92 100 98 100 100
97 100 100 99 99 98 93 93 90 71 55 52 46 41 40 55 44 42 36 30 27 26 25 27 30 29 31 34 35 41 44 45 47 49 52 55 61 69 78 99 100 100 100
98 100 100 100 100 100 99 97 82 72 62 52 46 42 41 47 54 48 43 29 23 22 21 23 26 29 26 33 31 35 39 38 40 47 52 56 62 68 76 93 100 100 100
99 100 100 100 100 100 99 99 97 91 79 67 60 52 44 38 39 41 39 33 26 24 25 26 25 26 23 30 28 33 35 37 42 46 52 59 66 74 89 99 100 100 100
100 100 100 100 100 100 100 100 100 99 98 95 83 73 57 48 38 37 36 35 29 25 23 23 21 20 21 22 26 31 35 40 43 46 52 61 70 79 90 98 97 98 99
100 100 100 100 100 100 100 100 99 99 98 98 98 99 98 96 66 40 34 34 32 27 24 23 20 21 26 21 24 31 36 42 44 48 60 74 88 96 98 96 96 100 100

GFSGL_925_rhum_090.txt.gz
RH
70 71 71 72 71 70 71 72 75 80 87 96 92 90 90 90 99 100 100 100 100 99 98 98 100 99 98 97 96 96 99 95 89 99 100 97 99 99 100 99 98 98 95
73 71 71 72 72 71 72 71 72 76 79 83 89 92 89 89 97 99 99 99 99 97 99 99 99 98 98 95 99 99 99 97 98 98 99 99 99 97 97 95 94 93 92
72 71 71 72 72 72 74 74 72 74 76 78 81 83 85 87 89 93 95 95 95 95 97 97 96 96 95 93 94 91 89 90 94 95 99 99 97 96 95 93 85 81 79
74 73 73 74 75 75 77 78 79 80 82 81 82 83 84 86 88 88 91 93 95 96 96 96 95 95 94 93 90 91 91 87 90 90 92 94 88 90 85 74 68 65 61
75 76 78 81 83 84 84 86 85 87 86 87 89 90 90 92 97 99 98 96 97 97 96 93 92 88 84 86 92 89 90 84 82 90 88 82 82 75 67 64 56 54 53
75 78 84 86 88 90 92 92 93 94 94 94 97 99 100 100 100 100 100 100 100 99 100 100 100 100 100 94 78 75 80 79 82 79 82 67 62 59 61 57 58 54 43
76 81 86 88 90 92 94 96 96 97 99 100 100 100 100 99 98 99 100 99 97 97 98 99 98 96 94 94 95 90 80 46 60 59 53 50 55 58 67 77 68 67 55
78 82 86 88 91 96 99 99 99 99 99 100 99 99 99 99 98 100 99 99 99 96 89 83 74 68 59 68 70 76 78 73 67 61 60 63 66 69 72 71 76 74 75
80 86 89 90 94 98 99 99 100 100 100 100 100 99 99 98 100 100 99 92 79 66 66 78 80 80 56 48 77 74 67 84 89 68 70 63 66 80 80 83 86 79 66
81 84 88 96 98 100 99 98 99 100 100 100 100 100 99 100 98 84 67 60 61 66 72 74 66 70 91 48 54 55 58 61 73 72 72 65 76 85 69 86 87 94 84
88 91 95 99 98 98 100 100 100 100 100 100 100 94 81 73 74 44 42 60 59 63 69 74 77 81 77 78 50 48 48 64 70 69 65 72 78 84 86 91 91 96 99
87 94 99 99 99 99 99 100 100 100 100 94 82 79 81 79 78 80 50 46 53 56 54 57 60 70 74 78 70 63 93 75 67 65 70 74 80 88 97 97 98 100 100
93 97 100 99 100 100 100 100 100 100 94 84 75 72 73 79 79 83 75 54 47 52 55 59 61 77 73 69 60 81 95 76 66 70 73 85 95 100 85 97 98 96 94
88 94 100 100 100 100 100 100 100 100 95 81 70 66 66 71 74 82 81 83 80 56 50 78 69 62 73 58 70 89 84 72 69 76 80 90 99 100 100 100 100 100 100
88 96 100 100 100 100 100 99 99 99 97 80 64 61 63 62 58 66 73 79 77 74 70 67 60 58 64 64 67 71 71 73 81 80 90 91 90 92 95 99 100 100 100
90 99 100 100 100 100 100 100 100 100 99 84 63 59 49 43 37 36 44 53 56 56 69 59 48 43 46 47 54 61 67 75 79 89 93 93 92 95 96 98 100 100 100
89 97 100 100 100 100 100 100 100 100 93 72 63 56 42 34 33 34 51 71 80 79 79 63 60 58 53 55 58 64 73 77 87 97 97 97 97 96 98 95 97 99 99
98 99 100 100 100 100 100 100 100 92 88 86 86 80 76 61 35 45 74 88 85 84 78 77 78 72 64 63 66 71 77 83 90 94 97 97 98 96 94 91 94 97 97
98 99 100 100 100 100 100 100 99 88 72 65 73 61 81 80 80 64 77 86 82 77 78 83 76 66 56 54 59 66 66 81 86 92 95 97 97 96 92 90 87 85 86
98 98 100 100 100 100 100 100 100 97 80 66 62 57 59 83 81 80 74 82 85 82 74 66 57 47 47 45 46 46 47 53 59 78 76 92 96 95 93 91 88 86 84
97 97 100 100 100 99 99 100 100 99 88 72 61 51 44 50 75 76 77 73 77 82 73 61 54 50 47 46 46 49 48 49 46 47 67 78 83 94 90 90 88 87 88
98 98 99 100 99 100 99 99 99 97 90 78 65 56 52 59 46 56 59 55 48 46 43 44 41 40 38 36 32 35 38 41 44 41 48 51 60 82 88 89 89 88 88
100 100 100 100 100 100 100 99 99 98 94 81 72 61 53 58 62 54 48 41 38 38 35 32 31 30 26 26 29 30 32 31 34 36 44 49 58 68 81 92 92 91 89
100 100 100 100 100 100 100 100 99 99 99 98 95 76 61 56 50 49 51 46 40 40 41 32 24 23 21 22 26 27 27 28 33 36 43 49 56 63 85 97 97 97 99
100 100 100 100 100 100 100 100 100 100 99 99 99 99 98 97 80 60 53 44 39 38 39 35 26 23 24 23 24 24 25 27 32 37 43 49 55 61 69 92 98 100 100
99 100 100 100 100 100 100 100 100 100 99 99 99 99 99 99 99 99 90 78 55 42 37 36 31 25 22 22 22 22 44 26 33 38 44 51 58 65 80 99 100 100 100

GFSGL_925_rhum_093.txt.gz
RH
64 64 65 66 67 68 69 73 75 77 80 85 87 89 92 95 99 98 98 98 99 100 100 99 99 99 94 94 94 92 91 93 95 100 100 98 98 97 97 98 98 96 93
64 62 65 67 66 65 67 68 69 72 74 76 81 86 88 91 97 98 100 100 100 100 99 97 95 96 95 94 93 93 96 98 94 97 99 98 99 95 98 98 92 89 87
64 64 65 66 65 64 66 69 70 71 73 76 79 82 84 89 89 91 94 94 93 94 95 96 96 96 96 94 98 98 95 92 98 92 98 97 95 93 92 89 81 78 72
64 64 65 67 67 68 71 72 73 74 75 78 80 83 85 85 87 87 88 89 91 93 94 94 94 96 97 96 95 94 90 88 89 92 93 93 89 88 86 75 69 64 60
65 67 69 73 75 76 77 78 78 79 80 83 84 87 91 93 93 92 91 91 92 93 94 94 95 94 96 93 90 86 87 84 83 87 92 84 84 82 71 65 57 53 55
65 67 74 76 78 81 82 83 85 86 86 86 89 91 96 98 99 99 98 99 99 100 99 99 95 86 84 82 86 82 81 85 87 84 85 83 67 62 60 55 57 56 50
65 68 74 75 79 82 85 87 89 91 93 96 98 99 99 99 99 99 99 99 99 99 99 99 99 98 96 94 90 67 62 71 72 68 62 51 56 55 61 62 66 64 58
66 69 74 76 79 85 89 94 100 100 100 99 96 97 99 99 99 99 99 100 100 100 100 97 88 87 82 70 63 61 58 57 48 55 56 59 62 58 64 56 70 70 69
68 72 75 78 81 86 94 99 100 98 98 99 99 100 99 99 98 99 99 99 96 90 82 74 69 68 51 69 67 67 76 75 54 61 67 58 60 68 76 81 85 80 72
72 72 77 84 84 91 98 100 99 100 100 99 99 100 99 99 99 100 92 79 71 70 73 74 72 76 45 49 63 61 59 67 72 63 50 48 79 56 66 85 87 93 86
77 80 82 90 93 97 99 97 98 99 100 100 100 99 98 97 98 92 68 56 56 61 66 69 65 80 87 49 50 48 51 58 70 64 61 68 75 82 83 80 77 93 95
84 87 91 96 99 100 98 100 100 100 100 99 100 91 76 71 69 74 55 56 58 61 62 66 74 80 75 81 45 63 50 72 67 61 64 72 76 82 90 86 83 85 100
87 90 94 98 99 100 100 100 100 100 100 98 88 78 71 73 74 78 81 64 61 53 52 55 63 71 71 74 82 75 94 73 63 66 69 76 87 95 94 81 99 98 97
81 83 89 96 100 100 100 100 100 100 99 96 86 74 67 70 73 81 80 75 71 51 60 62 64 69 80 65 66 82 87 79 67 73 75 87 92 99 97 97 98 97 98
76 78 89 97 100 100 99 99 99 99 99 98 94 76 63 64 65 70 79 82 79 72 64 74 63 58 62 62 62 76 80 70 67 68 78 91 94 95 92 96 97 96 96
80 80 92 99 100 100 100 99 100 100 100 99 99 80 60 60 56 62 78 78 79 79 70 61 55 50 51 58 56 60 65 67 71 84 87 92 91 92 90 93 97 94 94
84 83 94 99 100 100 100 100 100 100 98 99 99 82 67 51 50 43 64 78 80 77 74 62 56 50 44 46 46 53 62 64 69 79 88 92 92 91 92 94 93 95 94
88 90 93 97 99 100 100 100 99 100 100 99 98 98 87 66 48 41 55 79 87 83 79 78 68 63 62 55 52 57 63 72 75 77 86 91 93 92 94 92 89 90 92
92 94 94 97 100 100 100 100 100 99 100 92 85 83 88 87 83 72 68 78 86 85 86 84 79 75 71 61 55 57 59 66 71 74 77 88 91 93 94 93 92 88 88
94 97 99 98 100 100 100 100 100 99 99 94 71 70 69 82 84 84 80 77 85 85 81 77 77 70 62 54 46 47 51 55 68 79 75 72 84 91 94 94 92 91 89
99 98 100 100 100 100 100 99 99 99 99 99 98 83 60 56 76 79 80 73 75 81 82 77 66 60 49 45 45 46 46 45 47 51 58 59 65 84 84 90 92 92 91
99 100 100 100 100 100 100 100 99 99 99 100 99 98 75 64 59 65 70 69 61 59 63 65 64 58 50 44 42 44 46 44 45 47 49 51 60 65 67 77 83 86 89
100 100 100 100 100 100 100 100 100 100 99 99 99 99 96 76 66 57 53 54 54 52 51 54 56 55 50 43 38 35 36 32 29 32 39 44 48 52 61 73 75 84 91
100 100 100 100 100 100 100 100 100 100 100 100 100 100 98 82 72 66 59 51 48 45 44 45 44 41 42 39 30 27 25 26 28 29 34 40 45 48 59 64 72 82 92
100 100 100 100 100 100 100 100 100 100 100 100 99 99 99 99 98 94 87 74 65 60 53 47 42 39 42 40 28 23 20 21 26 28 31 36 44 47 52 60 74 84 94
99 99 99 99 100 100 100 100 100 100 100 100 99 99 99 99 98 99 99 99 98 98 94 82 63 46 37 39 33 26 24 25 28 28 54 36 42 48 55 61 72 85 94

GFSGL_925_rhum_096.txt.gz
RH
58 54 52 58 60 60 60 64 67 68 71 77 80 86 88 90 91 99 97 96 100 100 100 100 100 100 100 99 96 93 94 96 98 100 100 100 97 97 94 97 96 94 93
62 54 48 50 55 59 61 61 63 65 64 69 72 80 84 87 93 98 96 99 100 100 100 100 100 99 97 94 91 91 92 89 92 95 99 98 97 97 94 94 91 89 87
61 58 58 63 64 64 63 64 65 65 68 69 72 76 79 81 88 92 94 98 99 99 99 98 96 96 95 93 93 94 97 97 94 91 97 97 93 90 91 89 86 82 75
62 62 64 64 64 64 65 65 66 67 68 70 72 74 77 81 84 87 89 91 92 94 95 94 94 94 94 91 91 92 91 91 95 92 91 92 89 90 88 85 72 66 61
64 64 66 67 66 66 66 68 69 70 72 74 77 79 81 84 86 88 88 89 90 93 95 94 94 94 94 93 91 90 88 87 91 90 92 91 86 85 78 68 62 55 56
66 68 68 67 68 70 71 72 73 76 78 81 85 88 91 93 90 100 97 94 93 92 94 94 93 94 95 91 89 87 85 83 87 89 90 83 83 75 66 58 55 54 57
66 68 69 70 73 76 79 79 82 84 86 87 87 89 95 98 98 99 98 98 96 96 98 97 98 94 91 86 84 80 80 83 85 87 83 73 63 60 57 57 55 55 59
66 68 71 74 78 81 83 87 90 93 98 100 93 94 95 98 98 99 98 100 100 99 100 99 98 96 92 78 68 49 48 55 59 55 54 52 54 53 52 49 54 61 63
67 69 72 74 78 81 85 90 100 99 97 93 95 99 99 99 100 97 100 100 100 100 99 90 88 82 77 67 53 63 59 54 58 56 55 53 54 55 55 56 72 79 76
68 69 72 75 79 82 87 98 100 99 96 96 98 99 100 98 99 98 100 96 91 84 76 75 76 63 50 78 56 66 69 69 55 50 45 50 42 49 70 78 83 81 84
70 71 75 78 82 85 90 100 97 100 100 99 99 99 100 98 98 99 82 74 69 68 69 65 72 91 59 50 56 59 56 58 60 57 56 59 73 62 64 65 68 74 87
72 76 80 83 87 92 100 99 100 100 100 100 100 99 96 90 83 97 79 60 58 56 60 66 65 81 82 66 46 52 65 59 56 59 61 67 72 79 78 72 71 76 81
78 81 85 88 94 98 100 100 100 100 100 99 99 98 84 73 70 79 79 71 58 57 56 57 63 78 76 78 66 74 78 69 62 61 64 71 76 80 86 83 76 85 88
83 86 89 93 95 98 98 100 100 100 100 99 99 94 86 75 71 73 80 77 68 60 55 60 65 75 68 56 76 73 89 64 62 63 68 73 79 86 89 84 94 97 98
79 80 86 91 96 98 99 100 100 99 99 99 98 98 94 75 73 66 72 69 64 53 50 62 78 75 81 74 59 66 79 86 75 68 76 79 86 86 88 92 95 95 96
76 77 83 89 96 99 99 99 100 100 100 100 100 100 96 84 65 69 80 86 84 81 75 71 70 59 54 57 58 59 79 78 66 62 68 77 87 91 94 90 93 94 91
80 80 84 91 98 99 100 100 100 99 100 99 99 99 100 75 67 66 74 83 81 82 78 69 56 51 49 48 56 55 54 56 62 66 78 81 89 92 93 89 92 91 90
84 85 88 90 93 98 99 99 100 100 100 99 98 98 99 97 69 59 60 78 86 82 79 75 63 54 53 47 42 46 47 52 59 63 72 79 87 90 91 91 90 89 90
88 89 90 94 96 97 99 100 100 100 100 100 98 100 99 99 93 82 68 70 81 85 83 81 72 62 61 56 54 49 45 50 56 66 70 73 77 90 94 90 91 93 94
94 95 95 96 98 100 100 100 100 100 100 100 100 97 99 100 96 92 87 74 76 78 76 70 67 63 69 68 60 54 52 54 58 65 65 63 64 74 85 84 86 89 85
98 98 100 100 100 100 100 100 100 100 100 100 98 98 99 98 88 90 87 84 79 76 74 68 65 64 64 63 62 59 54 46 47 51 57 60 62 72 72 79 81 83 86
100 100 100 100 100 100 100 100 100 100 100 100 99 99 99 99 93 75 77 76 71 66 59 56 55 54 55 54 51 51 46 43 40 40 44 47 51 58 60 68 78 84 88
100 100 100 100 100 100 100 100 100 100 100 99 100 100 99 99 98 85 78 76 67 61 56 56 56 56 53 52 49 47 44 37 30 30 36 42 49 52 57 63 68 75 80
99 100 100 100 100 100 100 100 100 100 100 100 100 100 100 99 99 98 98 96 97 80 59 54 53 51 50 49 46 47 45 37 33 31 33 34 37 44 52 57 61 64 69
99 99 100 100 100 100 100 100 100 100 100 99 99 100 99 100 100 99 98 97 94 97 97 80 59 52 49 50 49 45 41 40 35 30 35 37 37 38 44 50 56 65 70
93 96 98 100 99 99 100 100 100 100 100 100 99 99 99 99 99 99 99 99 99 98 98 98 98 98 96 79 60 52 47 48 42 30 29 35 38 42 54 56 59 66 73

GFSGL_925_rhum_099.txt.gz
RH
58 60 59 59 58 58 57 56 58 59 60 59 61 66 70 73 74 75 80 86 94 94 98 94 100 98 100 100 99 98 94 93 97 100 100 100 100 95 91 93 94 91 91
60 60 58 55 56 53 52 52 49 58 64 67 68 75 78 79 82 87 92 91 94 98 98 100 100 97 100 100 99 96 91 93 96 99 99 100 98 98 94 92 96 91 90
63 62 62 64 66 60 56 63 67 67 66 66 68 71 74 77 84 89 94 92 98 99 99 100 100 100 100 97 94 92 92 93 91 88 98 99 97 99 97 93 88 85 81
63 62 63 65 64 62 62 60 61 63 63 66 66 67 71 75 78 85 90 93 91 95 98 98 98 96 96 94 93 93 91 97 98 92 92 94 90 93 91 88 81 73 62
64 65 66 66 64 62 60 63 65 68 69 70 70 72 74 76 78 83 88 91 91 92 93 94 94 94 95 94 92 88 90 92 97 95 90 92 90 92 91 87 75 65 61
64 65 66 65 63 62 63 66 69 70 72 74 77 80 81 80 83 89 95 93 92 93 94 96 95 95 93 94 94 91 88 88 94 91 91 92 89 85 83 70 63 57 58
66 67 66 64 64 68 71 73 75 77 79 80 81 84 85 87 94 98 98 98 95 94 92 93 94 95 94 92 91 89 87 87 88 86 91 89 83 78 70 61 56 54 54
68 67 67 68 70 73 75 77 79 82 85 85 86 87 89 92 91 97 94 96 99 99 96 98 98 93 91 89 87 82 81 82 83 85 86 80 71 63 59 54 46 50 60
68 69 70 70 74 78 80 82 87 91 97 93 90 91 93 95 99 98 93 100 100 100 100 100 99 96 89 75 63 52 52 60 58 54 56 53 52 52 46 43 51 58 78
68 66 68 71 74 77 79 84 98 100 99 99 94 96 98 99 99 99 96 100 100 99 97 87 91 87 80 79 54 50 52 61 58 60 73 64 64 82 61 58 58 77 80
67 68 70 74 77 79 82 89 100 100 100 99 98 98 99 99 98 100 98 90 92 86 80 77 79 72 80 82 60 56 52 54 55 46 49 54 55 63 65 67 68 67 78
71 72 74 76 80 83 88 100 100 100 100 100 100 100 99 99 98 99 99 72 65 69 70 66 72 94 82 69 57 51 56 56 59 56 57 66 70 69 67 64 62 62 66
73 75 78 81 84 87 94 99 99 100 100 99 100 99 99 92 85 93 98 80 65 60 56 56 60 82 83 84 49 67 75 64 61 60 61 65 67 71 78 78 73 70 73
78 80 82 85 89 93 96 99 99 100 100 100 100 99 99 92 83 84 90 80 74 69 53 57 71 83 78 69 81 75 78 68 62 58 62 69 74 79 84 87 79 87 98
83 84 87 88 93 94 97 99 98 99 100 100 99 99 99 96 87 97 87 78 76 66 53 58 67 79 78 70 67 76 81 79 66 61 64 70 75 82 87 82 88 93 96
79 80 83 85 89 92 96 99 99 98 99 100 100 99 99 100 97 98 86 74 69 62 69 59 71 75 76 77 72 59 67 81 84 74 67 74 78 83 83 89 91 91 93
79 78 81 85 87 92 98 100 100 97 100 99 99 99 99 99 99 94 79 85 94 89 88 84 73 70 64 53 52 58 51 62 72 73 64 66 73 81 89 94 93 89 91
86 86 86 87 89 94 96 98 100 100 100 98 99 99 98 99 99 95 74 78 86 85 94 90 75 63 52 46 45 48 52 52 59 64 62 64 74 79 91 94 95 88 88
92 91 92 94 95 96 98 100 100 100 100 99 99 99 99 99 99 98 80 74 85 90 89 87 83 73 62 49 45 45 40 42 45 49 54 60 66 78 86 87 88 89 90
98 97 98 99 98 100 100 100 100 100 100 100 100 99 99 100 100 100 99 83 83 89 87 80 72 66 62 57 52 53 53 51 48 49 55 56 60 68 79 78 87 91 87
100 100 100 100 100 100 100 100 100 100 100 100 99 99 100 100 100 100 99 95 88 82 78 76 64 54 52 52 54 60 63 58 52 47 48 51 57 65 64 70 72 74 79
100 100 100 100 100 100 100 100 100 100 100 100 99 99 99 100 100 100 99 97 90 84 80 73 67 60 52 48 46 52 60 62 55 50 46 45 48 56 61 64 70 72 74
100 99 99 99 100 100 100 100 100 100 100 100 100 100 100 99 99 99 99 99 99 98 85 76 70 67 59 54 50 51 53 47 40 39 39 41 47 49 52 62 64 74 77
91 97 99 99 99 99 100 100 100 100 100 99 99 99 99 99 99 99 100 100 99 99 99 98 94 84 72 66 58 52 48 46 47 45 43 43 42 45 54 58 62 65 67
82 87 93 93 97 99 99 99 99 100 100 100 99 100 100 100 99 99 99 100 100 100 98 98 98 98 98 94 74 60 51 49 50 51 55 56 52 48 50 52 58 66 66
87 89 89 90 89 91 93 95 96 97 99 100 100 100 99 100 99 99 99 100 100 99 99 100 98 97 98 99 98 98 93 78 69 64 71 71 67 60 58 57 54 60 65

GFSGL_925_rhum_102.txt.gz
RH
86 82 81 75 73 70 68 66 68 70 72 71 68 65 65 69 73 74 76 80 83 82 86 98 100 100 100 100 100 100 100 99 97 100 100 100 100 100 97 95 94 91 91
65 67 68 68 70 72 70 68 65 60 58 62 69 72 72 75 76 80 83 88 91 98 100 100 98 100 100 100 100 100 99 100 97 99 100 100 100 100 97 95 89 91 88
60 64 66 67 68 68 66 63 63 61 57 59 60 63 68 69 70 74 80 86 89 91 100 99 93 100 100 100 100 100 97 95 95 95 100 100 99 100 100 97 92 88 84
65 64 63 62 60 59 60 63 64 63 60 60 60 62 65 66 68 71 76 84 92 89 90 99 99 99 100 100 99 97 95 96 96 92 93 97 94 100 98 93 88 84 72
64 62 60 61 61 61 62 63 63 64 62 61 62 64 66 68 70 71 76 84 92 94 87 94 96 97 98 98 97 95 94 93 97 95 93 94 92 98 96 90 85 78 64
64 64 64 64 64 64 64 65 65 65 65 67 70 73 75 77 80 80 89 89 92 93 94 94 94 96 98 98 97 95 92 90 96 97 92 91 90 90 92 89 80 70 64
66 66 66 66 66 66 67 68 69 70 71 72 73 75 78 80 86 93 98 97 96 94 92 91 94 96 97 96 94 92 92 92 91 93 90 91 92 89 89 84 72 62 54
67 67 68 68 68 70 72 73 72 73 75 78 80 82 85 86 89 97 91 90 93 98 98 94 94 93 94 96 94 91 88 87 88 89 87 86 85 81 78 73 65 58 60
69 69 69 68 70 72 73 73 76 79 82 88 87 87 90 91 92 99 98 92 95 100 100 100 100 98 93 90 87 82 79 75 69 75 83 81 74 67 64 59 55 50 72
68 67 67 68 69 71 74 78 82 85 94 100 99 93 95 96 97 100 95 93 100 100 100 99 99 98 93 87 67 58 61 71 65 68 72 68 58 53 49 48 43 48 69
66 67 68 70 71 74 78 81 85 93 100 100 97 94 94 94 95 98 99 94 97 98 96 90 82 87 83 86 75 57 50 56 68 68 69 71 72 62 58 60 59 62 67
67 68 69 71 74 78 80 84 92 100 100 99 100 98 96 97 98 95 98 99 83 87 84 81 77 84 82 82 83 57 61 59 59 53 62 61 61 62 65 63 65 69 71
71 73 74 76 79 82 85 91 99 100 100 99 100 99 98 97 98 97 98 99 81 76 61 61 59 76 93 83 72 52 70 78 64 59 58 63 62 62 70 69 68 66 64
76 78 80 82 85 88 92 95 96 99 100 99 99 99 99 99 98 83 85 96 95 75 64 56 60 66 83 79 75 70 72 77 63 61 56 58 66 77 79 82 82 77 81
84 84 86 87 89 90 92 92 94 98 99 99 99 99 100 99 96 97 88 91 88 80 68 56 68 80 89 81 73 77 78 78 71 63 62 64 71 77 83 89 88 85 88
82 83 84 86 88 91 92 92 94 97 99 99 100 100 99 99 99 100 99 99 89 80 79 61 68 72 76 79 80 68 75 77 84 66 62 62 68 76 84 90 83 87 91
81 81 82 84 86 90 92 95 98 92 95 99 100 99 99 99 99 99 98 98 93 91 83 77 71 73 80 80 76 72 64 60 66 83 77 67 67 74 87 89 85 91 92
87 87 89 88 88 90 93 94 97 100 99 95 93 99 99 99 99 99 98 98 86 88 92 92 86 84 73 61 59 55 48 56 56 60 78 80 70 70 85 90 89 93 93
97 95 93 93 94 96 96 98 99 100 100 99 99 98 99 99 98 99 99 99 81 84 93 99 96 91 84 74 61 49 43 43 46 53 62 73 67 67 75 79 82 89 95
100 100 100 100 100 100 100 100 100 100 99 100 100 99 100 100 100 99 100 99 93 79 86 80 83 83 80 74 69 64 54 47 45 43 47 49 51 58 68 77 83 89 96
100 99 100 100 100 100 100 100 100 100 100 100 99 99 100 100 100 100 99 100 99 97 89 76 73 66 59 58 58 56 57 56 52 51 48 46 48 54 56 64 74 76 81
100 100 100 100 100 100 100 100 100 100 100 100 99 99 100 100 100 99 100 100 99 99 99 94 87 79 73 68 61 59 56 54 53 57 59 54 50 47 57 65 78 80 79
91 94 100 99 99 100 99 100 100 100 100 100 100 100 100 100 100 100 100 99 100 99 99 99 99 96 88 81 75 69 65 54 45 45 55 62 57 53 56 64 73 83 84
78 79 88 91 93 100 99 100 100 99 100 100 100 100 100 100 100 100 100 100 100 99 100 99 99 99 99 99 96 85 76 64 61 56 55 57 57 60 71 70 72 71 72
79 83 85 86 91 88 88 90 92 96 98 100 100 100 100 100 100 99 99 100 99 100 99 100 99 98 98 98 98 98 97 97 88 82 80 78 67 60 63 69 71 74 76
74 80 84 89 92 92 90 92 91 90 91 90 93 92 94 98 100 99 99 99 98 99 99 99 99 99 98 98 98 98 98 98 98 98 90 83 81 79 77 79 76 79 68

GFSGL_925_rhum_105.txt.gz
RH
90 89 84 78 76 74 75 76 69 63 67 73 76 78 78 78 75 71 71 74 78 82 83 91 100 98 98 93 100 100 100 100 99 100 100 100 100 100 100 98 94 96 92
95 88 83 80 79 76 74 72 73 76 77 75 73 69 66 67 69 71 73 78 84 87 89 99 99 95 95 99 99 100 99 99 99 99 100 100 100 100 100 97 94 91 90
83 84 82 80 78 78 78 77 73 68 65 64 65 66 65 65 65 65 67 72 79 88 94 99 100 93 95 99 100 100 100 100 100 99 100 100 100 99 100 99 94 92 90
64 68 70 71 70 68 66 62 60 61 60 60 62 62 61 60 61 62 65 68 74 85 94 93 94 98 100 100 100 100 100 100 99 96 99 100 98 100 100 97 91 87 84
66 66 65 64 62 60 60 61 61 61 61 61 62 64 66 67 68 69 70 74 79 87 93 93 93 94 97 100 100 100 100 100 100 98 96 96 96 100 99 97 90 84 76
67 66 65 64 64 64 64 64 62 62 64 67 70 71 71 72 74 77 79 80 87 91 92 93 94 94 95 98 99 99 99 98 97 100 95 93 92 92 99 94 88 80 72
68 68 68 67 66 66 65 64 66 68 69 70 72 73 74 76 83 86 89 88 89 94 94 93 90 89 95 97 96 94 92 95 97 96 96 92 88 86 88 92 85 77 62
70 70 69 68 67 67 67 68 69 72 74 76 76 77 80 82 86 95 99 92 89 89 95 97 96 94 94 95 96 93 91 90 92 94 96 92 91 91 88 87 87 76 64
70 69 68 68 68 68 70 72 74 76 79 82 82 81 81 83 87 97 96 91 88 91 99 100 99 100 99 98 95 92 87 82 80 86 90 88 86 82 85 85 75 67 69
69 68 68 68 68 69 71 74 77 81 83 82 91 95 88 89 90 91 98 98 92 95 99 100 99 100 99 99 84 76 81 79 74 71 76 76 72 71 70 68 64 61 57
67 68 69 69 69 71 75 77 80 84 88 97 99 92 92 92 90 90 97 99 96 93 96 97 97 98 100 99 93 67 57 60 72 72 69 70 67 65 56 54 51 47 43
69 70 70 70 72 74 77 80 84 88 93 100 100 99 94 92 92 92 93 98 100 91 84 93 96 93 93 89 95 82 67 64 64 71 72 72 73 68 65 64 62 61 64
70 71 72 74 76 78 80 84 90 94 100 99 99 99 97 93 94 94 95 98 100 90 79 82 65 71 97 84 80 72 78 86 67 60 65 57 52 64 71 67 67 67 65
75 78 79 80 82 84 87 89 92 95 98 100 99 99 99 96 96 96 95 91 91 100 85 80 58 61 62 87 83 75 68 70 75 64 54 57 71 72 74 70 70 66 66
82 83 84 84 87 88 90 89 90 88 91 97 99 100 100 99 94 97 98 96 85 90 89 77 64 65 82 89 82 74 70 78 82 74 70 62 66 74 80 82 85 80 76
83 85 86 88 89 90 91 91 91 91 91 95 98 100 98 99 99 99 99 99 100 100 97 86 74 61 74 85 87 82 74 79 82 80 68 62 70 73 79 88 92 87 82
83 83 84 86 89 90 92 95 94 87 91 93 94 98 99 99 99 99 98 99 99 100 94 91 83 72 61 66 78 80 88 80 75 81 80 64 65 67 83 87 90 88 86
91 90 89 88 88 90 92 92 92 96 97 92 91 94 96 99 98 99 99 98 100 99 93 92 90 82 72 70 64 65 71 72 72 66 77 83 74 69 80 90 91 88 85
99 98 98 97 95 95 95 96 96 99 100 98 98 99 99 98 99 99 98 100 99 98 91 90 94 91 88 84 82 78 66 57 50 52 59 61 75 81 77 79 83 87 84
100 100 100 100 100 100 100 100 100 100 100 99 99 99 99 100 99 99 99 100 100 96 92 84 85 84 84 82 80 78 78 73 64 52 49 52 55 69 78 72 71 79 91
99 100 99 100 100 100 100 100 100 100 100 100 99 99 100 100 99 100 100 99 100 100 99 99 94 87 80 75 75 76 73 68 67 65 55 48 46 56 57 61 68 72 77
82 99 99 100 100 99 100 100 100 100 100 100 99 99 100 100 100 100 100 100 100 99 99 100 100 100 96 92 90 84 78 73 67 62 64 61 56 52 53 60 73 80 76
73 74 79 90 96 99 99 99 99 99 100 100 100 100 100 99 99 100 100 100 100 100 100 100 100 100 100 99 96 95 92 83 75 72 65 62 61 65 68 68 72 82 84
67 73 76 76 77 90 86 89 94 98 100 100 100 100 100 99 99 99 99 99 99 99 99 99 99 99 100 99 99 99 98 96 94 87 80 76 71 70 78 78 73 75 78
67 71 77 80 84 85 88 88 86 87 89 88 88 87 89 90 98 99 100 100 99 99 99 98 98 98 98 98 98 98 98 98 98 98 99 93 89 88 84 84 84 83 79
66 71 76 79 80 88 92 92 90 90 92 92 92 89 89 88 91 87 91 88 95 99 99 99 99 98 98 99 98 98 98 98 98 98 98 98 98 100 98 94 91 92 93

GFSGL_925_rhum_108.txt.gz
RH
86 88 88 88 86 85 84 82 78 75 71 69 72 75 79 81 79 76 71 69 73 78 80 85 96 99 99 93 92 100 99 100 100 100 100 99 100 100 100 100 98 95 93
91 91 91 89 85 81 78 78 76 70 71 75 77 77 74 71 70 71 71 72 74 77 84 92 100 99 99 92 93 94 100 100 100 100 99 100 100 100 100 100 97 94 91
97 92 89 86 83 80 78 76 76 75 75 70 66 65 66 66 67 66 65 66 69 76 85 91 98 98 96 95 99 99 100 100 100 100 100 99 99 100 100 100 98 93 94
93 90 87 86 84 81 79 76 72 65 60 60 60 61 61 62 62 62 63 64 67 72 80 88 93 93 97 99 99 100 100 100 100 100 100 100 99 100 100 99 98 94 98
76 76 76 75 73 71 68 64 63 63 62 62 60 62 63 64 64 65 66 67 69 74 80 87 92 94 95 98 99 100 100 100 100 100 100 99 100 100 99 99 95 89 84
70 70 70 68 66 65 66 65 64 62 61 59 62 64 66 69 74 74 72 72 75 78 83 88 91 90 89 93 97 98 100 100 100 100 99 96 95 98 100 99 94 81 79
70 70 69 68 66 66 66 64 64 64 65 67 69 70 72 76 80 84 89 86 84 84 87 92 93 92 88 88 92 96 95 95 97 100 100 97 92 89 90 100 94 85 77
73 72 71 69 68 68 68 68 68 70 72 73 74 74 75 79 85 95 98 93 89 86 90 94 98 98 95 94 96 94 92 90 89 94 96 98 97 90 88 87 89 85 75
73 72 72 71 70 72 71 71 73 74 77 78 79 79 80 84 87 92 96 90 89 89 91 94 99 98 100 100 97 95 92 87 84 85 94 94 92 92 93 89 91 80 73
71 70 70 71 71 71 71 74 75 77 80 83 83 88 86 84 87 89 93 93 91 87 87 94 98 98 100 100 95 82 80 82 80 79 82 87 84 83 89 91 89 82 67
72 72 72 71 69 71 73 75 77 81 84 85 88 88 83 85 87 88 89 99 99 97 91 85 91 94 98 99 100 94 70 63 77 76 75 75 77 79 73 71 68 72 64
72 74 74 75 75 74 76 78 82 85 87 88 91 91 87 87 89 89 91 95 100 99 97 83 84 90 90 98 99 97 79 75 64 70 73 76 73 65 60 56 53 56 56
73 74 75 74 76 79 79 81 86 88 90 91 96 96 91 90 92 90 92 95 99 100 99 89 83 67 72 95 85 83 78 85 76 69 68 66 74 73 68 73 72 69 68
77 79 80 80 81 82 83 84 86 89 91 93 97 95 93 94 93 92 93 93 94 97 100 96 84 61 67 70 92 80 77 69 78 75 63 60 67 68 76 72 68 69 67
84 85 85 85 86 86 87 86 87 86 86 87 88 92 94 95 93 95 96 96 96 93 90 94 89 73 62 75 84 82 76 68 78 80 73 68 68 77 78 75 74 71 67
83 86 88 89 90 91 92 91 89 89 90 91 91 93 93 96 99 99 100 100 99 99 100 99 93 81 73 66 75 83 82 76 76 84 82 73 71 71 77 83 86 84 78
86 85 84 86 89 91 92 95 94 90 90 90 91 91 97 100 100 99 100 99 99 98 100 98 97 91 85 73 62 63 66 71 77 82 89 84 79 77 82 84 88 92 92
96 96 96 94 92 92 92 94 95 96 94 90 90 91 93 96 98 100 99 100 100 99 100 97 93 92 90 81 73 67 64 62 70 76 74 77 86 73 79 86 84 90 91
100 100 99 99 100 99 97 97 98 98 98 97 96 97 100 100 100 100 99 100 100 100 96 92 96 96 93 88 85 84 82 79 67 60 64 68 69 81 81 77 77 83 88
99 98 98 99 99 100 100 100 100 100 100 100 100 99 100 99 99 99 99 100 100 100 99 99 93 95 90 85 84 83 83 84 82 78 70 57 54 61 73 82 83 82 87
87 96 100 99 99 100 100 100 100 100 100 100 100 100 100 100 99 99 100 99 99 99 99 100 100 99 99 99 91 86 81 77 74 74 70 68 61 56 57 62 72 79 80
68 78 76 89 99 99 100 100 100 100 100 99 99 99 100 100 100 100 100 100 100 99 99 100 100 100 99 99 99 100 96 94 92 84 77 72 64 62 57 62 73 79 79
65 70 69 71 75 86 88 94 98 99 99 99 99 99 99 99 99 99 99 99 99 99 99 99 99 100 100 99 99 99 99 99 98 97 93 85 79 73 71 72 72 78 83
65 67 72 73 74 83 78 86 87 87 92 90 90 92 95 96 96 100 99 99 100 100 100 99 99 100 100 99 99 99 98 98 98 98 100 100 95 88 88 85 86 83 83
70 66 70 75 77 80 84 88 89 88 89 89 90 90 88 85 86 93 91 87 95 94 97 97 100 100 100 98 98 98 98 98 98 98 98 98 98 98 95 89 85 88 89
68 69 73 78 82 81 86 94 94 96 94 89 90 93 93 88 80 82 87 89 96 98 97 95 97 99 100 100 99 98 98 98 99 99 98 98 98 98 98 97 97 96 92

GFSGL_925_rhum_111.txt.gz
RH
97 94 94 96 99 94 91 91 89 86 86 86 82 81 82 84 84 81 77 73 72 75 80 85 98 100 98 97 94 96 100 100 97 98 100 98 100 99 99 98 100 100 97
91 96 95 94 92 88 87 85 80 77 78 76 80 80 80 74 66 62 61 63 66 72 76 85 99 100 98 97 93 95 94 100 100 100 100 99 100 100 100 99 100 100 97
94 94 97 94 89 86 85 84 79 76 76 77 75 68 62 61 59 58 57 60 63 68 73 78 84 90 91 98 100 100 98 99 100 100 100 100 99 100 100 100 100 100 97
96 95 92 90 86 83 81 79 77 76 73 67 62 60 60 60 57 58 58 62 63 67 70 78 82 86 89 93 94 97 98 98 100 100 100 100 100 100 100 99 100 99 100
94 92 90 88 84 81 80 77 72 66 63 62 61 61 60 59 60 59 60 62 65 68 73 78 82 87 90 93 98 99 99 99 100 100 100 100 100 100 99 99 100 98 98
84 84 83 81 79 76 72 67 64 62 62 61 61 64 69 70 68 64 64 68 71 72 72 76 81 86 87 85 83 90 99 100 100 100 100 100 98 98 100 99 99 94 87
75 78 77 74 71 68 66 65 66 67 68 68 71 72 70 72 73 70 70 75 75 77 78 80 86 92 90 89 90 90 94 97 99 100 100 99 100 96 96 100 100 92 83
74 73 72 69 68 70 70 69 69 70 71 72 71 69 71 76 77 80 78 83 85 85 83 87 92 94 92 94 96 97 92 90 91 91 98 98 100 100 95 93 95 95 86
78 76 74 71 70 71 70 70 71 71 72 72 72 74 74 77 83 91 96 89 88 88 85 90 91 92 96 97 95 95 91 90 88 89 90 96 96 96 98 94 98 94 81
77 76 75 74 71 72 72 73 74 76 76 80 80 80 78 78 84 87 90 91 87 88 85 83 87 92 97 98 99 92 81 79 81 81 82 89 91 89 92 96 94 89 80
74 75 75 75 73 72 72 73 74 78 81 83 85 85 80 82 85 86 88 87 86 90 92 88 81 84 90 99 100 98 90 71 69 75 72 76 84 87 83 86 89 90 82
74 73 73 74 74 74 73 76 81 84 87 88 90 92 88 88 88 87 88 91 97 96 94 94 84 80 86 91 99 98 96 77 69 69 69 70 72 70 66 66 68 75 75
77 77 78 78 78 79 79 81 86 88 89 93 98 93 86 86 89 89 90 92 98 100 100 99 93 83 69 76 96 89 96 82 79 71 67 67 68 70 65 63 58 58 60
81 82 82 80 80 81 82 83 86 90 93 92 92 89 89 88 85 89 89 91 91 92 100 100 97 88 66 63 73 88 82 77 70 78 74 67 66 64 70 70 73 76 76
92 93 93 92 92 90 90 89 88 86 87 88 86 86 89 92 88 89 90 91 95 94 95 94 95 94 80 65 70 76 79 76 67 69 79 76 69 72 74 72 70 71 68
91 92 93 93 96 96 94 92 92 92 92 90 89 89 88 94 94 95 95 98 98 99 100 98 97 94 89 77 69 68 73 77 73 72 81 82 76 71 76 81 78 77 75
92 93 91 90 92 97 98 98 97 94 94 95 92 88 88 91 99 99 99 99 100 99 100 100 100 96 93 92 82 70 59 58 69 80 78 80 82 76 79 79 83 86 88
100 99 100 100 99 98 96 95 96 97 95 91 90 92 93 95 95 96 99 100 100 100 99 98 97 96 92 94 92 82 70 66 67 69 76 80 84 85 85 88 84 85 94
99 99 99 99 98 99 100 100 100 99 99 98 98 97 98 100 100 100 100 100 100 100 99 100 98 93 93 96 95 90 86 82 81 78 66 67 72 81 84 83 80 80 89
94 97 99 99 99 99 99 99 100 100 100 100 100 100 100 100 100 100 100 100 100 99 100 100 99 100 100 100 98 94 89 89 88 86 81 76 66 62 74 79 87 90 94
70 74 98 95 100 100 100 99 100 100 100 99 100 100 100 100 100 100 100 100 100 100 100 100 100 100 100 100 99 99 99 95 90 85 82 78 78 77 68 69 76 77 84
63 66 67 72 77 82 99 100 100 100 100 100 99 99 99 99 100 100 100 99 99 99 100 100 99 99 100 100 99 100 100 99 100 98 97 95 87 79 77 77 78 83 82
75 64 68 69 69 82 75 79 88 90 96 98 98 99 99 99 99 100 100 100 100 100 100 100 100 100 100 100 99 99 100 99 98 98 99 100 99 94 88 86 84 88 89
76 65 68 71 73 83 75 84 84 85 86 86 87 96 95 94 90 92 100 98 95 96 97 98 99 100 100 100 100 100 100 99 98 99 99 98 98 98 99 96 90 85 85
78 65 67 72 77 79 79 85 87 89 91 89 86 94 93 89 83 74 77 84 87 89 100 100 100 100 100 100 100 100 100 100 99 98 99 99 98 98 98 98 98 97 94
73 66 68 70 75 78 77 82 90 94 95 96 95 93 91 87 81 75 81 86 94 91 86 82 83 86 87 88 92 97 100 100 99 99 99 99 99 100 98 98 97 98 97

GFSGL_925_rhum_114.txt.gz
RH
99 98 91 93 86 88 92 97 98 93 100 100 99 100 93 90 90 87 87 87 87 80 82 90 90 90 90 92 98 99 98 99 95 88 94 94 97 100 100 100 100 100 100
100 99 100 100 100 100 100 100 100 100 100 98 94 89 86 83 81 84 80 77 80 83 88 87 86 87 90 98 96 96 100 100 100 99 99 97 99 100 100 100 100 100 99
100 100 100 100 100 100 100 100 99 96 92 87 83 80 80 79 74 74 70 74 79 82 85 85 84 87 94 97 99 99 99 99 99 100 99 99 99 100 100 100 100 100 99
100 100 100 100 100 99 94 89 87 82 80 81 81 78 70 65 63 61 63 67 70 68 66 69 72 80 90 94 97 94 99 98 99 100 100 100 100 100 100 100 100 100 100
99 99 99 97 94 92 90 87 83 81 80 77 71 66 63 62 59 58 59 62 66 68 68 69 70 74 82 89 96 97 98 99 98 100 100 100 100 100 99 99 100 100 100
96 95 96 92 90 90 88 85 82 78 73 69 68 65 64 60 59 58 59 61 64 69 72 73 74 81 88 87 87 86 90 99 98 100 100 100 99 100 100 100 100 100 98
88 89 89 88 86 84 80 76 72 69 67 66 66 67 72 71 66 64 63 65 69 71 73 76 86 85 90 92 89 87 91 94 98 98 99 100 100 99 99 100 100 99 92
80 82 82 82 83 82 81 80 75 71 69 68 70 71 75 82 71 69 71 73 75 76 76 79 92 93 94 92 95 96 97 91 90 91 91 93 99 99 100 99 99 99 94
77 78 80 79 80 81 80 77 77 75 73 73 72 73 73 74 78 80 81 81 79 80 77 79 89 94 91 88 92 88 90 90 88 90 90 91 95 97 99 100 100 99 90
78 79 80 79 78 82 80 79 77 79 75 78 79 77 82 89 86 93 88 85 85 84 80 80 78 82 88 97 100 94 86 80 79 81 80 81 91 96 99 100 100 98 88
79 83 83 81 81 82 79 76 77 79 81 86 92 98 94 92 91 87 86 88 86 85 88 88 81 74 78 90 99 99 92 84 78 72 72 71 82 88 87 90 96 97 92
77 75 76 78 77 79 78 77 86 91 93 96 93 96 88 84 81 84 90 100 98 97 94 93 91 82 80 85 96 99 96 92 82 77 70 70 68 68 68 72 75 88 94
86 86 88 88 84 83 85 89 86 88 84 90 99 95 88 85 86 85 87 90 99 100 99 98 99 91 81 76 85 98 96 92 86 82 81 70 64 65 64 62 60 67 71
85 87 88 86 87 88 92 90 84 86 85 89 98 94 87 91 92 94 91 92 94 99 100 100 100 95 88 73 63 85 88 81 80 80 82 82 65 62 67 67 75 76 86
98 97 94 91 90 90 92 92 89 88 92 94 95 92 90 90 87 86 92 91 94 92 97 99 99 96 93 84 79 79 82 82 82 82 87 91 92 87 86 68 74 84 98
88 92 97 98 100 100 100 98 97 95 94 94 94 93 91 91 87 88 91 94 95 96 100 97 94 93 93 90 80 73 75 80 82 87 93 95 95 98 98 93 81 90 95
97 98 95 91 90 93 99 100 100 97 98 96 95 93 93 92 94 96 99 100 99 99 100 100 99 99 99 94 93 89 87 82 74 74 87 96 97 99 98 99 99 97 95
100 100 99 99 100 100 98 99 99 99 95 93 89 91 93 97 100 100 100 100 100 100 99 99 99 94 92 94 94 94 97 89 71 67 81 88 92 98 100 98 97 94 93
98 100 100 100 100 100 100 99 99 99 100 98 99 96 96 99 100 100 100 100 100 100 99 100 99 99 98 94 95 99 99 91 82 80 81 79 79 96 98 97 97 94 93
90 89 98 100 100 100 100 100 100 100 100 100 100 100 100 100 100 100 100 100 100 100 100 100 100 100 100 100 100 100 100 98 95 92 89 87 85 85 96 95 94 95 93
71 69 71 71 91 98 100 100 100 100 100 100 100 100 100 100 100 100 100 100 100 100 100 100 100 99 100 100 100 100 100 100 99 97 94 90 88 99 99 96 92 92 92
79 75 76 80 76 82 91 95 99 99 99 100 99 99 99 100 100 100 100 100 100 99 99 99 100 99 99 99 99 99 100 99 100 99 99 98 97 99 100 100 96 93 94
88 80 80 83 85 87 84 82 87 88 89 93 96 98 98 99 99 99 99 99 99 100 99 100 100 99 99 99 99 99 100 100 99 99 99 99 99 100 99 100 100 97 92
84 76 73 74 78 78 78 80 83 85 87 86 87 90 95 94 92 94 93 99 96 93 92 96 100 100 100 100 99 99 99 99 100 100 99 99 99 100 99 99 99 99 98
86 74 71 73 77 77 77 79 83 86 89 90 88 88 93 95 94 93 84 87 90 99 100 93 96 97 99 98 97 98 100 100 100 100 99 100 100 99 98 99 100 100 98
84 75 72 77 80 84 84 85 90 95 96 95 96 98 97 99 98 93 81 85 99 100 92 85 76 73 76 81 83 83 84 90 95 98 100 100 100 97 98 98 99 99 100

GFSGL_925_rhum_117.txt.gz
RH
100 99 95 98 99 97 90 92 94 92 94 95 96 89 96 93 98 100 99 97 99 96 91 87 86 85 85 87 92 94 94 92 93 81 87 88 89 98 100 100 99 100 100
100 99 100 100 99 100 100 91 80 79 79 70 93 100 100 99 99 97 92 90 87 86 84 80 81 81 82 88 92 88 92 94 98 89 92 94 100 100 100 100 100 100 100
100 98 99 99 100 100 100 99 98 98 99 100 100 100 99 94 88 86 82 79 74 73 76 78 80 82 83 91 91 95 97 97 95 99 97 94 94 98 99 100 100 100 100
100 99 100 100 100 100 100 100 100 100 100 99 97 92 87 83 79 74 68 67 69 73 74 78 80 82 84 88 91 90 92 94 92 91 94 100 100 99 100 100 100 100 100
100 100 100 99 100 100 100 100 99 98 93 88 83 81 78 74 67 63 64 68 71 71 69 71 72 72 74 80 84 91 94 96 94 93 93 99 99 99 100 100 100 100 100
97 98 98 98 99 99 96 93 90 86 82 80 79 75 70 65 61 57 58 65 68 70 71 69 70 70 74 78 80 81 82 93 95 93 93 100 99 100 100 100 100 100 98
93 94 93 92 93 93 90 87 85 82 80 76 72 69 67 60 58 58 61 63 65 67 68 69 75 75 78 87 88 83 85 87 90 95 99 99 100 100 100 100 100 100 98
86 89 89 88 89 89 87 86 85 82 79 77 76 75 72 66 63 64 64 64 67 69 70 75 82 87 89 90 94 92 91 94 89 90 91 90 91 94 100 100 100 100 99
76 78 79 82 82 82 84 84 82 80 80 79 78 80 80 75 69 69 69 73 72 71 72 75 80 86 90 86 92 91 87 86 86 83 85 88 90 94 99 100 100 100 97
72 75 79 81 82 82 83 87 88 81 78 80 80 79 84 84 77 73 74 78 78 78 74 78 73 76 75 80 96 97 91 84 81 79 79 77 83 93 98 100 100 100 95
81 81 80 80 80 82 83 80 80 83 82 87 86 86 82 86 82 82 82 88 82 81 83 82 80 76 78 81 94 99 96 91 84 82 76 69 68 79 85 86 97 100 100
82 83 85 85 84 88 87 88 89 88 92 93 91 90 89 86 86 85 83 89 92 89 89 87 87 83 79 80 84 96 93 93 91 81 77 76 67 62 62 66 76 92 99
78 79 82 83 84 84 86 86 85 85 83 84 86 89 87 84 82 82 83 88 100 99 97 95 98 96 88 79 74 87 98 94 92 84 80 78 68 58 60 61 60 67 78
83 84 85 81 79 78 81 80 78 78 77 76 87 93 85 86 86 86 86 89 94 100 99 99 98 98 94 86 78 66 72 90 84 80 81 82 80 63 59 65 70 77 98
96 95 92 94 94 90 91 91 87 80 82 82 86 90 86 86 85 85 85 87 91 92 99 99 99 98 96 92 86 80 78 83 81 76 79 83 90 89 79 83 76 97 99
79 86 92 96 98 98 96 96 98 97 96 96 96 96 95 93 91 90 90 90 90 93 97 98 95 94 93 90 88 81 75 76 77 80 85 87 91 92 93 98 97 94 97
92 93 90 86 86 85 89 99 100 97 98 99 99 100 98 97 97 97 97 95 94 99 99 99 94 95 94 94 92 90 83 80 80 82 80 81 85 98 100 98 100 96 96
99 98 100 99 98 98 98 98 99 99 97 95 96 99 100 100 99 100 100 100 100 100 100 100 99 97 95 94 94 95 94 94 92 83 74 74 84 92 99 99 97 95 96
95 97 100 99 100 100 100 99 100 100 100 98 96 97 96 99 100 100 100 100 100 100 100 100 99 100 99 97 93 92 94 95 100 96 82 79 82 92 95 97 96 95 96
83 79 87 97 98 99 100 100 99 99 100 100 100 99 99 100 99 99 100 100 100 100 100 100 100 100 100 100 100 100 100 100 100 100 99 98 98 98 95 94 94 96 93
78 76 83 77 80 84 86 97 99 99 100 100 100 100 100 100 100 100 100 100 100 100 100 100 100 100 100 100 100 100 100 100 100 99 99 100 100 100 100 98 95 94 92
74 76 76 76 77 76 82 88 85 91 93 98 99 99 99 100 100 100 100 99 99 99 99 99 99 99 99 99 99 99 100 99 99 98 98 99 99 99 99 99 97 96 95
86 80 72 72 76 80 84 80 83 84 82 82 86 91 97 99 99 100 99 99 99 99 99 99 99 99 99 99 99 99 99 99 99 99 98 99 99 98 98 99 99 100 98
83 78 70 66 68 72 72 72 75 79 82 83 82 83 88 90 89 89 91 93 94 94 95 99 100 100 99 98 99 100 99 99 99 99 99 99 98 98 98 98 98 98 98
86 81 69 64 66 69 69 72 73 77 82 86 87 87 86 90 93 93 91 82 80 85 96 100 96 92 95 95 97 97 97 98 99 99 99 99 99 98 98 98 98 97 97
90 82 71 68 72 75 79 81 84 88 92 94 94 94 96 96 98 96 90 81 84 95 99 93 85 78 72 70 72 78 81 81 81 90 96 96 98 100 100 96 97 98 97

GFSGL_925_rhum_120.txt.gz
RH
99 98 91 90 85 87 97 91 98 94 90 87 92 98 91 84 85 96 66 68 98 97 95 98 98 87 79 77 86 89 89 87 92 85 81 83 90 99 100 98 99 99 99
99 100 97 92 96 99 99 98 93 94 97 94 93 92 91 92 88 87 77 82 98 96 96 91 85 82 81 84 84 89 86 87 91 90 85 84 86 89 92 96 98 100 100
100 100 97 100 92 98 96 93 98 99 99 100 98 95 92 88 88 88 94 99 96 92 86 82 81 77 80 83 83 76 81 92 93 92 92 89 89 94 96 94 97 98 100
100 100 100 100 99 100 99 100 100 100 100 100 100 96 89 96 98 100 96 90 83 79 78 77 78 73 76 78 81 89 93 93 92 88 87 91 93 93 98 100 99 100 100
100 100 100 100 100 100 100 100 100 99 100 100 100 100 99 99 94 88 81 77 74 73 72 72 69 66 68 74 80 87 90 87 92 91 92 96 94 97 96 100 100 99 99
98 99 100 100 100 100 100 100 100 100 99 100 100 98 91 86 81 76 72 66 64 62 63 63 63 64 67 71 78 78 80 86 92 92 90 93 93 97 98 100 100 99 99
95 96 98 99 99 99 99 99 98 97 97 95 91 84 80 76 71 65 61 59 60 61 60 61 65 68 69 75 81 81 81 83 87 89 99 98 97 97 99 99 100 100 99
91 91 90 92 94 93 92 91 91 88 85 83 80 76 72 68 66 67 63 60 61 63 64 66 69 73 79 82 85 91 93 90 88 86 90 92 92 91 92 95 99 100 100
80 81 86 90 90 88 88 88 87 85 84 82 80 78 69 66 68 66 60 61 63 66 66 68 72 76 76 80 81 87 87 88 88 84 84 86 86 86 90 100 100 100 99
77 79 81 82 83 86 87 87 85 84 81 80 81 80 77 70 68 70 69 69 70 70 71 72 72 73 76 75 80 92 96 88 84 81 80 78 76 82 89 98 100 99 100
80 80 80 79 82 84 86 86 85 82 81 82 79 80 81 78 75 74 73 76 72 74 72 74 74 75 75 73 86 93 96 92 88 85 82 76 68 64 68 77 86 98 100
80 81 82 82 82 82 82 84 89 88 88 89 87 88 86 86 83 79 79 83 82 81 79 79 79 79 78 78 82 90 100 95 92 90 79 68 67 61 57 58 62 76 96
79 81 82 81 80 84 84 84 88 88 89 90 89 90 88 87 87 86 86 83 89 87 85 87 88 90 89 85 80 80 98 100 95 93 87 74 73 64 57 55 58 58 68
88 86 84 82 80 78 80 80 82 80 82 81 83 85 87 87 85 84 86 93 100 100 98 96 94 95 96 93 86 83 80 83 91 90 85 80 81 78 63 58 61 72 84
85 91 94 96 95 90 87 84 83 83 82 81 85 87 87 88 85 84 85 87 91 98 100 100 99 100 100 96 92 87 81 78 82 84 82 78 79 81 78 76 79 90 100
78 81 86 86 89 94 98 100 99 100 100 97 94 94 94 97 93 91 92 92 96 98 100 100 100 100 98 93 92 89 83 79 77 78 79 81 84 88 90 93 99 98 99
85 86 86 89 89 90 92 96 98 94 96 99 100 100 99 98 98 100 100 100 99 100 100 99 96 92 88 88 87 88 87 83 76 74 76 80 83 88 96 99 98 100 100
96 98 97 99 98 98 98 98 99 100 100 98 95 96 100 100 100 100 100 100 100 100 100 100 99 95 93 90 90 92 93 92 91 89 88 82 81 84 96 97 99 99 98
91 93 95 97 100 100 100 100 100 100 99 99 98 94 95 97 99 100 100 100 100 100 100 100 100 99 99 99 99 96 90 89 89 91 94 95 82 86 93 96 93 98 100
78 71 69 81 82 82 91 99 99 99 99 100 99 99 98 99 98 99 100 100 100 100 100 100 100 100 100 100 100 100 100 100 99 99 99 100 100 100 99 95 92 95 92
71 65 74 65 68 69 68 78 95 93 97 99 99 99 99 100 100 100 99 100 100 100 100 100 100 100 100 100 100 100 100 100 99 100 100 100 99 99 99 100 100 96 94
69 70 70 67 68 69 71 80 75 78 85 86 90 92 96 99 99 99 99 99 99 99 99 99 99 99 99 99 99 99 99 100 100 99 99 99 100 100 99 99 99 97 95
71 78 72 68 67 71 71 75 75 79 82 82 80 79 80 94 97 97 98 98 98 98 98 98 98 98 98 98 98 98 99 99 99 100 99 99 99 99 99 98 98 98 99
55 76 77 72 64 66 69 70 70 74 79 80 82 82 80 84 88 87 87 88 92 93 96 98 98 98 98 99 99 99 99 100 100 100 100 100 99 98 99 98 98 98 98
52 75 82 74 65 65 68 69 72 74 75 82 89 91 91 90 90 92 92 91 83 81 88 100 99 100 96 97 99 99 99 99 99 99 96 99 99 98 97 98 99 98 97
59 82 88 78 68 67 71 77 80 84 86 89 94 92 89 95 94 96 96 89 83 88 100 100 95 86 78 72 70 73 78 84 87 86 90 96 96 97 98 98 96 97 97

GFSGL_925_rhum_123.txt.gz
RH
94 100 96 100 100 85 85 88 88 92 87 98 93 90 92 87 90 87 87 85 94 94 95 91 92 91 94 85 85 86 86 87 93 89 89 86 84 84 88 96 97 98 100
100 97 100 88 94 91 100 99 100 92 89 100 99 93 89 92 92 76 80 92 97 82 87 92 95 97 82 78 83 86 87 85 86 91 90 85 85 87 90 93 89 88 95
100 99 100 99 99 97 95 97 96 100 100 100 100 100 100 90 77 78 79 89 88 86 77 96 94 86 79 82 84 87 91 89 87 88 89 85 85 86 93 99 100 99 100
100 100 100 100 94 94 98 97 96 91 95 100 100 99 94 91 90 89 92 87 89 96 97 92 84 80 72 79 82 79 79 84 87 89 88 88 90 89 91 90 98 100 99
100 100 100 98 98 100 100 100 100 99 98 99 100 99 98 99 100 97 94 98 98 97 87 82 79 76 74 78 75 74 81 88 87 90 90 93 96 96 96 95 97 99 96
100 100 100 100 100 100 100 100 100 100 100 99 99 100 99 100 100 100 95 98 95 84 79 78 76 72 74 74 69 73 76 84 88 90 90 88 89 91 93 97 99 100 98
98 100 100 100 100 100 100 100 100 100 100 100 100 100 100 99 99 99 97 90 81 76 70 66 67 66 65 64 68 73 75 78 79 83 88 91 95 92 92 93 96 100 99
94 93 95 96 97 97 99 99 98 99 100 100 100 100 98 92 82 80 75 71 67 64 61 61 62 66 67 68 73 78 82 85 85 83 84 85 87 90 92 94 100 100 100
83 87 91 92 90 91 91 91 91 91 90 90 91 93 92 82 81 77 71 66 64 66 68 68 67 66 71 77 78 83 90 88 87 85 82 84 86 85 93 100 100 100 99
80 81 82 83 88 89 89 89 89 86 85 85 85 87 89 87 90 92 84 70 71 70 71 71 74 72 76 79 74 78 84 86 88 86 82 80 78 79 86 99 100 100 100
81 80 79 79 80 82 84 85 83 84 84 85 85 87 86 83 78 83 78 72 67 69 70 72 73 75 76 73 71 77 82 89 88 85 85 84 78 72 70 74 81 95 100
82 82 81 81 82 83 82 84 85 85 85 89 90 92 91 92 89 87 85 84 79 74 72 72 73 74 75 73 74 78 88 96 93 91 89 84 73 68 64 61 60 65 82
81 83 83 82 82 83 81 82 86 87 87 86 86 85 84 86 87 88 90 88 88 83 80 77 77 78 79 79 79 79 87 100 98 96 93 89 74 71 69 56 57 60 59
89 92 92 87 85 83 85 86 85 83 84 86 88 87 86 86 85 84 85 88 91 95 90 88 86 87 89 90 89 84 82 91 93 98 92 88 82 82 78 66 61 70 77
79 81 83 86 91 95 96 94 93 96 98 96 92 90 90 90 88 89 87 85 89 96 100 100 100 100 98 97 95 90 85 84 79 81 91 87 81 80 81 77 78 91 90
84 87 89 88 90 90 92 91 93 95 96 98 100 100 100 100 99 100 100 99 98 98 100 100 100 100 100 100 98 94 93 88 81 81 85 83 80 81 83 89 98 100 100
84 90 94 98 100 100 98 98 98 92 92 93 95 96 100 100 100 98 100 100 100 100 100 100 100 100 100 100 100 97 88 85 83 79 77 76 78 82 88 93 96 99 98
82 90 94 95 97 99 100 99 100 100 100 98 92 95 96 98 99 100 98 100 100 100 100 100 100 100 100 100 100 100 87 88 88 84 80 83 84 84 88 96 91 94 99
81 83 80 74 81 83 76 88 96 100 100 100 99 98 100 100 97 95 98 100 100 100 100 100 100 100 100 100 100 100 95 92 93 92 90 89 90 92 92 94 99 92 97
71 68 66 63 60 61 68 70 83 91 94 99 100 100 99 98 100 99 99 100 100 100 100 100 100 100 100 100 100 100 100 100 99 98 96 95 97 100 99 98 90 94 94
63 59 65 62 59 61 61 63 75 76 76 87 94 94 95 98 100 100 100 100 99 99 99 100 100 100 100 100 100 100 100 100 100 100 100 100 100 100 98 99 99 100 99
60 64 67 66 61 61 63 70 74 71 74 78 74 74 81 84 94 99 100 100 100 99 99 99 99 99 99 99 100 99 99 99 99 99 99 99 100 99 99 99 98 98 99
59 72 77 71 66 66 70 65 70 70 72 76 75 73 74 76 83 90 90 91 96 98 98 98 98 98 98 98 99 99 99 99 99 99 99 98 99 98 98 98 98 98 98
75 59 65 73 72 65 67 67 68 70 72 74 78 81 82 83 81 85 88 88 86 83 82 90 96 97 98 98 98 98 98 98 98 97 99 99 100 99 98 98 98 98 98
73 60 59 77 79 69 65 66 66 69 75 78 80 82 91 94 95 93 96 97 94 86 80 90 100 100 99 99 100 100 100 100 99 99 99 100 99 100 98 98 98 97 98
71 65 63 81 87 77 70 69 71 76 79 80 80 88 94 90 92 96 92 93 95 94 93 100 100 99 88 82 75 74 77 84 93 95 95 95 98 100 100 100 98 98 97